[[{"header":{"parameterUnit":"m.s-1","parameterCategory":1,"la1":30.6,"la2":29.2853,"lo1":-89.7004,"lo2":-87.6739,"dy":0.0162,"dx":0.0183,"nx":112,"ny":82,"refTime":"2023-08-09T12:00:00:Z","depth":0,"parameterNumber":2,"parameterNumberName":"U-component_of_WINDS"},"data":[0.0,0.0,0.0,0.0,0.0,0.0,0.0,0.0,0.0,0.0,0.0,0.0,0.0,0.0,0.0,0.0,0.0,0.0,0.0,0.0,0.0,0.0,0.0,0.0,0.0,0.0,0.0,0.0,0.0,0.0,0.0,0.0,0.0,0.0,0.0,0.0,0.0,0.0,0.0,0.0,0.0,0.0,0.0,0.0,0.0,0.0,0.0,0.0,0.0,0.0,0.0,0.0,0.0,0.0,0.0,0.0,0.0,0.0,0.0,0.0,0.0,0.0,0.0,0.0,0.0,0.0,0.0,0.0,0.0,0.0,0.0,0.0,0.0,0.0,0.0,0.0,0.0,0.0,0.0,0.0,0.0,0.0,0.0,0.0,0.0,0.0,0.0,0.0,0.0,0.0,0.0,-2.3481,-2.6582,-2.8554,-2.849,-2.8554,-2.6574,-2.1824,0.0,0.0,0.0,0.0,0.0,0.0,0.0,0.0,0.0,0.0,0.0,0.0,0.0,0.0,0.0,0.0,0.0,0.0,0.0,0.0,0.0,0.0,0.0,0.0,0.0,0.0,0.0,0.0,0.0,0.0,0.0,0.0,0.0,0.0,0.0,0.0,0.0,0.0,0.0,0.0,0.0,0.0,0.0,0.0,0.0,0.0,0.0,0.0,0.0,0.0,0.0,0.0,0.0,0.0,0.0,0.0,0.0,0.0,0.0,0.0,0.0,0.0,0.0,0.0,0.0,0.0,0.0,0.0,0.0,0.0,0.0,0.0,0.0,0.0,0.0,0.0,0.0,0.0,0.0,0.0,0.0,0.0,0.0,0.0,0.0,0.0,0.0,0.0,0.0,0.0,0.0,0.0,0.0,0.0,0.0,0.0,0.0,0.0,0.0,0.0,0.0,0.0,0.0,0.0,-2.3567,-2.7072,-2.8139,-2.8425,-2.7954,-2.836,-2.6596,-2.1874,0.0,0.0,0.0,0.0,0.0,0.0,0.0,0.0,0.0,0.0,0.0,0.0,0.0,0.0,0.0,0.0,0.0,0.0,0.0,0.0,0.0,0.0,0.0,0.0,0.0,0.0,0.0,0.0,0.0,0.0,0.0,0.0,0.0,0.0,0.0,0.0,0.0,0.0,0.0,0.0,0.0,0.0,0.0,0.0,0.0,0.0,0.0,0.0,0.0,0.0,0.0,0.0,0.0,0.0,0.0,0.0,0.0,0.0,0.0,0.0,0.0,0.0,0.0,0.0,0.0,0.0,0.0,0.0,0.0,0.0,0.0,0.0,0.0,0.0,0.0,0.0,0.0,0.0,0.0,0.0,0.0,0.0,0.0,0.0,0.0,0.0,0.0,0.0,0.0,0.0,0.0,0.0,0.0,0.0,0.0,0.0,0.0,0.0,0.0,0.0,0.0,0.0,0.0,-2.1967,-2.4183,-2.7663,-2.8268,-2.8346,-2.8105,-2.8392,-2.6667,-2.2162,-2.2166,0.0,0.0,0.0,0.0,0.0,0.0,0.0,0.0,0.0,0.0,0.0,0.0,0.0,0.0,0.0,0.0,0.0,0.0,0.0,0.0,0.0,0.0,0.0,0.0,0.0,0.0,0.0,0.0,0.0,0.0,0.0,0.0,0.0,0.0,0.0,0.0,0.0,0.0,0.0,0.0,0.0,0.0,0.0,0.0,0.0,0.0,0.0,0.0,0.0,0.0,0.0,0.0,0.0,0.0,0.0,0.0,0.0,0.0,0.0,0.0,0.0,0.0,0.0,0.0,0.0,0.0,0.0,0.0,0.0,0.0,0.0,0.0,0.0,0.0,0.0,0.0,0.0,0.0,0.0,0.0,0.0,0.0,0.0,0.0,0.0,0.0,0.0,0.0,0.0,0.0,0.0,0.0,0.0,0.0,0.0,0.0,0.0,0.0,0.0,0.0,0.0,0.0,-2.3719,-2.5351,-2.7544,-2.8072,-2.8203,-2.8137,-2.8379,-2.6739,-2.2521,-2.2315,0.0,0.0,0.0,0.0,0.0,0.0,0.0,0.0,0.0,0.0,0.0,0.0,0.0,0.0,0.0,0.0,0.0,0.0,0.0,0.0,0.0,0.0,0.0,0.0,0.0,0.0,0.0,0.0,0.0,0.0,0.0,0.0,0.0,0.0,0.0,0.0,0.0,0.0,0.0,0.0,0.0,0.0,0.0,0.0,0.0,0.0,0.0,0.0,0.0,0.0,0.0,0.0,0.0,0.0,0.0,0.0,0.0,0.0,0.0,0.0,0.0,0.0,0.0,0.0,0.0,0.0,0.0,0.0,0.0,0.0,0.0,0.0,0.0,0.0,0.0,0.0,0.0,0.0,0.0,0.0,0.0,0.0,0.0,0.0,0.0,0.0,0.0,0.0,0.0,0.0,0.0,0.0,0.0,0.0,0.0,0.0,0.0,0.0,0.0,0.0,0.0,0.0,-2.5836,-2.7782,-2.7809,-2.8,-2.798,-2.759,-2.8039,-2.6734,-2.3003,-2.2349,0.0,0.0,0.0,0.0,0.0,0.0,0.0,0.0,0.0,0.0,0.0,0.0,0.0,0.0,0.0,0.0,0.0,0.0,0.0,0.0,0.0,0.0,0.0,0.0,0.0,0.0,0.0,0.0,0.0,0.0,0.0,0.0,0.0,0.0,0.0,0.0,0.0,0.0,0.0,0.0,0.0,0.0,0.0,0.0,0.0,0.0,0.0,0.0,0.0,0.0,0.0,0.0,0.0,0.0,0.0,0.0,0.0,0.0,0.0,0.0,0.0,0.0,0.0,0.0,0.0,0.0,0.0,0.0,0.0,0.0,0.0,0.0,0.0,0.0,0.0,0.0,0.0,0.0,0.0,0.0,0.0,0.0,0.0,0.0,0.0,0.0,0.0,0.0,0.0,0.0,0.0,0.0,0.0,0.0,0.0,0.0,0.0,0.0,0.0,0.0,0.0,0.0,-2.4993,-2.6773,0.0,-2.7789,-2.7855,-2.7689,-2.8072,-2.6793,-2.3223,0.0,0.0,0.0,0.0,0.0,0.0,0.0,0.0,0.0,0.0,0.0,0.0,0.0,0.0,0.0,0.0,0.0,0.0,0.0,0.0,0.0,0.0,0.0,0.0,0.0,0.0,0.0,0.0,0.0,0.0,0.0,0.0,0.0,0.0,0.0,0.0,0.0,0.0,0.0,0.0,0.0,0.0,0.0,0.0,0.0,0.0,0.0,0.0,0.0,0.0,0.0,0.0,0.0,0.0,0.0,0.0,0.0,0.0,0.0,0.0,0.0,0.0,0.0,0.0,0.0,0.0,0.0,0.0,0.0,0.0,0.0,0.0,0.0,0.0,0.0,0.0,0.0,0.0,0.0,0.0,0.0,0.0,0.0,0.0,0.0,0.0,0.0,0.0,0.0,0.0,0.0,0.0,0.0,0.0,0.0,0.0,0.0,0.0,0.0,0.0,0.0,0.0,-2.2863,-2.4869,-2.6557,0.0,-2.7623,-2.7723,-2.7776,-2.8006,-2.6691,-2.3289,0.0,0.0,0.0,0.0,0.0,0.0,0.0,0.0,0.0,0.0,0.0,0.0,0.0,0.0,0.0,0.0,0.0,0.0,0.0,0.0,0.0,0.0,0.0,0.0,0.0,0.0,0.0,0.0,0.0,0.0,0.0,0.0,0.0,0.0,0.0,0.0,0.0,0.0,0.0,0.0,0.0,0.0,0.0,0.0,0.0,0.0,0.0,0.0,0.0,0.0,0.0,0.0,0.0,0.0,0.0,0.0,0.0,0.0,0.0,0.0,0.0,0.0,0.0,0.0,0.0,0.0,0.0,0.0,0.0,0.0,0.0,0.0,0.0,0.0,0.0,0.0,0.0,0.0,0.0,0.0,0.0,0.0,0.0,0.0,0.0,0.0,0.0,0.0,0.0,0.0,0.0,0.0,0.0,0.0,0.0,0.0,0.0,0.0,0.0,0.0,0.0,0.0,-2.3369,-2.5958,-2.7723,-2.7523,-2.749,-2.759,-2.7776,-2.7809,-2.6425,0.0,0.0,0.0,0.0,0.0,0.0,0.0,0.0,0.0,0.0,0.0,0.0,0.0,0.0,0.0,0.0,0.0,0.0,0.0,0.0,0.0,0.0,0.0,0.0,0.0,0.0,0.0,0.0,0.0,0.0,0.0,0.0,0.0,0.0,0.0,0.0,0.0,0.0,0.0,0.0,0.0,0.0,0.0,0.0,0.0,0.0,0.0,0.0,0.0,0.0,0.0,0.0,0.0,0.0,0.0,0.0,0.0,0.0,0.0,0.0,0.0,0.0,0.0,0.0,0.0,0.0,0.0,0.0,0.0,0.0,0.0,0.0,0.0,0.0,0.0,0.0,0.0,0.0,0.0,0.0,0.0,0.0,0.0,0.0,0.0,0.0,0.0,0.0,0.0,0.0,0.0,0.0,0.0,0.0,0.0,0.0,0.0,0.0,0.0,0.0,0.0,0.0,0.0,-2.3197,-2.575,-2.7623,-2.7689,-2.759,-2.759,-2.7776,-2.7934,-2.6587,-2.3296,0.0,0.0,0.0,0.0,0.0,0.0,0.0,0.0,0.0,0.0,0.0,0.0,0.0,0.0,0.0,0.0,0.0,0.0,0.0,0.0,0.0,0.0,0.0,0.0,0.0,0.0,0.0,0.0,0.0,0.0,0.0,0.0,0.0,0.0,0.0,0.0,0.0,0.0,0.0,0.0,0.0,0.0,0.0,0.0,0.0,0.0,0.0,0.0,0.0,0.0,0.0,0.0,0.0,0.0,0.0,0.0,0.0,0.0,0.0,0.0,0.0,0.0,0.0,0.0,0.0,0.0,0.0,0.0,0.0,0.0,0.0,0.0,0.0,0.0,0.0,0.0,0.0,0.0,0.0,0.0,0.0,0.0,0.0,0.0,0.0,0.0,0.0,0.0,0.0,0.0,0.0,0.0,0.0,0.0,0.0,0.0,0.0,0.0,0.0,0.0,0.0,0.0,-2.2989,-2.5634,-2.7556,-2.7656,-2.7556,-2.759,-2.7776,-2.7835,-2.6714,-2.4067,0.0,0.0,0.0,0.0,0.0,0.0,0.0,0.0,0.0,0.0,0.0,0.0,0.0,0.0,0.0,0.0,0.0,0.0,0.0,0.0,0.0,0.0,0.0,0.0,0.0,0.0,0.0,0.0,0.0,0.0,0.0,0.0,0.0,0.0,0.0,0.0,0.0,0.0,0.0,0.0,0.0,0.0,0.0,0.0,0.0,0.0,0.0,0.0,0.0,0.0,0.0,0.0,0.0,0.0,0.0,0.0,0.0,0.0,0.0,0.0,0.0,0.0,0.0,0.0,0.0,0.0,0.0,0.0,0.0,0.0,0.0,0.0,0.0,0.0,0.0,0.0,0.0,0.0,0.0,0.0,0.0,0.0,0.0,0.0,0.0,0.0,0.0,0.0,0.0,0.0,0.0,0.0,0.0,0.0,0.0,0.0,0.0,0.0,0.0,0.0,0.0,0.0,-2.2822,-2.5603,-2.7581,-2.7615,-2.7581,-2.7668,-2.7868,-2.7649,-2.6828,-2.5235,0.0,0.0,0.0,0.0,0.0,0.0,0.0,0.0,0.0,0.0,0.0,0.0,0.0,0.0,0.0,0.0,0.0,0.0,0.0,0.0,0.0,0.0,0.0,0.0,0.0,0.0,0.0,0.0,0.0,0.0,0.0,0.0,0.0,0.0,0.0,0.0,0.0,0.0,0.0,0.0,0.0,0.0,0.0,0.0,0.0,0.0,0.0,0.0,0.0,0.0,0.0,0.0,0.0,0.0,0.0,0.0,0.0,0.0,0.0,0.0,-2.2224,0.0,0.0,0.0,0.0,0.0,0.0,0.0,0.0,0.0,0.0,0.0,0.0,0.0,0.0,0.0,0.0,0.0,0.0,0.0,0.0,0.0,0.0,0.0,0.0,0.0,0.0,0.0,0.0,0.0,0.0,0.0,0.0,0.0,0.0,0.0,0.0,0.0,0.0,0.0,0.0,0.0,-2.2934,-2.602,-2.8271,-2.8433,-2.8318,-2.8271,-2.8488,-2.8019,-2.7043,-2.5422,-2.506,0.0,0.0,0.0,0.0,0.0,0.0,0.0,0.0,0.0,0.0,0.0,0.0,0.0,0.0,0.0,0.0,0.0,0.0,0.0,0.0,0.0,0.0,0.0,0.0,0.0,0.0,0.0,0.0,0.0,0.0,0.0,0.0,0.0,0.0,0.0,0.0,0.0,0.0,0.0,0.0,0.0,0.0,0.0,0.0,0.0,0.0,0.0,0.0,0.0,0.0,0.0,0.0,0.0,0.0,0.0,0.0,0.0,0.0,0.0,0.0,-2.2715,0.0,0.0,0.0,0.0,0.0,0.0,0.0,0.0,0.0,0.0,0.0,0.0,0.0,0.0,0.0,0.0,0.0,0.0,0.0,0.0,0.0,0.0,0.0,0.0,0.0,0.0,0.0,0.0,0.0,0.0,0.0,0.0,0.0,0.0,0.0,0.0,0.0,0.0,0.0,0.0,-2.3253,-2.6518,-2.8887,-2.8969,-2.8887,-2.8887,-2.9074,-2.8486,-2.7754,-2.7027,-2.5975,0.0,0.0,0.0,0.0,0.0,0.0,0.0,0.0,0.0,0.0,0.0,0.0,0.0,0.0,0.0,0.0,0.0,0.0,0.0,0.0,0.0,0.0,0.0,0.0,0.0,0.0,0.0,0.0,0.0,0.0,0.0,0.0,0.0,0.0,0.0,0.0,0.0,0.0,0.0,0.0,0.0,0.0,0.0,0.0,0.0,0.0,0.0,0.0,0.0,0.0,0.0,0.0,0.0,-2.6298,-2.6429,-2.6429,-2.6429,-2.7145,-2.8317,-2.6322,-2.5939,-2.6543,0.0,0.0,0.0,0.0,0.0,0.0,0.0,0.0,0.0,0.0,0.0,0.0,0.0,0.0,0.0,0.0,0.0,0.0,0.0,0.0,0.0,0.0,0.0,0.0,0.0,-2.5098,-2.5803,0.0,0.0,0.0,0.0,0.0,0.0,0.0,0.0,0.0,0.0,0.0,0.0,-2.41,-2.7236,-2.9431,-2.9431,-2.9431,-2.9502,-2.9596,-2.8952,-2.8646,-2.8844,-2.7009,-2.5779,0.0,0.0,0.0,0.0,0.0,0.0,0.0,0.0,0.0,0.0,0.0,0.0,0.0,0.0,0.0,0.0,0.0,0.0,0.0,0.0,0.0,0.0,0.0,0.0,0.0,0.0,0.0,0.0,0.0,0.0,0.0,0.0,-2.3587,-2.3949,0.0,0.0,0.0,0.0,0.0,0.0,0.0,0.0,0.0,0.0,0.0,0.0,0.0,-2.5326,-2.5599,-2.6978,-2.7695,-2.7695,-2.9098,-2.9757,-2.9757,-2.9757,-2.9866,-3.005,-2.9739,0.0,-2.7498,-2.7167,0.0,0.0,0.0,0.0,0.0,0.0,0.0,0.0,0.0,0.0,0.0,0.0,0.0,0.0,0.0,0.0,0.0,0.0,0.0,0.0,0.0,0.0,-2.8792,-2.9245,-2.9569,-2.9644,0.0,-2.6225,-2.3474,-2.3597,-2.4066,0.0,0.0,0.0,0.0,0.0,0.0,0.0,-2.6376,-2.8612,-2.9983,-2.9983,-2.9983,-2.9983,-3.0019,-2.9483,-2.9227,-2.9368,-2.8499,-2.7452,-2.6188,-2.5325,0.0,0.0,0.0,0.0,0.0,0.0,0.0,0.0,0.0,0.0,0.0,0.0,0.0,0.0,0.0,0.0,0.0,0.0,0.0,0.0,0.0,0.0,0.0,0.0,0.0,0.0,0.0,0.0,0.0,-2.215,-2.2757,-2.3376,-2.2293,-2.1384,0.0,0.0,0.0,0.0,0.0,0.0,0.0,0.0,0.0,-2.7394,-2.7455,-2.8055,-2.9295,-3.0024,-3.0348,-3.0383,-3.1083,-3.1395,-3.1395,-3.1395,-3.1395,-3.1395,-3.1395,-3.0971,-3.0126,-2.8686,-2.7176,-2.5733,0.0,0.0,0.0,0.0,-2.4601,-2.462,-2.6218,-2.6624,0.0,-2.5572,0.0,0.0,0.0,0.0,0.0,0.0,0.0,0.0,0.0,0.0,-2.8804,-3.0104,-3.0405,-3.0405,-3.0405,-2.9118,-2.7595,0.0,-2.5195,-2.3835,-2.2079,0.0,0.0,0.0,0.0,0.0,-2.7564,-2.9416,-3.062,-3.062,-3.062,-3.062,-3.062,-3.0098,-2.9758,-2.983,-2.9315,-2.856,-2.7532,-2.6422,-2.4968,0.0,0.0,0.0,0.0,0.0,0.0,0.0,0.0,0.0,0.0,0.0,0.0,0.0,0.0,0.0,0.0,0.0,0.0,0.0,0.0,0.0,0.0,0.0,0.0,0.0,0.0,0.0,0.0,-2.2767,-2.3292,-2.3389,-2.3684,-2.3357,0.0,0.0,0.0,0.0,0.0,0.0,-2.6731,-2.6671,-2.7596,-2.9682,-2.9722,-3.0529,-3.2169,-3.2218,-3.2218,-3.2218,-3.2218,-3.2218,-3.2218,-3.2218,-3.2218,-3.2218,-3.2218,-3.2218,-3.2064,-3.0161,-2.9065,-2.8513,-2.752,-2.6825,-2.6467,-2.6974,-2.705,-2.7151,-2.862,-2.9038,-2.8837,-2.8344,0.0,-2.7434,-2.6584,0.0,0.0,0.0,0.0,-2.6533,-2.8424,-2.8751,-2.9018,-3.0505,-3.0866,-3.0866,-3.0866,-3.0762,-3.0276,0.0,-2.7172,-2.5462,-2.387,0.0,0.0,0.0,0.0,-2.8194,-2.8858,-3.0152,-3.0986,-3.0986,-3.0986,-3.0986,-3.0986,-3.0594,-3.0309,-3.0309,-2.9918,-2.9407,-2.8843,-2.7566,-2.6388,-2.5407,0.0,0.0,0.0,0.0,0.0,0.0,0.0,0.0,0.0,0.0,0.0,0.0,0.0,0.0,0.0,0.0,0.0,0.0,0.0,0.0,0.0,0.0,0.0,0.0,0.0,0.0,0.0,0.0,0.0,-2.5469,-2.7476,0.0,0.0,0.0,0.0,-2.599,-2.6391,-2.7331,-2.8969,-2.9324,-3.0268,-3.1974,-3.2037,-3.2078,-3.2218,-3.2218,-3.2218,-3.2218,-3.2218,-3.2218,-3.2218,-3.2218,-3.2218,-3.2218,-3.2218,-3.2218,-3.2169,-3.2064,-3.0907,-2.9245,-2.9171,-2.8027,-2.6615,-2.8462,-2.8791,-2.8567,-3.0508,-3.0761,-3.0102,-2.8802,-2.7397,-2.6421,-2.7629,-2.693,0.0,0.0,-2.7968,-2.8446,-3.0584,-3.1126,-3.1297,-3.1951,-3.2123,-3.2123,-3.2123,-3.0426,-2.9366,0.0,-3.1487,-3.1074,-2.8827,0.0,-2.8424,-2.7953,-2.8056,-2.8846,-3.0633,-3.0936,-3.0986,-3.0986,-3.0986,-3.0986,-3.0986,-3.096,-3.0934,-3.0934,-3.0411,-3.0035,-3.0009,-2.889,-2.7554,-2.5985,-2.5135,0.0,0.0,0.0,0.0,0.0,0.0,0.0,0.0,0.0,0.0,0.0,0.0,0.0,0.0,0.0,0.0,0.0,0.0,0.0,0.0,0.0,0.0,0.0,0.0,0.0,0.0,0.0,0.0,-2.6831,-2.8454,0.0,0.0,-2.7975,-2.8757,-2.8125,-2.9623,-3.0813,-3.14,-3.1348,-3.1694,-3.2489,-3.2314,-3.2395,-3.2789,-3.2789,-3.2942,-3.3271,-3.3271,-3.3271,-3.3271,-3.3271,-3.3271,-3.3271,-3.3271,-3.3271,-3.3271,-3.3271,-3.2452,-3.1173,-3.1173,-3.0734,-3.022,-3.0897,-3.104,-3.093,-3.1631,-3.1721,-3.1473,-3.0989,-3.0464,-3.0095,-3.0609,-3.0351,-2.9995,-3.056,-3.0732,-3.0893,-3.1681,-3.187,-3.1911,-3.2164,-3.2218,-3.2218,-3.2218,-3.1576,-3.1175,-3.1775,-3.076,-2.9605,-2.8901,-2.9681,-2.9948,-2.859,-2.9309,-3.0279,-3.1073,-3.1099,-3.0986,-3.0986,-3.0986,-3.0986,-3.0986,-3.0986,-3.0986,-3.0986,-3.079,-3.0516,-3.0113,-2.9696,-2.887,-2.758,-2.6779,-2.4891,0.0,0.0,0.0,0.0,0.0,0.0,0.0,0.0,0.0,0.0,0.0,0.0,0.0,0.0,0.0,0.0,0.0,0.0,0.0,0.0,0.0,0.0,0.0,0.0,0.0,0.0,-2.9471,-2.7531,-2.9748,-3.05,-2.8135,-3.0079,-3.124,-3.0613,-3.2343,-3.3294,-3.3007,-3.3106,-3.3157,-3.3106,-3.2876,-3.2969,-3.3363,-3.3363,-3.3552,-3.3908,-3.3908,-3.3908,-3.3908,-3.3908,-3.3908,-3.3908,-3.3908,-3.3908,-3.3908,-3.3908,-3.3447,-3.2779,-3.2779,-3.2643,-3.2504,-3.2504,-3.2381,-3.2218,-3.2218,-3.2218,-3.2218,-3.2218,-3.2218,-3.2218,-3.2218,-3.2218,-3.2218,-3.2218,-3.2218,-3.2218,-3.2218,-3.2368,-3.2504,-3.2504,-3.263,-3.2779,-3.2779,-3.2779,-3.2779,-3.2779,-3.1129,-2.977,-2.9897,-3.0831,-3.0872,-2.8991,-3.0063,-3.0913,-3.0407,-3.075,-3.0986,-3.0986,-3.0986,-3.0986,-3.0986,-3.0484,-3.0381,-3.0949,-3.0484,-3.0216,-3.0401,-2.9666,-2.8848,-2.7984,-2.6578,-2.4807,-2.2659,0.0,0.0,0.0,0.0,0.0,0.0,0.0,0.0,0.0,0.0,0.0,0.0,0.0,0.0,0.0,0.0,0.0,0.0,0.0,0.0,0.0,0.0,0.0,-2.7782,-2.9416,-3.0056,-2.7775,-3.159,-3.3354,-3.0699,-3.2498,-3.3695,-3.3361,-3.4278,-3.4476,-3.3702,-3.4589,-3.4738,-3.3946,-3.3946,-3.3921,-3.3962,-3.3962,-3.3989,-3.4016,-3.4016,-3.4016,-3.4016,-3.4016,-3.4016,-3.4016,-3.4016,-3.4016,-3.4016,-3.4002,-3.3989,-3.3989,-3.3935,-3.3593,-3.3129,-3.3129,-3.2762,-3.2236,-3.2236,-3.2236,-3.2236,-3.2236,-3.2236,-3.2236,-3.2236,-3.2236,-3.2236,-3.2236,-3.2236,-3.2236,-3.2236,-3.2694,-3.3129,-3.3129,-3.3525,-3.3908,-3.3908,-3.3908,-3.3908,-3.3908,-3.3023,-3.2236,-3.2236,-3.2077,-3.1305,-2.9493,-3.042,0.0,-2.8846,-3.0006,-3.0986,-3.0924,-3.0924,-3.0924,-3.0924,-2.9423,-2.9232,-3.09,-2.949,-2.93,-3.0924,-2.8895,-2.755,-2.7156,-2.4553,-2.3237,-2.3399,0.0,0.0,0.0,0.0,0.0,0.0,0.0,0.0,0.0,0.0,0.0,0.0,0.0,0.0,0.0,0.0,0.0,0.0,0.0,0.0,0.0,0.0,-3.0679,-2.9941,-3.1893,-3.3154,-3.2514,-3.36,-3.4171,-3.3606,-3.4415,-3.4866,-3.4677,-3.5202,-3.541,-3.5228,-3.5201,-3.5064,-3.4775,-3.454,-3.4662,-3.5221,-3.5195,-3.5629,-3.651,-3.651,-3.651,-3.651,-3.651,-3.651,-3.651,-3.651,-3.651,-3.6469,-3.6062,-3.5873,-3.575,-3.4409,-3.3813,-3.3664,-3.3664,-3.3569,-3.342,-3.342,-3.342,-3.342,-3.342,-3.342,-3.342,-3.342,-3.342,-3.342,-3.342,-3.342,-3.342,-3.342,-3.3542,-3.3664,-3.3664,-3.3786,-3.3908,-3.3908,-3.3908,-3.3908,-3.3908,-3.365,-3.342,-3.342,-3.2955,-3.2361,-3.1872,-3.1653,0.0,-3.0814,-3.1001,-3.0763,-2.9542,-2.9272,-2.9205,-2.9205,-2.8777,-2.9232,-3.09,-3.0572,-3.0509,-3.0986,-3.038,-2.9542,-2.8524,-2.6288,-2.4606,0.0,0.0,0.0,0.0,0.0,0.0,0.0,0.0,0.0,0.0,0.0,0.0,0.0,0.0,0.0,0.0,0.0,0.0,0.0,0.0,0.0,0.0,-3.1199,-3.2749,-3.2749,-3.3681,-3.4501,-3.4777,-3.482,-3.4984,-3.5395,-3.5644,-3.5732,-3.5674,-3.6142,-3.6337,-3.619,-3.6452,-3.6457,-3.6021,-3.6078,-3.6206,-3.6469,-3.6442,-3.6794,-3.7485,-3.7485,-3.7485,-3.7485,-3.7485,-3.7485,0.0,-3.7485,-3.7485,-3.7458,-3.7134,-3.6999,0.0,0.0,0.0,0.0,0.0,-3.3908,-3.3908,-3.3908,-3.3908,-3.3908,-3.3908,-3.3908,-3.3908,-3.3908,-3.3908,-3.3908,-3.3908,-3.3908,-3.3908,-3.3908,-3.4097,-3.4287,-3.4287,-3.4463,-3.4639,-3.4639,-3.4639,-3.4639,-3.4639,-3.4639,0.0,-3.4639,-3.3846,-3.2938,-3.2202,-3.2238,-3.2102,-3.1344,-3.1498,-3.1303,-3.0342,-2.9811,-2.9557,-2.9557,-2.8903,0.0,0.0,0.0,-2.9928,-2.9928,-2.9793,0.0,0.0,0.0,-2.5693,-2.5161,0.0,0.0,0.0,-2.0748,-2.0265,0.0,0.0,0.0,0.0,0.0,0.0,0.0,0.0,0.0,0.0,0.0,0.0,0.0,0.0,0.0,0.0,-3.3611,-3.5508,-3.5508,-3.498,-3.4835,-3.5436,-3.5508,-3.5755,-3.6359,-3.6417,-3.6475,-3.662,-3.7186,-3.7387,-3.7109,0.0,0.0,0.0,0.0,-3.8075,-3.7594,-3.7594,-3.7634,-3.7689,-3.7689,-3.7689,-3.7689,-3.7689,-3.7689,-3.7689,-3.7689,-3.7689,-3.7689,-3.7621,-3.7553,-3.7377,-3.6306,-3.5561,-3.5032,-3.4504,-3.4314,-3.4314,-3.4314,0.0,0.0,-3.4233,-3.4206,-3.4192,-3.4124,-3.4111,-3.4111,-3.4111,-3.4111,-3.4111,-3.4111,-3.4504,-3.4897,-3.4897,-3.529,-3.571,-3.571,-3.571,-3.571,-3.571,-3.571,-3.571,-3.571,-3.4669,-3.3304,-3.1768,-3.2615,-3.2882,-3.1331,-3.1843,-3.225,-3.2045,0.0,0.0,-3.0827,-2.9392,-2.9232,-3.09,-2.9584,-2.8777,-2.8777,-2.8431,-2.8179,-2.8009,-2.6971,-2.6814,-2.749,-2.6661,-2.5889,-2.5171,-2.1473,-2.0362,0.0,0.0,0.0,0.0,0.0,0.0,0.0,0.0,0.0,0.0,0.0,0.0,0.0,0.0,0.0,-3.1625,-3.4184,-3.6127,-3.6127,-3.6025,-3.5981,-3.6112,-3.6127,-3.6388,-3.7056,-3.7114,-3.7535,-3.8565,-3.8768,-3.9006,-3.9406,-3.9667,0.0,-3.8528,-3.8626,-3.8519,-3.8247,-3.8247,-3.8491,-3.8952,0.0,0.0,-3.8952,-3.8952,-3.8952,-3.8952,-3.8952,-3.8952,-3.8925,-3.845,-3.7919,-3.7472,-3.7228,-3.7065,-3.6957,-3.6848,-3.6794,-3.6794,-3.6794,-3.6794,-3.6713,-3.6252,-3.609,-3.5995,-3.552,-3.5331,0.0,-3.5331,-3.5331,-3.5331,-3.5331,-3.5425,-3.5547,-3.5547,-3.5642,-3.571,-3.571,-3.571,-3.571,-3.571,-3.571,-3.571,-3.571,-3.5087,-3.4482,-3.414,-3.3935,-3.3626,-3.3133,-3.3091,-3.2488,-3.1004,-3.0094,-2.9644,-2.9644,-2.8945,-2.9232,-3.09,-3.0712,-3.0509,-3.0509,-3.0444,-3.038,-3.0342,-2.9641,-2.911,-2.866,-2.7585,-2.6383,-2.5036,-2.3767,-2.3272,0.0,0.0,0.0,0.0,0.0,0.0,0.0,0.0,0.0,0.0,0.0,-2.8665,0.0,0.0,-3.2877,-3.3895,-3.5604,-3.6809,-3.6809,-3.707,-3.7143,-3.6838,-3.6809,-3.7186,-3.8159,-3.826,-3.8638,-3.9581,-3.9654,-3.9784,-4.0075,-4.0423,-4.0182,-3.9269,-3.9592,-3.9563,-3.9193,-3.9288,-3.9574,-4.0097,-4.0155,-4.0214,-4.0201,-3.9888,-3.9739,-3.9726,-3.9427,-3.9305,-3.9278,-3.8979,-3.8681,-3.8423,-3.8423,-3.8014,-3.7485,-3.7485,-3.7485,-3.7485,-3.7485,-3.7485,-3.7431,-3.7175,-3.7066,-3.7012,-3.6672,-3.6577,-3.6577,-3.6577,-3.6577,-3.6577,-3.6577,-3.6577,-3.6577,-3.6577,-3.6577,-3.6577,-3.6577,-3.6577,-3.6577,-3.6577,-3.6375,-3.6157,-3.6157,-3.5669,-3.5236,-3.5236,-3.4978,-3.4749,-3.467,-3.4217,-3.3489,-3.2441,-3.1631,-3.0988,-3.0605,-3.0042,-3.0098,-3.0962,-3.0986,-3.0986,-3.0986,-3.0986,-3.0986,-3.0986,-3.0699,-3.0214,-2.9547,-2.8982,-2.7999,-2.6671,-2.5996,-2.5111,0.0,0.0,0.0,0.0,0.0,0.0,0.0,0.0,-2.6987,-2.9023,-2.9814,-3.0726,-3.2582,-3.341,-3.4406,-3.6208,-3.7056,-3.7476,-3.7476,-3.7897,-3.8072,-3.7723,-3.768,-3.8072,-3.9102,-3.9305,-3.9625,-4.0249,-4.0292,-4.035,-4.0481,-4.1004,-4.0956,-4.021,-4.0731,-4.084,-4.053,-4.0511,-4.0713,-4.1087,-4.1096,-4.1123,-4.1096,-4.0594,-4.0363,-4.035,-3.9861,-3.9658,-3.9644,-3.9522,-3.9468,-3.9454,-3.9346,-3.8722,-3.7838,-3.7838,-3.7838,-3.7838,-3.7838,-3.7838,-3.7811,-3.7702,-3.7662,-3.7634,-3.7526,-3.7485,-3.7485,-3.7485,-3.7485,-3.7485,-3.7485,-3.7485,-3.7485,-3.7485,-3.7485,-3.7485,-3.7485,-3.7485,-3.7485,-3.7485,-3.7121,-3.6782,-3.6782,-3.628,-3.5859,-3.5737,-3.571,-3.5669,-3.5642,-3.5063,-3.458,-3.4339,-3.3648,-3.2856,-3.2058,-3.1483,-3.1156,-3.1156,-3.1052,-3.0986,-3.0986,-3.0986,-3.0986,-3.0986,-3.0986,-3.0764,-3.0257,-3.0153,-2.9532,-2.849,-2.7838,-2.6388,-2.3152,-2.3692,-2.5771,-2.7346,-2.7801,-2.8814,0.0,0.0,-3.2064,-3.4154,-3.5056,-3.5546,-3.5775,-3.6375,-3.6903,-3.7135,-3.7709,-3.8101,-3.8101,-3.8159,-3.8405,-3.8928,-3.8986,-3.9044,-3.9189,-3.9683,-4.0263,-4.0931,-4.0989,-4.125,-4.1845,-4.1947,-4.2,-4.201,-4.2096,-4.2193,-4.2317,-4.1848,-4.1649,-4.1694,-4.13,-4.1123,-4.1123,-4.1042,-4.1015,-4.1015,-4.0947,-4.092,-4.0879,-4.0309,-4.0092,-4.0038,-3.9509,-3.9224,-3.9102,-3.9102,-3.9102,-3.9102,-3.9102,-3.9102,-3.902,-3.8491,-3.8315,-3.822,-3.7648,-3.7485,-3.7485,-3.7485,-3.7485,-3.7485,-3.7485,-3.7485,-3.7485,-3.7485,-3.7485,-3.7485,-3.7485,-3.7485,-3.7485,-3.7485,-3.7431,-3.739,-3.739,-3.6917,-3.632,-3.5791,-3.571,-3.5642,-3.548,-3.5345,-3.5142,-3.4787,-3.419,-3.3475,-3.2686,-3.2032,-3.1706,-3.1706,-3.1261,-3.0986,-3.0986,-3.0986,-3.0986,-3.0986,-3.0986,-3.096,-3.0895,-3.0348,-2.9716,-2.8922,-2.8492,-2.7151,-2.7651,-2.7483,0.0,0.0,-3.0295,-3.1049,-3.2673,-3.2964,-3.3471,-3.5493,-3.6431,-3.6881,-3.6881,-3.7404,-3.7825,0.0,-3.8043,-3.8202,-3.8202,-3.8536,-3.8884,-3.9175,-3.9857,-4.0307,-4.0307,-4.0525,-4.096,-4.1628,-4.1671,-4.1961,-4.2586,-4.2615,-4.2679,-4.2882,-4.2896,-4.2937,-4.3032,-4.2879,-4.2789,-4.2743,-4.2595,-4.2412,-4.2141,-4.1788,-4.1449,-4.1123,-4.1123,-4.1123,-4.1096,-4.0838,-4.073,-4.0703,-4.0458,-4.0363,-4.0268,-3.9563,-3.9305,-3.9305,-3.9305,-3.9305,-3.9264,-3.902,-3.8925,-3.8884,-3.864,-3.8559,-3.8559,-3.8559,-3.8559,-3.8559,-3.8559,-3.8559,-3.8559,-3.8559,-3.8559,-3.8559,-3.8559,-3.8559,-3.8559,-3.8559,-3.8274,-3.8,-3.8,-3.7499,-3.6931,-3.632,-3.5927,-3.5669,-3.5602,-3.5562,-3.548,-3.5195,-3.4404,-3.3752,-3.3422,-3.2751,-3.215,-3.1823,-3.1575,-3.1339,-3.0999,-3.0986,-3.0986,-3.0986,-3.0986,-3.0986,-3.0986,-3.0751,-3.0303,-2.9645,-2.947,-2.8497,-2.9143,0.0,0.0,-3.0993,-3.2283,-3.3186,-3.3253,-3.386,-3.4811,-3.628,-3.7099,-3.7549,-3.7549,-3.7912,0.0,-3.8202,-3.8202,-3.826,-3.8449,-3.8884,-3.9334,-3.9683,-4.0539,-4.1163,-4.1352,-4.1381,-4.157,-4.2063,-4.2252,-4.2528,-4.2977,-4.3166,-4.3429,-4.3716,-4.373,-4.3817,-4.4003,-4.3984,-4.3846,-4.3676,-4.3629,-4.3328,-4.2873,-4.2439,-4.2019,-4.1612,-4.1612,-4.1612,-4.1598,-4.1435,-4.1367,-4.134,-4.1177,-4.1123,-4.1015,-4.0133,-3.9699,-3.9522,-3.9359,-3.9305,-3.9305,-3.9305,-3.9305,-3.9305,-3.9305,-3.9305,-3.9305,-3.9305,-3.9305,-3.9305,-3.9305,-3.9305,-3.9305,-3.9305,-3.9305,-3.9305,-3.9305,-3.9305,-3.9305,-3.9305,-3.8952,-3.8667,-3.8667,-3.8122,-3.758,-3.7175,-3.6442,-3.59,-3.5737,-3.5642,-3.5562,-3.544,-3.4672,-3.4136,-3.4136,-3.3394,-3.2764,-3.2306,-3.198,-3.1615,-3.1248,-3.1065,-3.0986,-3.0986,-3.0986,-3.0986,-3.0986,-3.0986,-3.0777,-3.0322,-3.0179,-2.9598,0.0,0.0,-2.894,-3.1607,-3.3817,-3.5459,-3.6048,-3.67,-3.7193,-3.7273,-3.7752,-3.8173,-3.8173,-3.8188,-3.8202,-3.8202,-3.8202,-3.8434,-3.9088,-3.9189,-3.9654,-4.0902,-4.1076,-4.1352,0.0,-4.2063,-4.2078,-4.2092,-4.2629,-4.2977,-4.2992,-4.3602,-4.424,-4.4835,-4.4864,-4.5169,-4.5822,-4.5324,-4.4833,-4.4383,-4.3851,-4.3328,-4.2887,-4.2873,-4.2846,-4.2833,-4.2833,-4.2833,-4.2792,-4.2209,-4.1978,-4.191,-4.134,-4.1123,-4.1123,-4.1082,-4.0689,-4.0078,-3.9495,-3.9305,-3.9305,-3.9305,-3.9305,-3.9305,-3.9305,-3.9305,-3.9305,-3.9305,-3.9305,-3.9305,-3.9305,-3.9305,-3.9305,-3.9305,-3.9305,-3.9305,-3.9305,-3.9305,-3.9305,-3.9305,-3.9292,-3.9278,-3.9278,-3.8776,-3.8383,-3.8369,-3.7338,-3.6361,-3.5791,-3.5521,-3.5399,-3.5399,-3.5018,-3.4771,-3.4771,-3.4052,-3.3548,-3.3535,-3.2437,-3.1797,-3.1784,-3.1287,-3.0986,-3.0986,-3.0986,-3.0986,-3.0986,-3.0986,-3.0973,-3.0947,-3.0348,-3.0087,0.0,0.0,-3.1957,-3.3868,-3.5501,-3.6707,-3.6925,-3.7462,-3.7897,-3.7897,-3.7082,-3.6405,-3.6405,-3.6405,-3.6405,-3.6405,-3.7395,-3.8434,-3.9117,-3.9538,-4.0118,-4.1004,-4.1482,0.0,0.0,0.0,0.0,-4.2658,-4.2876,-4.3355,-4.4211,-4.4458,-4.4879,-4.5532,-4.5547,-4.5648,-4.588,-4.5745,-4.5367,-4.4847,-4.3993,-4.3328,-4.2887,-4.2887,-4.2887,-4.2887,-4.2887,-4.2887,-4.2873,-4.267,-4.2588,-4.2575,-4.2371,-4.229,-4.2249,-4.1842,-4.1571,-4.13,-4.0716,-4.0499,-4.0499,-4.0499,-4.0228,-3.9888,-3.9888,-3.9617,-3.9305,-3.9305,-3.9305,-3.9305,-3.9305,-3.9305,-3.9305,-3.9305,-3.9305,-3.9305,-3.9305,-3.9305,-3.9305,-3.9305,-3.9305,-3.9305,-3.9305,-3.9129,-3.8871,-3.8477,-3.7379,-3.6388,-3.5791,-3.5642,-3.5602,-3.5602,-3.5236,-3.5003,-3.5003,-3.4489,-3.3979,-3.3613,-3.3221,-3.2659,-3.1836,-3.1615,-3.1365,-3.0999,-3.0986,-3.0986,-3.0986,-3.0986,-3.0986,-3.0986,-3.079,-3.0699,0.0,-3.1231,-3.3353,-3.553,-3.6693,-3.736,-3.7578,-3.7926,-3.8202,-3.8202,-3.6774,-3.5457,-3.5352,-3.5457,-3.5182,-3.4184,-3.5645,-3.7171,-3.8051,-3.8544,-3.9453,-4.1227,-4.1831,0.0,0.0,0.0,0.0,-4.2963,-4.3413,-4.4023,-4.485,-4.5111,-4.5445,-4.588,-4.588,-4.588,-4.588,-4.588,-4.564,-4.5078,-4.4073,-4.3423,-4.3149,-4.2984,-4.2887,-4.2887,-4.2887,-4.2887,-4.2887,-4.2887,-4.2887,-4.2887,-4.2887,-4.2887,-4.2833,-4.2453,-4.2317,-4.2195,-4.1394,-4.1123,-4.1123,-4.1123,-4.0852,-4.0472,-4.0255,-3.9916,-3.9576,-3.9359,-3.9305,-3.9305,-3.9305,-3.9305,-3.9305,-3.9305,-3.9305,-3.9305,-3.9305,-3.9305,-3.9305,-3.9305,-3.9305,-3.9305,-3.9305,-3.9305,-3.9102,-3.8505,-3.7568,-3.6714,-3.6103,-3.5845,-3.5669,-3.5602,-3.5318,-3.5086,-3.5003,-3.4618,-3.4241,-3.3901,-3.3705,-3.3247,-3.2502,-3.2019,-3.1628,-3.13,-3.1091,-3.0986,-3.0986,-3.0986,-3.0986,-3.0986,-3.0986,-3.0986,-3.1451,-3.2404,-3.3273,-3.6498,-3.7331,-3.7506,-3.8072,-3.8202,-3.815,-3.8084,-3.6641,-3.522,0.0,0.0,-3.4498,-3.1882,-3.3252,-3.5136,-3.6402,-3.6566,-3.795,0.0,0.0,0.0,0.0,0.0,0.0,-4.305,0.0,-4.4893,-4.4937,-4.5532,-4.588,-4.588,-4.588,-4.588,-4.588,-4.588,-4.564,-4.5078,-4.412,-4.3648,-4.3648,-4.3163,-4.2984,-4.2935,-4.2935,-4.2935,-4.2887,-4.2887,-4.2887,-4.2887,-4.2887,-4.2887,-4.2887,-4.2887,-4.2887,-4.2724,-4.1598,-4.1205,-4.1205,-4.1205,-4.1191,-4.1042,-4.0418,-4.0214,-4.0051,-3.9468,-3.9305,-3.9305,-3.9305,-3.9305,-3.9305,-3.9305,-3.9305,-3.9305,-3.9305,-3.9305,-3.9305,-3.9305,-3.9305,-3.9305,-3.9305,-3.9305,-3.9115,-3.8545,-3.7892,-3.7268,-3.6687,-3.6076,-3.5642,-3.544,-3.5236,-3.5003,-3.4797,-3.4535,-3.4397,-3.4397,-3.3914,-3.3626,-3.3587,-3.2489,-3.1863,-3.1797,-3.1313,-3.1013,-3.0986,-3.0986,-3.0986,-3.0986,-3.0986,-3.0986,-3.2072,-3.3758,-3.5624,-3.6939,-3.7651,-3.8014,-3.8159,-3.8202,-3.7818,-3.6471,-3.4706,-3.2856,0.0,0.0,0.0,-3.2081,-3.4908,0.0,-3.8967,-3.9139,0.0,0.0,0.0,-4.2092,-4.2092,-4.3094,0.0,0.0,-4.4443,-4.5111,-4.5605,-4.5793,-4.588,-4.588,-4.588,-4.588,-4.588,-4.588,-4.564,-4.5124,-4.4833,-4.4509,-4.4209,-4.4068,-4.3784,-4.3423,-4.3423,-4.3197,-4.2887,-4.2887,-4.2887,-4.2887,-4.2887,-4.2887,-4.2887,-4.2887,-4.2887,-4.2846,-4.2548,-4.2439,-4.2439,-4.2439,-4.2141,-4.1666,-4.1055,-4.0553,-4.0051,-3.9468,-3.9305,-3.9305,-3.9305,-3.9305,-3.9305,-3.9305,-3.9305,-3.9305,-3.9305,-3.9305,-3.9305,-3.9305,-3.9305,-3.9305,-3.9305,-3.9305,-3.9251,-3.9102,-3.8149,-3.7268,-3.6687,-3.6076,-3.5642,-3.544,-3.5236,-3.5003,-3.4797,-3.4535,-3.4397,-3.4397,-3.4267,-3.4018,-3.3613,-3.33,-3.2738,-3.1823,-3.1654,-3.1418,-3.0986,-3.0986,-3.0986,-3.0986,-3.0986,-3.0986,-3.373,-3.5144,-3.6533,-3.7462,-3.7955,-3.793,-3.6773,-3.6798,-3.64,-3.4274,-3.2606,0.0,0.0,0.0,0.0,0.0,0.0,0.0,-3.7882,-3.8303,-3.9264,0.0,-4.1918,0.0,-4.2092,-4.3239,-4.3993,0.0,-4.4821,-4.5488,-4.5866,-4.588,-4.588,-4.588,-4.588,-4.588,-4.588,-4.588,-4.5745,-4.5458,-4.5216,-4.494,-4.4676,-4.449,-4.4256,-4.396,0.0,-4.3471,-4.3197,-4.297,-4.2887,-4.2887,-4.2887,-4.2887,-4.2887,-4.2887,-4.2887,-4.2887,-4.2887,-4.2887,-4.2887,-4.2887,-4.2656,-4.2276,-4.1693,-4.1082,-4.0472,-3.9861,-3.9495,-3.9305,-3.9305,-3.9305,-3.9373,-3.9631,-3.9495,-3.9373,-3.9631,-3.9495,-3.9305,-3.9305,-3.9305,-3.9305,-3.9305,-3.9305,-3.9305,-3.9305,-3.8288,-3.7363,-3.7053,-3.617,-3.548,-3.5277,-3.5086,-3.4867,-3.466,-3.4494,-3.4397,-3.4397,-3.4397,-3.4267,-3.3953,-3.3718,-3.3273,-3.2581,-3.2058,-3.1641,-3.1365,-3.1104,-3.0986,-3.0986,-3.0986,-3.0986,-3.5645,-3.6373,-3.6722,-3.7912,-3.8202,-3.7555,-3.5049,-3.4989,-3.4701,-3.2004,0.0,-2.9674,-2.8779,0.0,-3.0957,-2.874,0.0,-3.4352,-3.5639,-3.6428,-3.7947,-4.077,-4.1686,-4.2092,-4.2092,-4.3239,-4.3993,-4.3993,-4.5169,-4.588,-4.588,-4.588,-4.588,-4.588,-4.588,-4.588,-4.588,-4.588,-4.588,-4.588,-4.5413,-4.5216,-4.517,-4.4769,-4.4551,-4.4457,0.0,0.0,-4.3648,-4.3259,-4.308,-4.297,-4.297,-4.2935,-4.2887,-4.2887,-4.2887,-4.2887,-4.2887,-4.2887,-4.2887,-4.2887,-4.2887,-4.2778,-4.2181,-4.1598,-4.0987,-4.0363,-3.9766,-3.9319,-3.94,-3.9414,-3.9563,-4.0173,-3.9861,-3.9563,-4.0078,-3.9726,-3.9305,-3.9305,-3.9305,-3.9305,-3.9305,-3.9305,-3.9305,-3.9305,-3.8288,-3.7485,-3.7485,-3.6304,-3.5358,-3.5127,-3.4921,-3.4714,-3.4439,-3.4397,-3.4397,-3.4397,-3.4397,-3.4397,-3.4397,-3.3953,-3.3666,-3.3587,-3.2554,-3.1954,-3.1797,-3.1339,-3.1065,-3.0986,-3.0986,-3.0986,-3.6033,-3.6707,-3.7302,-3.8028,-3.8202,-3.7618,-3.5478,-3.5074,0.0,0.0,0.0,-2.9015,-2.6832,-2.8152,0.0,-3.0212,0.0,0.0,0.0,0.0,-3.9859,0.0,0.0,0.0,0.0,0.0,0.0,0.0,0.0,-4.588,-4.588,-4.588,-4.588,-4.588,-4.588,-4.588,-4.588,-4.588,-4.588,-4.588,-4.579,-4.5745,-4.5745,-4.5654,-4.5413,-4.4986,-4.4879,0.0,-4.4256,-4.4162,-4.3879,-4.3471,-4.3471,-4.3245,-4.2887,-4.2887,-4.2887,-4.2887,-4.2887,-4.2887,-4.2887,-4.2887,-4.2887,-4.2778,-4.2181,-4.1598,-4.0987,-4.0363,-3.9766,-3.9414,-3.9902,-4.0024,-4.0187,-4.0811,-4.0485,-4.0051,-4.016,-3.9726,-3.9305,-3.9305,-3.9305,-3.9305,-3.9305,-3.9305,-3.9305,-3.9305,-3.8288,-3.7485,-3.7485,-3.6428,-3.5521,-3.5113,-3.5086,-3.4867,-3.4439,-3.4397,-3.4397,-3.4397,-3.4397,-3.4397,-3.4397,-3.4306,-3.4045,-3.36,-3.3391,-3.2816,-3.1797,-3.1706,-3.1444,-3.0986,-3.0986,-3.0986,-3.6141,-3.6794,-3.7447,-3.8057,-3.8202,-3.7309,-3.3908,0.0,0.0,0.0,0.0,-2.7146,-2.5617,0.0,0.0,0.0,0.0,0.0,0.0,0.0,0.0,0.0,0.0,0.0,0.0,0.0,0.0,0.0,0.0,0.0,-4.588,-4.588,-4.588,-4.588,-4.588,-4.588,-4.588,-4.588,-4.588,-4.588,-4.588,-4.588,-4.588,-4.588,-4.5745,-4.5504,-4.5216,0.0,-4.4769,-4.449,-4.4054,-4.36,-4.36,-4.3293,-4.2887,-4.2887,-4.2887,-4.2887,-4.2887,-4.2887,-4.2887,-4.2887,-4.2887,-4.2833,-4.2548,-4.1842,-4.1123,-4.1123,-4.0472,-3.9902,-4.0513,-4.0675,-4.0825,-4.1435,-4.111,-4.058,-4.0255,-3.9726,-3.9305,-3.9305,-3.9305,-3.9305,-3.9305,-3.9305,-3.9305,-3.9305,-3.8288,-3.7485,-3.7485,-3.6428,-3.5602,-3.5277,-3.5154,-3.499,-3.4784,-3.466,-3.4618,-3.4618,-3.4481,-3.4397,-3.4397,-3.4397,-3.428,-3.4018,-3.3731,-3.3313,-3.2751,-3.2098,-3.1654,-3.1418,-3.1117,-3.0986,-3.6062,-3.6881,-3.7607,-3.8086,-3.8202,-3.6987,-3.2314,-3.1669,0.0,0.0,-2.5147,-2.5407,-2.4968,0.0,0.0,0.0,0.0,0.0,0.0,0.0,0.0,0.0,0.0,0.0,0.0,0.0,0.0,0.0,0.0,0.0,-4.588,-4.588,-4.588,-4.588,-4.588,-4.588,-4.588,-4.588,-4.588,-4.588,-4.588,-4.588,-4.588,-4.588,-4.588,-4.588,-4.5458,0.0,0.0,-4.4769,-4.4242,-4.3757,-4.3648,-4.3293,-4.2887,-4.2887,-4.2887,-4.2887,-4.2887,-4.2887,-4.2935,-4.3032,-4.2984,-4.2887,-4.2887,-4.2154,-4.1408,-4.1869,-4.1218,-4.0526,-4.115,-4.1313,-4.1422,-4.1896,-4.1557,-4.0947,-4.0323,-3.9726,-3.9305,-3.9305,-3.9305,-3.9305,-3.9305,-3.9305,-3.9305,-3.9305,-3.8288,-3.7485,-3.7485,-3.6428,-3.5642,-3.548,-3.5277,-3.5154,-3.5086,-3.4921,-3.4797,-3.4797,-3.4535,-3.4397,-3.4397,-3.4397,-3.4397,-3.4397,-3.3979,-3.3705,-3.3587,-3.2672,-3.2045,-3.1797,-3.1378,-3.1104,-3.579,-3.7201,-3.813,-3.8188,-3.8202,-3.6935,-3.2133,0.0,0.0,0.0,-2.4566,-2.4719,-2.5087,-2.4755,0.0,0.0,0.0,0.0,0.0,0.0,0.0,0.0,0.0,0.0,0.0,0.0,0.0,0.0,0.0,0.0,-4.588,-4.588,-4.588,-4.588,-4.588,-4.588,-4.588,-4.588,-4.588,-4.588,-4.588,-4.588,-4.588,-4.588,-4.588,-4.588,-4.5835,0.0,0.0,-4.5261,-4.4769,-4.427,-4.3804,-4.3293,-4.2887,-4.2887,-4.2887,-4.2887,-4.2887,-4.2887,-4.2984,-4.3375,-4.3245,-4.2887,-4.2887,-4.2439,-4.1937,-4.1978,-4.1544,-4.1177,-4.1774,-4.1924,-4.1937,-4.1991,-4.1557,-4.0947,-4.0323,-3.9726,-3.9305,-3.9305,-3.9305,-3.9305,-3.9305,-3.9305,-3.9305,-3.9305,-3.8288,-3.7485,-3.7485,-3.6428,-3.5669,-3.5669,-3.548,-3.5318,-3.5127,-3.4921,-3.4797,-3.4797,-3.4535,-3.4397,-3.4397,-3.4397,-3.4397,-3.4397,-3.4345,-3.4084,-3.3587,-3.3483,-3.2881,-3.1797,-3.1745,-3.1483,-3.5624,-3.6786,-3.7365,-3.7738,-3.6575,-3.4536,-3.1357,0.0,0.0,-2.4331,-2.3666,-2.3806,-2.425,-2.3799,-2.3794,0.0,0.0,0.0,0.0,0.0,0.0,0.0,0.0,0.0,0.0,0.0,0.0,0.0,0.0,0.0,0.0,-4.588,-4.588,-4.588,-4.588,-4.588,-4.588,-4.588,-4.588,-4.588,-4.588,-4.588,-4.588,-4.588,-4.588,-4.588,-4.588,0.0,0.0,-4.517,-4.4648,-4.3899,-4.3695,-4.3293,-4.2887,-4.2887,-4.3067,-4.3293,-4.2984,-4.3067,-4.3328,-4.3553,-4.3293,-4.2935,-4.3245,-4.2692,-4.2086,-4.2439,-4.2114,-4.1788,-4.2385,-4.2534,-4.2534,-4.2534,-4.1802,-4.1055,-4.0798,-3.9983,-3.9305,-3.9305,-3.9305,-3.9305,-3.9305,-3.9305,-3.9305,-3.9305,-3.8288,-3.7485,-3.7485,-3.6428,-3.571,-3.571,-3.5642,-3.5521,-3.5318,-3.5086,-3.4921,-3.4797,-3.4535,-3.4397,-3.4397,-3.4397,-3.4397,-3.4397,-3.4397,-3.4293,-3.4071,-3.3757,-3.3169,-3.2346,-3.1967,-3.1497,-3.4695,-3.6056,-3.6839,-3.7468,-3.5534,-3.2889,0.0,0.0,0.0,-2.3227,-2.271,-2.2896,-2.3411,-2.3161,-2.3135,0.0,0.0,0.0,0.0,0.0,0.0,0.0,0.0,0.0,0.0,0.0,0.0,0.0,0.0,0.0,0.0,-4.588,-4.588,-4.588,-4.588,-4.588,-4.588,-4.588,-4.588,-4.588,-4.588,-4.588,-4.588,-4.588,-4.588,-4.588,0.0,0.0,0.0,-4.5046,-4.4476,-4.3804,-4.3648,-4.3375,-4.3115,-4.3273,-4.3546,-4.3804,-4.3451,-4.3546,-4.3851,-4.3851,-4.3533,-4.3149,-4.3505,-4.3006,-4.2344,-4.2765,-4.2588,-4.2358,-4.2778,-4.2887,-4.2846,-4.267,-4.1856,-4.1069,-4.0879,-4.0038,-3.9305,-3.9305,-3.9305,-3.9305,-3.9305,-3.9305,-3.9237,-3.9061,-3.8136,-3.7431,-3.7241,-3.6361,-3.571,-3.571,-3.571,-3.5642,-3.5521,-3.5318,-3.5086,-3.488,-3.466,-3.4481,-3.4397,-3.4397,-3.4397,-3.4397,-3.4397,-3.4397,-3.4397,-3.4018,-3.3535,-3.2947,-3.2372,-3.1692,-3.2625,-3.4987,-3.6839,-3.7468,-3.5534,-3.2769,0.0,0.0,0.0,-2.2345,-2.1818,-2.2029,-2.2691,-2.2983,-2.3196,-2.3451,-2.3687,0.0,0.0,0.0,0.0,0.0,0.0,0.0,0.0,0.0,0.0,0.0,0.0,0.0,0.0,-4.588,-4.588,-4.588,-4.588,-4.588,-4.588,-4.588,-4.588,-4.588,-4.588,-4.588,-4.588,-4.588,-4.588,0.0,0.0,0.0,0.0,-4.483,-4.4411,-4.4364,-4.3804,-4.36,-4.3648,-4.4209,-4.4411,-4.4411,-4.4411,-4.4411,-4.4411,-4.4411,-4.4007,-4.36,-4.36,-4.3293,-4.2873,-4.2887,-4.2887,-4.2873,-4.2887,-4.2887,-4.2738,-4.2154,-4.1557,-4.0947,-4.0323,-3.9726,-3.9305,-3.9305,-3.9305,-3.9305,-3.9305,-3.9305,-3.9102,-3.8518,-3.7878,-3.7268,-3.6687,-3.609,-3.571,-3.571,-3.571,-3.571,-3.571,-3.5521,-3.5318,-3.5127,-3.4921,-3.4673,-3.4397,-3.4397,-3.4397,-3.4397,-3.4397,-3.4397,-3.4397,-3.4384,-3.411,-3.3574,-3.296,-3.2071,-2.943,-3.0435,-3.0873,-3.1586,-2.9783,-2.7492,-2.6491,0.0,0.0,-2.1591,-2.1502,-2.1799,-2.2447,-2.2663,-2.2869,-2.3409,-2.3378,0.0,0.0,0.0,0.0,0.0,0.0,0.0,0.0,0.0,0.0,0.0,0.0,0.0,0.0,-4.588,-4.588,-4.588,-4.588,-4.588,-4.588,-4.588,-4.588,-4.588,-4.588,-4.588,-4.588,-4.588,0.0,0.0,0.0,0.0,0.0,-4.4986,-4.4676,-4.4364,-4.4209,-4.4162,-4.4162,-4.4364,-4.4583,-4.4815,-4.4504,-4.4411,-4.4411,-4.4411,-4.3832,-4.3197,-4.3505,-4.3293,-4.2887,-4.2887,-4.2887,-4.2887,-4.2887,-4.2887,-4.2738,-4.2141,-4.1557,-4.0947,-4.0323,-3.9726,-3.9305,-3.9305,-3.9305,-3.9305,-3.9305,-3.9305,-3.9102,-3.8505,-3.7878,-3.7268,-3.6687,-3.6076,-3.571,-3.571,-3.571,-3.5642,-3.5521,-3.5318,-3.5127,-3.4921,-3.466,-3.4481,-3.4397,-3.4397,-3.4397,-3.4397,-3.4397,-3.4397,-3.4397,-3.4397,-3.3901,-3.296,-3.2385,-3.1705,0.0,-2.7678,-2.7971,-2.874,-2.6931,0.0,0.0,0.0,0.0,-2.1138,-2.1244,-2.1517,-2.1919,-2.2271,-2.2654,-2.3061,-2.3097,0.0,0.0,0.0,0.0,0.0,0.0,0.0,0.0,0.0,0.0,0.0,0.0,0.0,0.0,-4.575,-4.588,-4.588,-4.588,-4.588,-4.588,-4.588,-4.588,-4.588,-4.588,-4.588,-4.588,-4.588,0.0,0.0,0.0,0.0,0.0,-4.517,-4.494,-4.4676,-4.4676,-4.4676,-4.4676,-4.4862,-4.5138,-4.5367,-4.506,-4.4815,-4.463,-4.4457,-4.3703,-4.2935,-4.3245,-4.3115,-4.2887,-4.2887,-4.2887,-4.2887,-4.2887,-4.2724,-4.2412,-4.1802,-4.1205,-4.0608,-3.9983,-3.9563,-3.9305,-3.9305,-3.9305,-3.9305,-3.9305,-3.9115,-3.8776,-3.8122,-3.7526,-3.6958,-3.6347,-3.594,-3.571,-3.571,-3.571,-3.5642,-3.5521,-3.5318,-3.5086,-3.4797,-3.4618,-3.4494,-3.4397,-3.4397,-3.4397,-3.4397,-3.4397,-3.4397,-3.4397,-3.4397,-3.3809,-3.2685,-3.2319,-3.1744,0.0,0.0,0.0,0.0,0.0,0.0,0.0,0.0,0.0,0.0,0.0,-2.1205,-2.1167,-2.1889,-2.2482,-2.2482,0.0,0.0,0.0,0.0,0.0,0.0,0.0,0.0,0.0,0.0,0.0,0.0,0.0,0.0,0.0,-4.5459,-4.5808,-4.5763,-4.5866,-4.588,-4.588,-4.588,-4.588,-4.588,-4.588,-4.588,-4.588,-4.588,0.0,0.0,0.0,0.0,0.0,-4.5367,-4.517,-4.517,-4.517,-4.517,-4.5216,-4.5745,-4.588,-4.588,-4.588,-4.5504,-4.4986,-4.4443,-4.3655,-4.2887,-4.2887,-4.2887,-4.2887,-4.2887,-4.2887,-4.2873,-4.2833,-4.2412,-4.1842,-4.1205,-4.0608,-4.0024,-3.9427,-3.9305,-3.9305,-3.9305,-3.9305,-3.9305,-3.9305,-3.8817,-3.822,-3.758,-3.6999,-3.6388,-3.5791,-3.571,-3.571,-3.571,-3.571,-3.5669,-3.5669,-3.5521,-3.5236,-3.4839,-3.4797,-3.4673,-3.4397,-3.4397,-3.4397,-3.4397,-3.4397,-3.4397,-3.4397,-3.4397,-3.3809,-3.2685,-3.2685,-3.2084,-2.171,0.0,-2.2163,-2.2488,0.0,0.0,0.0,0.0,0.0,0.0,0.0,0.0,0.0,0.0,0.0,0.0,0.0,0.0,0.0,0.0,0.0,0.0,0.0,0.0,0.0,0.0,0.0,0.0,0.0,0.0,0.0,-4.4601,-4.4992,-4.459,-4.5439,-4.588,-4.588,-4.588,-4.588,-4.588,-4.588,-4.588,-4.588,-4.588,0.0,0.0,0.0,0.0,-4.588,-4.5745,-4.57,-4.57,-4.57,-4.57,-4.5745,-4.5835,-4.588,-4.588,-4.588,-4.5321,-4.4397,-4.356,-4.308,-4.2887,-4.2887,-4.2887,-4.2887,-4.2887,-4.2887,-4.2778,-4.2331,-4.2114,-4.1734,-4.0662,-4.0296,-4.0024,-3.9427,-3.9305,-3.9305,-3.9305,-3.9305,-3.9305,-3.9305,-3.8817,-3.822,-3.758,-3.6999,-3.6388,-3.5791,-3.571,-3.571,-3.571,-3.571,-3.5642,-3.548,-3.544,-3.5277,-3.5044,-3.488,-3.4673,-3.4397,-3.4397,-3.4397,-3.4397,-3.4397,-3.4397,-3.4397,-3.4397,-3.3809,-3.2685,-3.2685,-3.2084,-2.073,-2.0593,-2.0281,-2.041,-2.077,-2.1009,0.0,0.0,0.0,0.0,0.0,0.0,0.0,0.0,0.0,0.0,0.0,0.0,0.0,0.0,0.0,0.0,0.0,0.0,0.0,0.0,0.0,0.0,0.0,0.0,0.0,-4.3586,-4.4063,-4.3811,-4.46,-4.53,-4.588,-4.588,-4.588,-4.588,-4.588,-4.588,-4.588,-4.588,-4.588,0.0,0.0,0.0,-4.588,-4.588,-4.588,-4.588,-4.588,-4.588,-4.588,-4.588,-4.588,-4.5909,-4.589,-4.5356,-4.4509,-4.3812,-4.3608,-4.3608,-4.3608,-4.3403,-4.3197,-4.2984,-4.2697,-4.2412,-4.2086,-4.1584,-4.1001,-4.0336,-3.9983,-3.9699,-3.9373,-3.9305,-3.9305,-3.9305,-3.9305,-3.9305,-3.9305,-3.8586,-3.7865,-3.754,-3.6768,-3.6076,-3.575,-3.571,-3.571,-3.571,-3.571,-3.5669,-3.5562,-3.5562,-3.5399,-3.5127,-3.5003,-3.4839,-3.4577,-3.4577,-3.4535,-3.4397,-3.4397,-3.4397,-3.4397,-3.4397,-3.3809,-3.2685,-3.2685,-3.2084,-2.0631,-2.0747,-2.0565,-2.0172,-2.0533,-2.0878,-2.0466,0.0,0.0,0.0,0.0,0.0,0.0,0.0,0.0,0.0,0.0,0.0,0.0,0.0,0.0,0.0,0.0,0.0,0.0,0.0,0.0,0.0,0.0,0.0,0.0,-4.2447,-4.3022,-4.2948,-4.3487,-4.4326,-4.5396,-4.5632,-4.5779,-4.588,-4.588,-4.588,-4.588,-4.588,-4.588,0.0,0.0,0.0,-4.588,-4.588,-4.588,-4.588,-4.588,-4.588,-4.588,-4.588,-4.588,-4.5864,-4.5657,-4.521,-4.4706,-4.4392,-4.4317,-4.4411,-4.4411,-4.3937,-4.3381,-4.2978,-4.2433,-4.1964,-4.1774,-4.096,-4.016,-4.0065,-3.9671,-3.9305,-3.9305,-3.9305,-3.9305,-3.9305,-3.9305,-3.9278,-3.9183,-3.826,-3.7458,-3.7363,-3.6388,-3.571,-3.571,-3.571,-3.571,-3.571,-3.571,-3.571,-3.571,-3.571,-3.5562,-3.5195,-3.5127,-3.499,-3.4756,-3.4756,-3.4618,-3.4397,-3.4397,-3.4397,-3.4397,-3.4397,-3.3809,-3.2685,-3.2685,-3.2084,-2.0495,-2.1916,-2.2639,-2.0467,-2.0465,-2.0843,-2.0288,0.0,0.0,0.0,0.0,0.0,0.0,0.0,0.0,0.0,0.0,0.0,0.0,0.0,0.0,0.0,0.0,0.0,0.0,0.0,0.0,0.0,0.0,0.0,0.0,0.0,-4.1697,-4.1341,-4.232,-4.2895,-4.3079,-4.4409,-4.5329,-4.588,-4.588,-4.588,-4.588,-4.588,-4.588,0.0,0.0,-4.588,-4.588,-4.588,-4.588,-4.588,-4.588,-4.588,-4.588,-4.588,-4.588,-4.573,-4.461,-4.4149,-4.4022,-4.381,-4.4054,-4.4411,-4.4411,-4.3645,-4.2841,-4.2747,-4.2377,-4.1761,-4.073,-4.0323,-4.0051,-3.9563,-3.9373,-3.9305,-3.9305,-3.9305,-3.9305,-3.9305,-3.9305,-3.9142,-3.864,-3.7946,-3.7309,-3.6822,-3.6157,-3.571,-3.571,-3.571,-3.571,-3.571,-3.571,-3.571,-3.571,-3.571,-3.5669,-3.5602,-3.5277,-3.4908,-3.4481,-3.4439,-3.4439,-3.4397,-3.4397,-3.4397,-3.4397,-3.4397,-3.3809,-3.2685,-3.2685,-3.2084,-2.0574,-2.123,-2.182,-2.2148,-2.3835,-2.524,-2.4373,0.0,0.0,0.0,0.0,0.0,0.0,0.0,0.0,0.0,0.0,0.0,0.0,0.0,0.0,0.0,0.0,0.0,0.0,0.0,0.0,0.0,0.0,0.0,0.0,0.0,-4.0674,-4.0482,-4.1171,-4.1729,-4.2052,-4.2762,-4.3467,-4.4124,-4.4692,-4.5,-4.5014,-4.5631,-4.588,-4.588,0.0,-4.588,-4.588,-4.588,-4.588,-4.588,-4.588,-4.5745,-4.5458,-4.5184,-4.5203,-4.5253,-4.4443,-4.4308,-4.4425,-4.4429,-4.4514,-4.461,-4.4351,-4.3501,-4.2471,-4.1937,-4.143,-4.0892,-4.0323,-3.9956,-3.9631,-3.9373,-3.9305,-3.9305,-3.9305,-3.9305,-3.9305,-3.9305,-3.9047,-3.8735,-3.8464,-3.765,-3.6931,-3.6646,-3.6103,-3.571,-3.571,-3.571,-3.571,-3.571,-3.571,-3.571,-3.571,-3.571,-3.5642,-3.5562,-3.5277,-3.4949,-3.4618,-3.4481,-3.4397,-3.4397,-3.4397,-3.4397,-3.4397,-3.411,-3.3522,-3.2685,-3.2385,-3.1784,-2.063,-2.0824,-2.1455,-2.3644,0.0,-2.7271,-2.7557,0.0,0.0,0.0,0.0,0.0,0.0,0.0,0.0,0.0,0.0,0.0,0.0,0.0,0.0,0.0,0.0,0.0,0.0,0.0,0.0,0.0,0.0,0.0,0.0,0.0,-3.9821,-3.9821,-4.017,-4.0609,-4.1056,-4.1056,-4.1579,-4.2632,-4.3411,-4.3832,-4.3847,-4.4752,-4.5189,-4.5333,-4.5468,-4.5555,-4.5745,-4.5835,-4.5835,-4.57,-4.57,-4.5413,-4.4894,-4.4448,-4.4424,-4.4581,-4.4373,-4.4415,-4.4541,-4.4677,-4.4647,-4.4441,-4.3967,-4.3034,-4.201,-4.1207,-4.0511,-3.9983,-3.9983,-3.9644,-3.9305,-3.9305,-3.9305,-3.9305,-3.9305,-3.9305,-3.9305,-3.9305,-3.8817,-3.8383,-3.8233,-3.7311,-3.6551,-3.6415,-3.6008,-3.571,-3.571,-3.571,-3.571,-3.571,-3.571,-3.571,-3.571,-3.571,-3.5602,-3.5358,-3.5236,-3.5044,-3.4797,-3.4577,-3.4439,-3.4397,-3.4397,-3.4397,-3.4397,-3.3849,-3.3287,-3.2685,-3.2071,-3.1497,-2.0598,-2.2039,-2.355,-2.4,-2.2718,0.0,-2.642,-2.706,0.0,-2.7038,0.0,0.0,0.0,0.0,0.0,0.0,0.0,0.0,0.0,0.0,0.0,0.0,0.0,0.0,0.0,0.0,0.0,0.0,0.0,0.0,0.0,0.0,0.0,-3.9349,-3.9394,-3.9407,-3.9448,-3.9448,-4.0512,-4.2618,-4.2674,-4.2733,-4.2733,-4.2775,-4.3158,-4.3694,-4.4117,-4.4626,-4.5216,-4.57,-4.5595,-4.517,-4.517,-4.4862,-4.4397,-4.4041,-4.3848,-4.3723,-4.3901,-4.3752,-4.3526,-4.3603,-4.3511,-4.3324,-4.2867,-4.1968,-4.1093,-4.1007,-4.021,-3.9359,-3.9359,-3.9332,-3.9305,-3.9305,-3.9305,-3.9305,-3.9305,-3.9305,-3.9305,-3.9305,-3.8817,-3.8247,-3.7648,-3.7039,-3.6415,-3.5859,-3.575,-3.571,-3.571,-3.571,-3.571,-3.571,-3.571,-3.571,-3.571,-3.571,-3.5521,-3.5154,-3.5277,-3.5195,-3.4797,-3.4797,-3.466,-3.4397,-3.4397,-3.4397,-3.4397,-3.3849,-3.3287,-3.2685,-3.2071,-3.1497,-2.0549,-2.233,-2.4218,-2.439,-2.379,0.0,0.0,-3.0411,-3.0404,-2.7676,0.0,0.0,0.0,0.0,0.0,0.0,0.0,0.0,0.0,0.0,0.0,0.0,0.0,0.0,0.0,0.0,0.0,0.0,0.0,0.0,0.0,0.0,0.0,-3.9305,-3.9305,-3.9305,-3.9305,-3.9305,-3.97,-4.0553,-4.1266,-4.1594,-4.1639,-4.2315,-4.2699,-4.297,-4.3149,-4.3336,-4.3607,-4.4269,-4.4136,-4.3503,-4.3171,-4.2956,-4.2727,-4.2315,-4.2315,-4.2482,-4.2565,-4.2701,-4.2834,-4.2879,-4.2592,-4.2158,-4.1744,-4.103,-4.0311,-4.0001,-3.9615,-3.9305,-3.9305,-3.9305,-3.9305,-3.9305,-3.9305,-3.9305,-3.9305,-3.9305,-3.9197,-3.8817,-3.8274,-3.7634,-3.7053,-3.6456,-3.5967,-3.575,-3.571,-3.571,-3.571,-3.571,-3.571,-3.571,-3.571,-3.571,-3.571,-3.571,-3.5642,-3.548,-3.5318,-3.499,-3.4577,-3.4535,-3.4481,-3.4397,-3.4397,-3.4241,-3.3901,-3.3313,-3.2725,-3.215,-3.1575,-3.1196,-2.1923,-2.3087,-2.4662,0.0,0.0,0.0,-2.9964,-3.1964,-3.2096,0.0,0.0,0.0,0.0,0.0,0.0,0.0,0.0,0.0,0.0,0.0,0.0,0.0,0.0,0.0,0.0,0.0,0.0,0.0,0.0,0.0,0.0,0.0,0.0,0.0,-3.9305,-3.9305,-3.9305,-3.9305,-3.9305,-3.9305,-4.0083,-4.0467,-4.0481,-4.1224,-4.165,-4.1831,-4.2024,-4.2181,-4.2421,-4.3355,-4.3296,-4.2505,-4.1732,-4.1402,-4.137,-4.1175,-4.1281,-4.159,-4.1759,-4.1907,-4.2024,-4.2024,-4.1591,-4.103,-4.0587,-4.012,-3.9689,-3.9394,-3.9305,-3.9305,-3.9305,-3.9305,-3.9305,-3.9305,-3.9305,-3.9305,-3.9305,-3.9156,-3.8898,-3.8491,-3.7786,-3.7065,-3.6673,-3.6103,-3.571,-3.571,-3.571,-3.571,-3.571,-3.571,-3.571,-3.571,-3.571,-3.571,-3.571,-3.571,-3.5669,-3.5602,-3.5358,-3.5031,-3.4729,-3.4729,-3.4688,-3.4605,-3.4577,-3.426,-3.3709,-3.3026,-3.2398,-3.1784,-3.1248,-3.0986,-2.4981,-2.4621,-2.5038,0.0,0.0,0.0,0.0,0.0,0.0,0.0,0.0,0.0,0.0,0.0,0.0,0.0,0.0,0.0,0.0,0.0,0.0,0.0,0.0,0.0,0.0,0.0,0.0,0.0,0.0,0.0,0.0,0.0,0.0,0.0,-3.9305,-3.9305,-3.9305,-3.9305,-3.9305,-3.9305,-3.9305,-3.9305,-3.9305,-3.9305,-3.9631,-4.0232,-4.0742,-4.1311,-4.185,-4.3147,-4.3232,-4.2411,-4.102,-4.0487,-4.0561,-4.0935,-4.111,-4.1142,-4.1608,-4.1391,-4.0893,-4.0979,-4.0565,-3.9908,-3.9438,-3.9305,-3.9305,-3.9305,-3.9305,-3.9305,-3.9305,-3.9305,-3.9305,-3.9305,-3.9305,-3.9305,-3.9305,-3.8844,-3.8423,-3.8423,-3.7446,-3.6605,-3.6605,-3.6103,-3.5723,-3.571,-3.571,-3.571,-3.571,-3.571,-3.571,-3.571,-3.571,-3.571,-3.571,-3.571,-3.5602,-3.544,-3.5399,-3.5399,-3.5399,-3.5399,-3.5318,-3.5086,-3.4921,-3.4507,-3.3898,-3.3093,-3.2385,-3.1784,-3.1248,-3.0986,-2.1652,-2.4443,0.0,0.0,0.0,0.0,0.0,0.0,0.0,0.0,0.0,0.0,0.0,0.0,0.0,0.0,0.0,0.0,0.0,0.0,0.0,0.0,0.0,0.0,0.0,0.0,0.0,0.0,0.0,0.0,0.0,0.0,0.0,0.0,-3.9305,-3.9305,-3.9305,-3.9305,-3.9305,-3.9305,-3.9305,-3.9305,-3.9305,-3.9305,-3.94,-3.9563,-3.9755,-3.9895,-4.0059,-4.0422,-4.0464,-4.0244,-3.9807,-3.9663,-3.9676,-3.9776,-4.0059,-4.0326,-4.049,-4.0424,-4.0272,-4.0286,-3.9942,-3.9482,-3.9349,-3.9305,-3.9305,-3.9305,-3.9305,-3.9305,-3.9305,-3.9305,-3.9305,-3.9305,-3.9305,-3.9305,-3.9305,-3.9169,-3.8925,-3.8491,-3.8125,-3.7609,-3.6741,-3.6456,-3.6198,-3.5778,-3.571,-3.571,-3.571,-3.571,-3.571,-3.571,-3.571,-3.571,-3.571,-3.571,-3.5669,-3.5602,-3.5602,-3.548,-3.5195,-3.5195,-3.5154,-3.5086,-3.4632,-3.402,-3.3265,-3.2593,-3.1912,-3.1235,-3.1065,-3.0986,-2.483,0.0,0.0,0.0,0.0,0.0,0.0,0.0,0.0,0.0,0.0,0.0,0.0,0.0,0.0,0.0,0.0,0.0,0.0,0.0,0.0,0.0,0.0,0.0,0.0,0.0,0.0,0.0,0.0,0.0,0.0,0.0,0.0,0.0,-3.9183,-3.9305,-3.9305,-3.9305,-3.9305,-3.9305,-3.9305,-3.9305,-3.9305,-3.9305,-3.9305,-3.9305,-3.9305,-3.9305,-3.9305,-3.9305,-3.9305,-3.9305,-3.9305,-3.9305,-3.9305,-3.9305,-3.9482,-3.9733,-3.9733,-3.9733,-3.9733,-3.9733,-3.9526,-3.9305,-3.9305,-3.9305,-3.9305,-3.9305,-3.9305,-3.9305,-3.9305,-3.9305,-3.9305,-3.9305,-3.9305,-3.9305,-3.9305,-3.9115,-3.8844,-3.8491,-3.803,-3.746,-3.6727,-3.6402,-3.613,-3.5764,-3.571,-3.571,-3.571,-3.571,-3.571,-3.571,-3.571,-3.571,-3.571,-3.571,-3.571,-3.571,-3.571,-3.5602,-3.5358,-3.5358,-3.5358,-3.5358,-3.4593,-3.3834,-3.3158,-3.2382,-3.165,-3.0986,-3.0986,-3.0986,0.0,0.0,0.0,0.0,0.0,0.0,0.0,0.0,0.0,0.0,0.0,0.0,0.0,0.0,0.0,0.0,0.0,0.0,0.0,0.0,0.0,0.0,0.0,0.0,0.0,0.0,0.0,0.0,0.0,0.0,0.0,0.0,0.0,0.0,-3.8857,-3.9169,-3.9224,-3.9299,-3.937,0.0,-3.9424,-3.9424,-3.9424,-3.9349,-3.9305,-3.9305,-3.9305,-3.9305,-3.9305,-3.9305,-3.9305,-3.9305,-3.9305,-3.9305,-3.9305,-3.9305,-3.9305,-3.9305,-3.9305,-3.9305,-3.9305,-3.9305,-3.9305,-3.9305,-3.9305,-3.9305,-3.9305,-3.9305,-3.9305,-3.9305,-3.9305,-3.9305,-3.9305,-3.9305,-3.9305,-3.9305,-3.9305,-3.8844,-3.8423,-3.8423,-3.7473,-3.6659,-3.6605,-3.6157,-3.5778,-3.5723,-3.571,-3.571,-3.571,-3.571,-3.571,-3.571,-3.571,-3.571,-3.571,-3.571,-3.571,-3.571,-3.571,-3.571,-3.571,-3.571,-3.5683,-3.5642,-3.466,-3.3886,-3.33,-3.2277,-3.1496,-3.0986,-3.0986,-3.0986,0.0,0.0,0.0,0.0,0.0,0.0,0.0,0.0,0.0,0.0,0.0,0.0,0.0,0.0,0.0,0.0,0.0,0.0,0.0,0.0,0.0,0.0,0.0,0.0,0.0,0.0,0.0,0.0,0.0,0.0,0.0,0.0,0.0,-3.7675,-3.7811,-3.8095,-3.86,-3.9279,-3.9842,0.0,-4.0317,-4.0317,-4.0317,-3.9631,-3.9305,-3.9305,-3.9305,-3.9305,-3.9305,-3.9305,-3.9305,-3.9305,-3.9305,-3.9305,-3.9305,-3.9305,-3.9305,-3.9305,-3.9305,-3.9305,-3.9305,-3.9305,-3.9305,-3.9305,-3.9305,-3.9305,-3.9305,-3.9305,-3.9305,-3.9305,-3.9305,-3.9305,-3.9305,-3.9305,-3.9305,-3.9305,-3.9305,-3.8844,-3.8423,-3.8423,-3.7797,-3.7175,-3.6687,-3.6497,-3.6252,-3.5791,-3.571,-3.571,-3.571,-3.571,-3.571,-3.571,-3.571,-3.571,-3.571,-3.571,-3.571,-3.571,-3.571,-3.571,-3.571,-3.571,-3.5506,-3.4992,-3.4331,-3.3544,-3.2699,-3.2,-3.1418,-3.0986,-3.0986,-3.0986,0.0,0.0,0.0,0.0,0.0,0.0,0.0,0.0,0.0,0.0,0.0,0.0,0.0,0.0,0.0,0.0,0.0,0.0,0.0,0.0,0.0,0.0,0.0,0.0,0.0,0.0,0.0,0.0,0.0,0.0,0.0,-3.7304,-3.7483,-3.708,-3.7336,-3.7634,-3.7946,-3.8431,-3.9019,-3.9676,-3.9283,-3.9127,-3.9112,-3.924,-3.9305,-3.9305,-3.9305,-3.9305,-3.9305,-3.9305,-3.9305,-3.9305,-3.9305,-3.9305,-3.9305,-3.9305,-3.9305,-3.9305,-3.9305,-3.9305,-3.9305,-3.9305,-3.9305,-3.9305,-3.9305,-3.9305,-3.9305,-3.9305,-3.9305,-3.9237,-3.8952,-3.8884,-3.8817,-3.8532,-3.8667,-3.8884,-3.8884,-3.8423,-3.7946,-3.7946,-3.7458,-3.6985,-3.6659,-3.6361,-3.6076,-3.5764,-3.571,-3.571,-3.571,-3.571,-3.571,-3.571,-3.571,-3.571,-3.571,-3.571,-3.571,-3.571,-3.571,-3.571,-3.571,-3.571,-3.5398,-3.4802,-3.4064,-3.3279,-3.2513,-3.1702,-3.1211,-3.0986,-3.0986,-3.0986,0.0,0.0,0.0,0.0,0.0,0.0,0.0,0.0,0.0,0.0,0.0,0.0,0.0,0.0,0.0,0.0,0.0,0.0,0.0,0.0,0.0,0.0,0.0,0.0,0.0,0.0,0.0,0.0,0.0,0.0,-3.7155,-3.7596,-3.7562,-3.6865,-3.7332,-3.7661,-3.7771,-3.7938,-3.8365,-3.9114,-3.8311,-3.7768,-3.7526,-3.8545,-3.9061,-3.9156,-3.9251,-3.9305,-3.9305,-3.9305,-3.9305,-3.9305,-3.9305,-3.9305,-3.9305,-3.9305,-3.9305,-3.9305,-3.9305,-3.9305,-3.9305,-3.9305,-3.9237,-3.9142,-3.9142,-3.9074,-3.8993,-3.8993,-3.8993,-3.8884,-3.8383,-3.826,-3.8095,-3.7607,-3.7783,-3.8138,-3.8247,-3.7756,-3.7323,-3.7323,-3.6877,-3.6442,-3.6442,-3.6035,-3.571,-3.571,-3.571,-3.571,-3.571,-3.571,-3.571,-3.571,-3.571,-3.571,-3.571,-3.571,-3.571,-3.571,-3.571,-3.571,-3.571,-3.5615,-3.5249,-3.4653,-3.3893,-3.3123,-3.239,-3.1561,-3.1136,-3.1061,-3.1061,-3.1024,0.0,0.0,0.0,0.0,0.0,0.0,0.0,0.0,0.0,0.0,0.0,0.0,0.0,0.0,0.0,0.0,0.0,0.0,0.0,0.0,0.0,0.0,0.0,0.0,0.0,0.0,0.0,0.0,0.0,0.0,-3.7988,-3.8037,-3.8005,-3.7891,-3.7978,-3.8256,-3.8792,-3.963,-4.0313,-4.0884,-4.0031,-3.8913,-3.7499,-3.7662,-3.8014,-3.8559,-3.9074,-3.9305,-3.9305,-3.9305,-3.9305,-3.9305,-3.9305,-3.9305,-3.9305,-3.9305,-3.9305,-3.9305,-3.9305,-3.9305,-3.9305,-3.9305,-3.8952,-3.8532,-3.8532,-3.8136,-3.7729,-3.7729,-3.7729,-3.7702,-3.7634,-3.7607,-3.7594,-3.7512,-3.7175,-3.6985,-3.7485,-3.7161,-3.6727,-3.6727,-3.6239,-3.5832,-3.5832,-3.5764,-3.571,-3.571,-3.571,-3.571,-3.571,-3.571,-3.571,-3.571,-3.571,-3.571,-3.571,-3.571,-3.571,-3.571,-3.571,-3.571,-3.571,-3.5181,-3.4639,-3.4043,-3.391,-3.3214,-3.1974,-3.1857,-3.1582,-3.1272,-3.1272,-3.1161,0.0,0.0,0.0,0.0,0.0,0.0,0.0,0.0,0.0,0.0,0.0,0.0,0.0,0.0,0.0,0.0,0.0,0.0,0.0,0.0,0.0,0.0,0.0,0.0,0.0,0.0,0.0,0.0,0.0,-3.9621,-3.8818,-3.8782,-3.8561,-3.8086,-3.8101,-3.8246,-3.8498,-3.8927,-3.9246,-3.9473,-4.0025,-3.9427,-3.7856,-3.8631,-3.8594,-3.7892,-3.8163,-3.8315,-3.8315,-3.8315,-3.8315,-3.8315,-3.8315,-3.8315,-3.8315,-3.8315,-3.8315,-3.8315,-3.8315,-3.8315,-3.8315,-3.8315,-3.8095,-3.7878,-3.7878,-3.7702,-3.7485,-3.7485,-3.7485,-3.7404,-3.7065,-3.7012,-3.6931,-3.655,-3.6307,-3.6185,-3.6415,-3.6293,-3.6103,-3.6103,-3.5886,-3.571,-3.571,-3.571,-3.571,-3.571,-3.571,-3.571,-3.571,-3.571,-3.571,-3.571,-3.571,-3.571,-3.571,-3.571,-3.571,-3.571,-3.571,-3.571,-3.571,-3.51,-3.4517,-3.3921,-3.3392,-3.2662,-3.172,-3.1522,-3.1323,-3.1123,-3.1123,-3.1099,0.0,0.0,0.0,0.0,0.0,0.0,0.0,0.0,0.0,0.0,0.0,0.0,0.0,0.0,0.0,0.0,0.0,0.0,0.0,0.0,0.0,0.0,0.0,0.0,0.0,0.0,0.0,0.0,0.0,-4.0047,-3.9642,-3.9606,-3.932,-3.8745,-3.8708,-3.8708,-3.8708,-3.8708,-3.8598,-3.8436,-3.9621,-3.9463,-3.8153,-3.9195,-3.8934,-3.7662,-3.7743,-3.7683,-3.7485,-3.7485,-3.7612,-3.7796,-3.757,-3.7599,-3.7796,-3.7796,-3.7796,-3.7838,-3.8034,-3.7964,-3.7796,-3.7796,-3.7574,-3.7255,-3.7255,-3.7147,-3.7025,-3.7025,-3.7025,-3.6916,-3.6497,-3.6375,-3.6266,-3.5818,-3.571,-3.571,-3.571,-3.571,-3.571,-3.571,-3.571,-3.571,-3.571,-3.571,-3.571,-3.571,-3.571,-3.571,-3.571,-3.571,-3.571,-3.571,-3.571,-3.571,-3.571,-3.571,-3.571,-3.571,-3.571,-3.5642,-3.5506,-3.4883,-3.4287,-3.3704,-3.2807,-3.2147,-3.1743,-3.1434,-3.1286,-3.1211,-3.1211,-3.1174,0.0,0.0,0.0,0.0,0.0,0.0,0.0,0.0,0.0,0.0,0.0,0.0,0.0,0.0,0.0,0.0,0.0,0.0,0.0,0.0,0.0,0.0,0.0,0.0,0.0,0.0,0.0,0.0,0.0,-3.9813,-4.0424,-4.0455,-4.042,-4.0385,-4.0385,-4.0385,-4.0385,-4.0385,-3.999,-3.9233,-3.932,-3.8928,-3.8101,-3.8167,-3.8159,-3.8072,-3.8484,-3.8187,-3.7485,-3.7485,-3.795,-3.8572,-3.7796,-3.795,-3.864,-3.864,-3.864,-3.8763,-3.953,-3.929,-3.864,-3.864,-3.7731,-3.6646,-3.6646,-3.6252,-3.5805,-3.5805,-3.5805,-3.5805,-3.5764,-3.5764,-3.575,-3.5723,-3.571,-3.571,-3.571,-3.571,-3.571,-3.571,-3.571,-3.571,-3.571,-3.571,-3.571,-3.571,-3.571,-3.571,-3.571,-3.571,-3.571,-3.571,-3.571,-3.571,-3.571,-3.571,-3.571,-3.571,-3.571,-3.5425,-3.4856,-3.4273,-3.3677,-3.3156,-3.2337,-3.199,-3.2182,-3.2146,-3.2036,-3.1853,-3.1853,-3.1656,0.0,0.0,0.0,0.0,0.0,0.0,0.0,0.0,0.0,0.0,0.0,0.0,0.0,0.0,0.0,0.0,0.0,0.0,0.0,0.0,0.0,0.0,0.0,0.0,0.0,0.0,0.0,0.0,0.0,0.0,-3.9216,-3.9613,-3.9844,-3.9844,-4.0274,-4.0489,-4.0489,-4.0489,-4.0351,-4.0076,-4.0076,-3.992,-3.9657,-3.9657,-3.9356,-3.8884,-3.9008,-3.8645,-3.7884,-3.7884,-3.8065,-3.8298,-3.8001,-3.7741,-3.7543,-3.7543,-3.7198,-3.6809,-3.7078,-3.7011,-3.6769,-3.6769,-3.6429,-3.6035,-3.6035,-3.5886,-3.571,-3.571,-3.571,-3.571,-3.571,-3.571,-3.571,-3.571,-3.571,-3.571,-3.571,-3.571,-3.571,-3.571,-3.571,-3.571,-3.571,-3.571,-3.571,-3.571,-3.571,-3.571,-3.571,-3.571,-3.571,-3.571,-3.571,-3.571,-3.571,-3.571,-3.571,-3.571,-3.571,-3.5412,-3.4816,-3.4219,-3.3661,-3.3115,-3.2444,-3.2073,-3.2,-3.189,-3.178,-3.172,-3.172,-3.1633,0.0,0.0,0.0,0.0,0.0,0.0,0.0,0.0,0.0,0.0,0.0,0.0,0.0,0.0,0.0,0.0,0.0,0.0,0.0,0.0,0.0,0.0,0.0,0.0,0.0,0.0,0.0,0.0,0.0,0.0,-3.8492,-3.8939,-3.9136,-3.9136,-3.9797,-4.0151,-4.0151,-4.0382,-4.0489,-4.0489,-4.0489,-4.0489,-4.0489,-4.0489,-4.0231,-3.9692,-3.9692,-3.9088,-3.8101,-3.8101,-3.8101,-3.8063,-3.78,-3.7372,-3.6922,-3.7179,-3.6805,-3.6177,-3.6727,-3.6727,-3.6466,-3.6203,-3.6282,-3.6466,-3.6163,-3.6097,-3.6097,-3.6097,-3.5897,-3.571,-3.571,-3.571,-3.571,-3.571,-3.571,-3.571,-3.571,-3.571,-3.571,-3.571,-3.571,-3.571,-3.571,-3.571,-3.571,-3.571,-3.571,-3.571,-3.571,-3.571,-3.571,-3.571,-3.571,-3.571,-3.571,-3.571,-3.571,-3.571,-3.5533,-3.5127,-3.457,-3.3935,-3.3376,-3.2816,-3.2409,-3.2146,-3.2,-3.1853,-3.178,-3.178,-3.178,-3.172,0.0,0.0,0.0,0.0,0.0,0.0,0.0,0.0,0.0,0.0,0.0,0.0,0.0,0.0,0.0,0.0,0.0,0.0,0.0,0.0,0.0,0.0,0.0,0.0,0.0,0.0,0.0,0.0,0.0,-3.7914,-3.8415,-3.8477,-3.8492,-3.8508,-3.9139,-3.9459,-3.9459,-4.0136,-4.0459,-4.0459,-4.0489,-4.0489,-4.0489,-4.0489,-4.0489,-4.0489,-4.0489,-3.9621,-3.8175,-3.8175,-3.8175,-3.8101,-3.7295,-3.7014,-3.7078,-3.7852,-3.7625,-3.7155,-3.8708,-3.8745,-3.7988,-3.7179,-3.7472,-3.7951,-3.7179,-3.6936,-3.6936,-3.6936,-3.6362,-3.571,-3.571,-3.571,-3.571,-3.571,-3.571,-3.571,-3.571,-3.571,-3.571,-3.571,-3.571,-3.571,-3.571,-3.571,-3.571,-3.571,-3.571,-3.571,-3.571,-3.571,-3.571,-3.571,-3.571,-3.571,-3.571,-3.571,-3.571,-3.571,-3.5114,-3.4545,-3.4014,-3.3427,-3.283,-3.2218,-3.2218,-3.2218,-3.2218,-3.2218,-3.2218,-3.2218,-3.2218,-3.2,-2.1836,0.0,0.0,0.0,0.0,0.0,0.0,0.0,0.0,0.0,0.0,0.0,0.0,0.0,0.0,0.0,0.0,0.0,0.0,0.0,0.0,0.0,0.0,0.0,0.0,0.0,0.0,0.0,-3.7188,-3.7266,-3.7406,-3.773,-3.8097,-3.8492,-3.8692,-3.8785,-3.8785,-3.9428,-3.9767,-3.9767,-4.0259,-4.0489,-4.0489,-4.0489,-4.0489,-4.0489,-4.0489,-4.0266,-3.9849,-3.9849,-3.9849,-3.9814,-3.9585,-3.9139,-3.8649,-3.8906,-3.845,-3.7852,-3.8287,-3.8287,-3.8063,-3.7838,-3.7913,-3.8063,-3.7852,-3.7776,-3.7776,-3.7776,-3.7179,-3.6441,-3.5871,-3.571,-3.571,-3.571,-3.571,-3.571,-3.571,-3.571,-3.571,-3.571,-3.571,-3.571,-3.571,-3.571,-3.571,-3.571,-3.571,-3.571,-3.571,-3.571,-3.571,-3.571,-3.571,-3.571,-3.571,-3.571,-3.571,-3.571,-3.5114,-3.4531,-3.3948,-3.3376,-3.283,-3.2218,-3.2218,-3.2218,-3.2218,-3.2218,-3.2218,-3.2218,-3.2218,-3.2146,0.0,0.0,0.0,0.0,0.0,0.0,0.0,-2.9315,0.0,0.0,0.0,0.0,0.0,0.0,0.0,0.0,0.0,0.0,0.0,0.0,0.0,0.0,0.0,0.0,0.0,0.0,0.0,-3.7075,-3.703,-3.6969,-3.6862,-3.7204,-3.7545,-3.7853,-3.8067,-3.8174,-3.8174,-3.8787,-3.9059,-3.9108,-3.9459,-3.9797,-4.0074,-4.0074,-4.0228,-4.0489,-4.0489,-4.0489,-4.0489,-4.0489,-4.0301,-3.999,-3.999,-3.9499,-3.8855,-3.9196,-3.8782,-3.8138,-3.8473,-3.8598,-3.8561,-3.8213,-3.8546,-3.9052,-3.8708,-3.8361,-3.8101,-3.8101,-3.7295,-3.6282,-3.5831,-3.571,-3.571,-3.571,-3.571,-3.571,-3.571,-3.571,-3.571,-3.571,-3.571,-3.571,-3.571,-3.571,-3.571,-3.571,-3.571,-3.571,-3.571,-3.571,-3.571,-3.571,-3.571,-3.571,-3.571,-3.571,-3.5601,-3.5317,-3.4748,-3.4165,-3.3607,-3.301,-3.2572,-3.2218,-3.2218,-3.2218,-3.2218,-3.2218,-3.2218,-3.2218,-3.2218,-3.2146,0.0,0.0,0.0,0.0,0.0,0.0,-2.771,-2.8428,-2.9422,0.0,0.0,0.0,0.0,0.0,0.0,0.0,0.0,0.0,0.0,0.0,0.0,0.0,0.0,0.0,0.0,-3.688,-3.7229,-3.7128,-3.7074,-3.6969,-3.6785,-3.6892,-3.6984,-3.6969,-3.7359,-3.7559,-3.7559,-3.8111,-3.84,-3.84,-3.851,-3.8849,-3.9434,-3.9434,-3.9773,-4.0309,-4.0385,-4.0416,-4.0382,-4.0459,-4.0076,-3.9427,-3.9427,-3.9015,-3.8436,-3.916,-3.8979,-3.8473,-3.9196,-3.9427,-3.932,-3.8598,-3.9341,-4.037,-3.9657,-3.8928,-3.8361,-3.825,-3.7204,-3.6097,-3.5977,-3.5977,-3.5937,-3.5871,-3.5831,-3.5831,-3.571,-3.571,-3.571,-3.571,-3.571,-3.571,-3.571,-3.571,-3.571,-3.571,-3.571,-3.571,-3.571,-3.571,-3.571,-3.571,-3.571,-3.571,-3.571,-3.5655,-3.5358,-3.4816,-3.4179,-3.3607,-3.3115,-3.2531,-3.2218,-3.2218,-3.2218,-3.2218,-3.2218,-3.2218,-3.2218,-3.2218,-3.2218,-3.2109,0.0,0.0,0.0,0.0,0.0,0.0,-2.3408,-2.5194,-2.6952,0.0,0.0,0.0,0.0,0.0,0.0,0.0,0.0,0.0,0.0,0.0,0.0,0.0,0.0,0.0,0.0,-3.5726,-3.6026,-3.6521,-3.7089,-3.7315,-3.7104,-3.7044,-3.6938,-3.6754,-3.6739,-3.6708,-3.6708,-3.748,-3.7869,-3.7852,-3.8554,-3.8977,-3.9117,-3.9117,-3.9113,-3.9168,-3.9709,-3.984,-3.9721,-4.0274,-4.042,-4.0266,-4.0266,-4.0181,-4.0041,-4.0231,-4.0181,-4.0025,-4.0216,-4.0266,-4.0231,-4.0076,-4.0231,-4.0455,-4.0301,-4.0146,-3.9884,-3.9233,-3.8818,-3.845,-3.78,-3.761,-3.7472,-3.6805,-3.6663,-3.648,-3.5831,-3.571,-3.571,-3.571,-3.571,-3.571,-3.571,-3.571,-3.571,-3.571,-3.571,-3.571,-3.571,-3.571,-3.571,-3.571,-3.571,-3.571,-3.571,-3.5236,-3.4924,-3.4802,-3.3824,-3.3224,-3.3101,-3.2531,-3.2218,-3.2218,-3.2218,-3.2218,-3.2218,-3.2218,-3.2218,-3.2218,-3.2218,-3.2182,0.0,0.0,0.0,-2.2666,0.0,0.0,0.0,-2.4874,0.0,0.0,0.0,0.0,0.0,0.0,0.0,0.0,0.0,0.0,0.0,0.0,0.0,0.0,0.0,0.0,0.0,-3.5173,-3.5493,-3.5739,-3.6203,-3.6521,-3.6676,-3.6707,-3.682,-3.7089,-3.6938,-3.6846,-3.6846,-3.7188,-3.7344,-3.7344,-3.7779,-3.8185,-3.8481,-3.8401,-3.8523,-3.8798,-3.9058,-3.9098,-3.9046,-3.9351,-3.969,-4.0028,-4.0366,-4.0489,-4.0489,-4.0489,-4.0489,-4.0489,-4.0489,-4.0489,-4.0489,-4.0489,-4.0489,-4.0489,-4.0489,-4.0231,-3.9728,-3.8928,-3.8708,-3.8598,-3.8213,-3.78,-3.741,-3.7014,-3.6584,-3.6177,-3.579,-3.571,-3.571,-3.571,-3.571,-3.571,-3.571,-3.571,-3.571,-3.571,-3.571,-3.571,-3.571,-3.571,-3.571,-3.571,-3.571,-3.5601,-3.5263,-3.4965,-3.4545,-3.3987,-3.3427,-3.2966,-3.2667,-3.2368,-3.2218,-3.2218,-3.2218,-3.2218,-3.2218,-3.2218,-3.2218,-3.2218,-3.2218,-3.2218,0.0,0.0,0.0,0.0,0.0,-2.3329,0.0,0.0,0.0,0.0,0.0,0.0,0.0,0.0,0.0,0.0,0.0,0.0,0.0,0.0,0.0,0.0,0.0,0.0,0.0,-3.4307,-3.4782,-3.4946,-3.4919,-3.5234,-3.5998,-3.6101,-3.649,-3.7229,-3.7065,-3.7023,-3.7164,-3.7075,-3.703,-3.703,-3.709,-3.7387,-3.7888,-3.7748,-3.7949,-3.8477,-3.8456,-3.8438,-3.8421,-3.8544,-3.893,-3.9452,-4.0062,-4.0382,-4.0489,-4.0489,-4.0489,-4.0489,-4.0489,-4.0489,-4.0489,-4.0489,-4.0489,-4.0489,-4.0489,-4.0041,-3.9391,-3.8745,-3.8546,-3.8546,-3.8546,-3.7965,-3.7333,-3.7155,-3.652,-3.5911,-3.571,-3.571,-3.571,-3.571,-3.571,-3.571,-3.571,-3.571,-3.571,-3.571,-3.571,-3.571,-3.571,-3.571,-3.571,-3.571,-3.5615,-3.5317,-3.4829,-3.4585,-3.4082,-3.3156,-3.2993,-3.2721,-3.2232,-3.2218,-3.2218,-3.2218,-3.2218,-3.2218,-3.2218,-3.2218,-3.2218,-3.2218,-3.2218,-3.2218,0.0,0.0,0.0,0.0,-2.2064,0.0,0.0,0.0,0.0,0.0,0.0,0.0,0.0,0.0,0.0,0.0,0.0,0.0,0.0,0.0,0.0,0.0,0.0,0.0,0.0,0.0,-3.2826,-3.4278,-3.3608,-3.38,-3.5408,-3.5332,-3.5606,-3.6328,-3.6136,-3.6344,-3.703,-3.7119,-3.7164,-3.7194,-3.7375,-3.7482,-3.7561,-3.7531,-3.7473,-3.74,-3.7981,-3.8169,-3.809,-3.8714,-3.8994,-3.9102,-3.947,-3.9967,-4.0489,-4.0489,-4.0489,-4.0489,-4.0489,-4.0489,-4.0489,-4.0489,-4.0489,-4.0489,-4.0489,-4.0455,-4.0335,-4.0266,-4.0231,-4.0231,-4.0231,-3.9621,-3.887,-3.8138,-3.7372,-3.6559,-3.5871,-3.571,-3.571,-3.571,-3.571,-3.571,-3.571,-3.571,-3.571,-3.571,-3.571,-3.571,-3.571,-3.571,-3.571,-3.571,-3.5209,-3.4856,-3.4802,-3.3865,-3.3237,-3.3115,-3.2612,-3.2286,-3.2218,-3.2218,-3.2218,-3.2218,-3.2218,-3.2218,-3.2218,-3.2218,-3.2218,-3.2218,-3.2218,-3.2218,0.0,0.0,0.0,0.0,0.0,0.0,-2.1574,0.0,-2.1435,0.0,0.0,0.0,0.0,0.0,0.0,0.0,0.0,0.0,0.0,0.0,0.0,0.0,0.0,0.0,0.0,0.0,0.0,0.0,0.0,-3.3594,-3.4703,-3.4691,-3.4979,-3.572,-3.6027,-3.633,-3.6629,-3.714,-3.7359,-3.7375,-3.7464,-3.751,-3.751,-3.7375,-3.7284,-3.721,-3.7433,-3.7482,-3.7421,-3.7732,-3.8075,-3.8434,-3.8458,-3.8951,-3.9606,-3.9537,-3.9519,-3.9519,-3.9388,-3.9354,-3.9354,-3.9354,-3.9354,-3.9354,-3.9354,-3.9354,-3.9354,-3.9354,-3.9613,-3.9787,-3.9343,-3.8913,-3.8399,-3.7601,-3.6805,-3.6097,-3.575,-3.571,-3.571,-3.571,-3.571,-3.571,-3.571,-3.571,-3.571,-3.571,-3.571,-3.571,-3.571,-3.571,-3.5588,-3.5209,-3.4938,-3.4517,-3.3865,-3.3387,-3.2952,-3.2612,-3.2354,-3.2218,-3.2218,-3.2218,-3.2218,-3.2218,-3.2218,-3.2218,-3.2218,-3.2218,-3.2218,-3.2218,-3.2218,-3.2218,-2.3325,0.0,0.0,0.0,0.0,0.0,0.0,0.0,0.0,0.0,0.0,0.0,0.0,0.0,0.0,0.0,0.0,0.0,0.0,0.0,0.0,0.0,0.0,0.0,0.0,0.0,0.0,0.0,-3.2647,-3.3037,-3.3977,-3.402,-3.4352,-3.5063,-3.5584,-3.5903,-3.6108,-3.6832,-3.7196,-3.7196,-3.7415,-3.751,-3.751,-3.7359,-3.7284,-3.727,-3.7165,-3.7136,-3.7136,-3.7136,-3.7418,-3.7841,-3.7655,-3.7935,-3.8513,-3.8677,-3.8702,-3.8702,-3.8556,-3.8508,-3.8508,-3.8508,-3.8508,-3.8508,-3.8508,-3.8508,-3.8508,-3.8508,-3.8862,-3.9097,-3.8508,-3.8124,-3.7725,-3.7161,-3.6543,-3.602,-3.5811,-3.5908,-3.5977,-3.575,-3.571,-3.571,-3.571,-3.571,-3.571,-3.571,-3.571,-3.5655,-3.5493,-3.5425,-3.5209,-3.4612,-3.4409,-3.4,-3.3169,-3.2952,-3.268,-3.2246,-3.2218,-3.2218,-3.2218,-3.2218,-3.2218,-3.2218,-3.2218,-3.2218,-3.2218,-3.2218,-3.2218,-3.2218,-3.2218,-3.2218,0.0,0.0,0.0,-2.1749,0.0,0.0,0.0,0.0,-2.0681,0.0,0.0,0.0,0.0,0.0,-2.0623,-2.1573,0.0,0.0,0.0,0.0,0.0,0.0,0.0,0.0,0.0,0.0,0.0,-3.1043,-3.0971,-3.1604,-3.3234,-3.3324,-3.364,-3.4304,-3.4352,-3.4699,-3.5426,-3.6093,-3.644,-3.644,-3.7148,-3.751,-3.751,-3.748,-3.748,-3.748,-3.748,-3.748,-3.748,-3.748,-3.7496,-3.7512,-3.7285,-3.7225,-3.7353,-3.8209,-3.8508,-3.8508,-3.8508,-3.8508,-3.8508,-3.8508,-3.8508,-3.8508,-3.8508,-3.8508,-3.8508,-3.8508,-3.8523,-3.8539,-3.8506,-3.791,-3.7302,-3.7302,-3.7166,-3.6856,-3.6075,-3.6399,-3.6624,-3.5871,-3.571,-3.571,-3.571,-3.571,-3.571,-3.571,-3.571,-3.5506,-3.4897,-3.4816,-3.4599,-3.4002,-3.3457,-3.3142,-3.3101,-3.2572,-3.2232,-3.2218,-3.2218,-3.2218,-3.2218,-3.2218,-3.2218,-3.2218,-3.2218,-3.2218,-3.2218,-3.2218,-3.2218,-3.2218,-3.2218,-3.2218,0.0,0.0,-2.7981,-2.4123,0.0,0.0,0.0,0.0,0.0,0.0,0.0,0.0,0.0,0.0,-2.0498,-2.0922,-2.1066,0.0,0.0,0.0,0.0,0.0,0.0,0.0,0.0,0.0,0.0,-3.1043,-3.1924,-3.2698,0.0,-3.3309,-3.3403,-3.3625,-3.4067,-3.4415,-3.4668,-3.5379,-3.5963,-3.6393,-3.6629,-3.7022,-3.751,-3.751,-3.751,-3.751,-3.751,-3.751,-3.751,-3.751,-3.751,-3.748,-3.7284,-3.715,-3.7107,-3.725,-3.7389,-3.7499,-3.7499,-3.7421,-3.7311,-3.7311,-3.7264,-3.7169,-3.7169,-3.7169,-3.7169,-3.7169,-3.7507,-3.7734,-3.7165,-3.7166,-3.7188,-3.6617,-3.6115,-3.5651,-3.5368,-3.5097,-3.484,-3.4543,-3.4504,-3.4504,-3.4504,-3.4504,-3.4639,-3.5032,-3.4748,-3.4436,-3.4233,-3.4206,-3.3989,-3.343,-3.3224,-3.2938,-3.2544,-3.2327,-3.2218,-3.2218,-3.2218,-3.2218,-3.2218,-3.2218,-3.2218,-3.2218,-3.2218,-3.2218,-3.2218,-3.2218,-3.2218,-3.2218,-3.2218,-3.2218,-2.9401,-3.0197,0.0,-2.6559,-2.6588,0.0,-2.2805,0.0,0.0,0.0,0.0,0.0,0.0,0.0,0.0,-2.1543,-2.1029,-2.0669,0.0,-2.1579,0.0,0.0,0.0,0.0,0.0,0.0,-2.9341,-3.0969,-3.1675,-3.2395,0.0,0.0,-3.3309,-3.3309,-3.3719,-3.3941,-3.3941,-3.4636,-3.5221,-3.5651,-3.6156,-3.6629,-3.7117,-3.7399,-3.751,-3.751,-3.751,-3.751,-3.751,-3.751,-3.751,-3.748,-3.7284,-3.715,-3.7044,-3.6862,-3.6831,-3.6908,-3.6908,-3.677,-3.6631,-3.6631,-3.6569,-3.6492,-3.6492,-3.6492,-3.6538,-3.6784,-3.6999,-3.7089,-3.6804,-3.6869,-3.6872,-3.6367,-3.5875,-3.5432,-3.5145,-3.4683,-3.4276,-3.3946,-3.3908,-3.3908,-3.3908,-3.3731,-3.3799,-3.4395,-3.4151,-3.3826,-3.3623,-3.3634,-3.3403,-3.2843,-3.2789,-3.2626,-3.2246,-3.2218,-3.2218,-3.2218,-3.2218,-3.2218,-3.2218,-3.2218,-3.2218,-3.2218,-3.2218,-3.2218,-3.2218,-3.2218,-3.2218,-3.2218,-3.2218,-3.2218]},{"header":{"parameterUnit":"m.s-1","parameterCategory":1,"la1":30.6,"la2":29.2853,"lo1":-89.7004,"lo2":-87.6739,"dy":0.0162,"dx":0.0183,"nx":112,"ny":82,"refTime":"2023-08-09T12:00:00:Z","depth":0,"parameterNumber":3,"parameterNumberName":"V-component_of_WINDS"},"data":[0.0,0.0,0.0,0.0,0.0,0.0,0.0,0.0,0.0,0.0,0.0,0.0,0.0,0.0,0.0,0.0,0.0,0.0,0.0,0.0,0.0,0.0,0.0,0.0,0.0,0.0,0.0,0.0,0.0,0.0,0.0,0.0,0.0,0.0,0.0,0.0,0.0,0.0,0.0,0.0,0.0,0.0,0.0,0.0,0.0,0.0,0.0,0.0,0.0,0.0,0.0,0.0,0.0,0.0,0.0,0.0,0.0,0.0,0.0,0.0,0.0,0.0,0.0,0.0,0.0,0.0,0.0,0.0,0.0,0.0,0.0,0.0,0.0,0.0,0.0,0.0,0.0,0.0,0.0,0.0,0.0,0.0,0.0,0.0,0.0,0.0,0.0,0.0,0.0,0.0,0.0,-2.9388,-2.9523,-2.9634,-2.9696,-2.9634,-2.932,-2.87,0.0,0.0,0.0,0.0,0.0,0.0,0.0,0.0,0.0,0.0,0.0,0.0,0.0,0.0,0.0,0.0,0.0,0.0,0.0,0.0,0.0,0.0,0.0,0.0,0.0,0.0,0.0,0.0,0.0,0.0,0.0,0.0,0.0,0.0,0.0,0.0,0.0,0.0,0.0,0.0,0.0,0.0,0.0,0.0,0.0,0.0,0.0,0.0,0.0,0.0,0.0,0.0,0.0,0.0,0.0,0.0,0.0,0.0,0.0,0.0,0.0,0.0,0.0,0.0,0.0,0.0,0.0,0.0,0.0,0.0,0.0,0.0,0.0,0.0,0.0,0.0,0.0,0.0,0.0,0.0,0.0,0.0,0.0,0.0,0.0,0.0,0.0,0.0,0.0,0.0,0.0,0.0,0.0,0.0,0.0,0.0,0.0,0.0,0.0,0.0,0.0,0.0,0.0,0.0,-2.9694,-2.9738,-2.9652,-2.9758,-3.0174,-2.982,-2.9668,-2.9832,0.0,0.0,0.0,0.0,0.0,0.0,0.0,0.0,0.0,0.0,0.0,0.0,0.0,0.0,0.0,0.0,0.0,0.0,0.0,0.0,0.0,0.0,0.0,0.0,0.0,0.0,0.0,0.0,0.0,0.0,0.0,0.0,0.0,0.0,0.0,0.0,0.0,0.0,0.0,0.0,0.0,0.0,0.0,0.0,0.0,0.0,0.0,0.0,0.0,0.0,0.0,0.0,0.0,0.0,0.0,0.0,0.0,0.0,0.0,0.0,0.0,0.0,0.0,0.0,0.0,0.0,0.0,0.0,0.0,0.0,0.0,0.0,0.0,0.0,0.0,0.0,0.0,0.0,0.0,0.0,0.0,0.0,0.0,0.0,0.0,0.0,0.0,0.0,0.0,0.0,0.0,0.0,0.0,0.0,0.0,0.0,0.0,0.0,0.0,0.0,0.0,0.0,0.0,-3.0585,-3.0676,-3.0123,-2.9853,-2.9806,-3.0007,-2.9789,-2.9682,-2.9814,-2.915,0.0,0.0,0.0,0.0,0.0,0.0,0.0,0.0,0.0,0.0,0.0,0.0,0.0,0.0,0.0,0.0,0.0,0.0,0.0,0.0,0.0,0.0,0.0,0.0,0.0,0.0,0.0,0.0,0.0,0.0,0.0,0.0,0.0,0.0,0.0,0.0,0.0,0.0,0.0,0.0,0.0,0.0,0.0,0.0,0.0,0.0,0.0,0.0,0.0,0.0,0.0,0.0,0.0,0.0,0.0,0.0,0.0,0.0,0.0,0.0,0.0,0.0,0.0,0.0,0.0,0.0,0.0,0.0,0.0,0.0,0.0,0.0,0.0,0.0,0.0,0.0,0.0,0.0,0.0,0.0,0.0,0.0,0.0,0.0,0.0,0.0,0.0,0.0,0.0,0.0,0.0,0.0,0.0,0.0,0.0,0.0,0.0,0.0,0.0,0.0,0.0,0.0,-3.1405,-3.1167,-3.0391,-3.0038,-2.9915,-2.9976,-2.9775,-2.9828,-3.0228,-2.9748,0.0,0.0,0.0,0.0,0.0,0.0,0.0,0.0,0.0,0.0,0.0,0.0,0.0,0.0,0.0,0.0,0.0,0.0,0.0,0.0,0.0,0.0,0.0,0.0,0.0,0.0,0.0,0.0,0.0,0.0,0.0,0.0,0.0,0.0,0.0,0.0,0.0,0.0,0.0,0.0,0.0,0.0,0.0,0.0,0.0,0.0,0.0,0.0,0.0,0.0,0.0,0.0,0.0,0.0,0.0,0.0,0.0,0.0,0.0,0.0,0.0,0.0,0.0,0.0,0.0,0.0,0.0,0.0,0.0,0.0,0.0,0.0,0.0,0.0,0.0,0.0,0.0,0.0,0.0,0.0,0.0,0.0,0.0,0.0,0.0,0.0,0.0,0.0,0.0,0.0,0.0,0.0,0.0,0.0,0.0,0.0,0.0,0.0,0.0,0.0,0.0,0.0,-3.0996,-3.0253,-3.0282,-3.0158,-3.0203,-3.0507,-3.0068,-3.0485,-3.2101,-3.055,0.0,0.0,0.0,0.0,0.0,0.0,0.0,0.0,0.0,0.0,0.0,0.0,0.0,0.0,0.0,0.0,0.0,0.0,0.0,0.0,0.0,0.0,0.0,0.0,0.0,0.0,0.0,0.0,0.0,0.0,0.0,0.0,0.0,0.0,0.0,0.0,0.0,0.0,0.0,0.0,0.0,0.0,0.0,0.0,0.0,0.0,0.0,0.0,0.0,0.0,0.0,0.0,0.0,0.0,0.0,0.0,0.0,0.0,0.0,0.0,0.0,0.0,0.0,0.0,0.0,0.0,0.0,0.0,0.0,0.0,0.0,0.0,0.0,0.0,0.0,0.0,0.0,0.0,0.0,0.0,0.0,0.0,0.0,0.0,0.0,0.0,0.0,0.0,0.0,0.0,0.0,0.0,0.0,0.0,0.0,0.0,0.0,0.0,0.0,0.0,0.0,0.0,-3.1704,-3.1072,0.0,-3.0326,-3.0266,-3.0417,-3.0038,-3.0485,-3.2111,0.0,0.0,0.0,0.0,0.0,0.0,0.0,0.0,0.0,0.0,0.0,0.0,0.0,0.0,0.0,0.0,0.0,0.0,0.0,0.0,0.0,0.0,0.0,0.0,0.0,0.0,0.0,0.0,0.0,0.0,0.0,0.0,0.0,0.0,0.0,0.0,0.0,0.0,0.0,0.0,0.0,0.0,0.0,0.0,0.0,0.0,0.0,0.0,0.0,0.0,0.0,0.0,0.0,0.0,0.0,0.0,0.0,0.0,0.0,0.0,0.0,0.0,0.0,0.0,0.0,0.0,0.0,0.0,0.0,0.0,0.0,0.0,0.0,0.0,0.0,0.0,0.0,0.0,0.0,0.0,0.0,0.0,0.0,0.0,0.0,0.0,0.0,0.0,0.0,0.0,0.0,0.0,0.0,0.0,0.0,0.0,0.0,0.0,0.0,0.0,0.0,0.0,-3.2727,-3.1975,-3.1232,0.0,-3.0477,-3.0387,-3.0312,-3.0099,-3.0704,-3.2425,0.0,0.0,0.0,0.0,0.0,0.0,0.0,0.0,0.0,0.0,0.0,0.0,0.0,0.0,0.0,0.0,0.0,0.0,0.0,0.0,0.0,0.0,0.0,0.0,0.0,0.0,0.0,0.0,0.0,0.0,0.0,0.0,0.0,0.0,0.0,0.0,0.0,0.0,0.0,0.0,0.0,0.0,0.0,0.0,0.0,0.0,0.0,0.0,0.0,0.0,0.0,0.0,0.0,0.0,0.0,0.0,0.0,0.0,0.0,0.0,0.0,0.0,0.0,0.0,0.0,0.0,0.0,0.0,0.0,0.0,0.0,0.0,0.0,0.0,0.0,0.0,0.0,0.0,0.0,0.0,0.0,0.0,0.0,0.0,0.0,0.0,0.0,0.0,0.0,0.0,0.0,0.0,0.0,0.0,0.0,0.0,0.0,0.0,0.0,0.0,0.0,0.0,-3.3374,-3.163,-3.0387,-3.0568,-3.0598,-3.0507,-3.0312,-3.0282,-3.1215,0.0,0.0,0.0,0.0,0.0,0.0,0.0,0.0,0.0,0.0,0.0,0.0,0.0,0.0,0.0,0.0,0.0,0.0,0.0,0.0,0.0,0.0,0.0,0.0,0.0,0.0,0.0,0.0,0.0,0.0,0.0,0.0,0.0,0.0,0.0,0.0,0.0,0.0,0.0,0.0,0.0,0.0,0.0,0.0,0.0,0.0,0.0,0.0,0.0,0.0,0.0,0.0,0.0,0.0,0.0,0.0,0.0,0.0,0.0,0.0,0.0,0.0,0.0,0.0,0.0,0.0,0.0,0.0,0.0,0.0,0.0,0.0,0.0,0.0,0.0,0.0,0.0,0.0,0.0,0.0,0.0,0.0,0.0,0.0,0.0,0.0,0.0,0.0,0.0,0.0,0.0,0.0,0.0,0.0,0.0,0.0,0.0,0.0,0.0,0.0,0.0,0.0,0.0,-3.3517,-3.1799,-3.0477,-3.0417,-3.0507,-3.0507,-3.0312,-3.0219,-3.1129,-3.3425,0.0,0.0,0.0,0.0,0.0,0.0,0.0,0.0,0.0,0.0,0.0,0.0,0.0,0.0,0.0,0.0,0.0,0.0,0.0,0.0,0.0,0.0,0.0,0.0,0.0,0.0,0.0,0.0,0.0,0.0,0.0,0.0,0.0,0.0,0.0,0.0,0.0,0.0,0.0,0.0,0.0,0.0,0.0,0.0,0.0,0.0,0.0,0.0,0.0,0.0,0.0,0.0,0.0,0.0,0.0,0.0,0.0,0.0,0.0,0.0,0.0,0.0,0.0,0.0,0.0,0.0,0.0,0.0,0.0,0.0,0.0,0.0,0.0,0.0,0.0,0.0,0.0,0.0,0.0,0.0,0.0,0.0,0.0,0.0,0.0,0.0,0.0,0.0,0.0,0.0,0.0,0.0,0.0,0.0,0.0,0.0,0.0,0.0,0.0,0.0,0.0,0.0,-3.3684,-3.1868,-3.0538,-3.0447,-3.0538,-3.0507,-3.0312,-3.031,-3.1071,-3.2898,0.0,0.0,0.0,0.0,0.0,0.0,0.0,0.0,0.0,0.0,0.0,0.0,0.0,0.0,0.0,0.0,0.0,0.0,0.0,0.0,0.0,0.0,0.0,0.0,0.0,0.0,0.0,0.0,0.0,0.0,0.0,0.0,0.0,0.0,0.0,0.0,0.0,0.0,0.0,0.0,0.0,0.0,0.0,0.0,0.0,0.0,0.0,0.0,0.0,0.0,0.0,0.0,0.0,0.0,0.0,0.0,0.0,0.0,0.0,0.0,0.0,0.0,0.0,0.0,0.0,0.0,0.0,0.0,0.0,0.0,0.0,0.0,0.0,0.0,0.0,0.0,0.0,0.0,0.0,0.0,0.0,0.0,0.0,0.0,0.0,0.0,0.0,0.0,0.0,0.0,0.0,0.0,0.0,0.0,0.0,0.0,0.0,0.0,0.0,0.0,0.0,0.0,-3.3915,-3.2043,-3.0699,-3.0669,-3.0699,-3.0594,-3.0413,-3.0506,-3.0999,-3.2011,0.0,0.0,0.0,0.0,0.0,0.0,0.0,0.0,0.0,0.0,0.0,0.0,0.0,0.0,0.0,0.0,0.0,0.0,0.0,0.0,0.0,0.0,0.0,0.0,0.0,0.0,0.0,0.0,0.0,0.0,0.0,0.0,0.0,0.0,0.0,0.0,0.0,0.0,0.0,0.0,0.0,0.0,0.0,0.0,0.0,0.0,0.0,0.0,0.0,0.0,0.0,0.0,0.0,0.0,0.0,0.0,0.0,0.0,0.0,0.0,-2.8192,0.0,0.0,0.0,0.0,0.0,0.0,0.0,0.0,0.0,0.0,0.0,0.0,0.0,0.0,0.0,0.0,0.0,0.0,0.0,0.0,0.0,0.0,0.0,0.0,0.0,0.0,0.0,0.0,0.0,0.0,0.0,0.0,0.0,0.0,0.0,0.0,0.0,0.0,0.0,0.0,0.0,-3.4732,-3.2785,-3.1261,-3.1166,-3.1244,-3.1261,-3.1089,-3.0645,-3.0837,-3.1888,-3.2148,0.0,0.0,0.0,0.0,0.0,0.0,0.0,0.0,0.0,0.0,0.0,0.0,0.0,0.0,0.0,0.0,0.0,0.0,0.0,0.0,0.0,0.0,0.0,0.0,0.0,0.0,0.0,0.0,0.0,0.0,0.0,0.0,0.0,0.0,0.0,0.0,0.0,0.0,0.0,0.0,0.0,0.0,0.0,0.0,0.0,0.0,0.0,0.0,0.0,0.0,0.0,0.0,0.0,0.0,0.0,0.0,0.0,0.0,0.0,0.0,-2.875,0.0,0.0,0.0,0.0,0.0,0.0,0.0,0.0,0.0,0.0,0.0,0.0,0.0,0.0,0.0,0.0,0.0,0.0,0.0,0.0,0.0,0.0,0.0,0.0,0.0,0.0,0.0,0.0,0.0,0.0,0.0,0.0,0.0,0.0,0.0,0.0,0.0,0.0,0.0,0.0,-3.5551,-3.3487,-3.1942,-3.1893,-3.1942,-3.1942,-3.1798,-3.1224,-3.1095,-3.1575,-3.1792,0.0,0.0,0.0,0.0,0.0,0.0,0.0,0.0,0.0,0.0,0.0,0.0,0.0,0.0,0.0,0.0,0.0,0.0,0.0,0.0,0.0,0.0,0.0,0.0,0.0,0.0,0.0,0.0,0.0,0.0,0.0,0.0,0.0,0.0,0.0,0.0,0.0,0.0,0.0,0.0,0.0,0.0,0.0,0.0,0.0,0.0,0.0,0.0,0.0,0.0,0.0,0.0,0.0,-3.1831,-3.1849,-3.1849,-3.1849,-3.1783,-3.1587,-3.0481,-3.0038,-3.0133,0.0,0.0,0.0,0.0,0.0,0.0,0.0,0.0,0.0,0.0,0.0,0.0,0.0,0.0,0.0,0.0,0.0,0.0,0.0,0.0,0.0,0.0,0.0,0.0,0.0,-3.0719,-3.0615,0.0,0.0,0.0,0.0,0.0,0.0,0.0,0.0,0.0,0.0,0.0,0.0,-3.6068,-3.4088,-3.2687,-3.2687,-3.2687,-3.2622,-3.2511,-3.2014,-3.1606,-3.1478,-3.1693,-3.1977,0.0,0.0,0.0,0.0,0.0,0.0,0.0,0.0,0.0,0.0,0.0,0.0,0.0,0.0,0.0,0.0,0.0,0.0,0.0,0.0,0.0,0.0,0.0,0.0,0.0,0.0,0.0,0.0,0.0,0.0,0.0,0.0,-2.6253,-2.6136,0.0,0.0,0.0,0.0,0.0,0.0,0.0,0.0,0.0,0.0,0.0,0.0,0.0,-3.1839,-3.1896,-3.1797,-3.172,-3.172,-3.1616,-3.1563,-3.1563,-3.1563,-3.1541,-3.1528,-3.1338,0.0,-3.1633,-3.1738,0.0,0.0,0.0,0.0,0.0,0.0,0.0,0.0,0.0,0.0,0.0,0.0,0.0,0.0,0.0,0.0,0.0,0.0,0.0,0.0,0.0,0.0,-3.0808,-3.1293,-3.1364,-3.1375,0.0,-3.2169,-3.3061,-3.3858,-3.453,0.0,0.0,0.0,0.0,0.0,0.0,0.0,-3.5564,-3.425,-3.3373,-3.3373,-3.3373,-3.3373,-3.334,-3.2745,-3.2318,-3.219,-3.1791,-3.193,-3.2776,-3.2561,0.0,0.0,0.0,0.0,0.0,0.0,0.0,0.0,0.0,0.0,0.0,0.0,0.0,0.0,0.0,0.0,0.0,0.0,0.0,0.0,0.0,0.0,0.0,0.0,0.0,0.0,0.0,0.0,0.0,-2.6338,-2.718,-2.7859,-2.7963,-2.8249,0.0,0.0,0.0,0.0,0.0,0.0,0.0,0.0,0.0,-3.2288,-3.2288,-3.2416,-3.2678,-3.2622,-3.2615,-3.2582,-3.254,-3.2511,-3.2511,-3.2511,-3.2511,-3.2511,-3.2511,-3.2566,-3.2661,-3.2566,-3.2676,-3.2936,0.0,0.0,0.0,0.0,-3.3475,-3.3121,-3.2376,-3.1941,0.0,-3.2293,0.0,0.0,0.0,0.0,0.0,0.0,0.0,0.0,0.0,0.0,-3.199,-3.1584,-3.1485,-3.1485,-3.1485,-3.2127,-3.2886,0.0,-3.4758,-3.601,-3.7203,0.0,0.0,0.0,0.0,0.0,-3.5841,-3.4748,-3.4008,-3.4008,-3.4008,-3.4008,-3.4008,-3.3427,-3.305,-3.2985,-3.2344,-3.1999,-3.2094,-3.2411,-3.2909,0.0,0.0,0.0,0.0,0.0,0.0,0.0,0.0,0.0,0.0,0.0,0.0,0.0,0.0,0.0,0.0,0.0,0.0,0.0,0.0,0.0,0.0,0.0,0.0,0.0,0.0,0.0,0.0,-2.7375,-2.8006,-2.9012,-2.8923,-2.9037,0.0,0.0,0.0,0.0,0.0,0.0,-3.1928,-3.1927,-3.2168,-3.2749,-3.2793,-3.2954,-3.3312,-3.329,-3.329,-3.329,-3.329,-3.329,-3.329,-3.329,-3.329,-3.329,-3.329,-3.329,-3.3276,-3.3132,-3.3143,-3.3311,-3.406,-3.4412,-3.4492,-3.437,-3.4236,-3.3981,-3.3142,-3.275,-3.2667,-3.2967,0.0,-3.3577,-3.4179,0.0,0.0,0.0,0.0,-3.4268,-3.3207,-3.3002,-3.2872,-3.2146,-3.1963,-3.1963,-3.1963,-3.2629,-3.3186,0.0,-3.4314,-3.5697,-3.6757,0.0,0.0,0.0,0.0,-3.6168,-3.5716,-3.4916,-3.4414,-3.4414,-3.4414,-3.4414,-3.4414,-3.3978,-3.3736,-3.3736,-3.301,-3.2445,-3.2034,-3.2347,-3.2514,-3.2447,0.0,0.0,0.0,0.0,0.0,0.0,0.0,0.0,0.0,0.0,0.0,0.0,0.0,0.0,0.0,0.0,0.0,0.0,0.0,0.0,0.0,0.0,0.0,0.0,0.0,0.0,0.0,0.0,0.0,-2.8788,-2.9658,0.0,0.0,0.0,0.0,-3.1528,-3.1244,-3.1441,-3.2315,-3.2072,-3.2316,-3.3255,-3.3248,-3.329,-3.329,-3.329,-3.329,-3.329,-3.329,-3.329,-3.329,-3.329,-3.329,-3.329,-3.329,-3.329,-3.3312,-3.3276,-3.3508,-3.3866,-3.393,-3.4151,-3.4452,-3.407,-3.3561,-3.3007,-3.2573,-3.2064,-3.1721,-3.2698,-3.3682,-3.4355,-3.3442,-3.3932,0.0,0.0,-3.3184,-3.3086,-3.2582,-3.2444,-3.2551,-3.3087,-3.3192,-3.3192,-3.3192,-3.439,-3.4842,0.0,-3.2964,-3.3912,-3.544,0.0,-3.5814,-3.6183,-3.6153,-3.5701,-3.4624,-3.4433,-3.4414,-3.4414,-3.4414,-3.4414,-3.4414,-3.4385,-3.4356,-3.4356,-3.3775,-3.3431,-3.3402,-3.2227,-3.2049,-3.3036,-3.2609,0.0,0.0,0.0,0.0,0.0,0.0,0.0,0.0,0.0,0.0,0.0,0.0,0.0,0.0,0.0,0.0,0.0,0.0,0.0,0.0,0.0,0.0,0.0,0.0,0.0,0.0,0.0,0.0,-2.9798,-2.9919,0.0,0.0,-3.1002,-3.1452,-3.2071,-3.2116,-3.2258,-3.2587,-3.2746,-3.282,-3.2917,-3.3171,-3.3473,-3.388,-3.388,-3.4112,-3.4528,-3.4528,-3.4528,-3.4528,-3.4528,-3.4528,-3.4528,-3.4528,-3.4528,-3.4528,-3.4528,-3.4122,-3.3502,-3.3502,-3.3614,-3.3711,-3.3571,-3.3359,-3.3168,-3.3042,-3.2848,-3.2734,-3.3086,-3.3464,-3.3718,-3.3331,-3.3487,-3.3755,-3.335,-3.3245,-3.3202,-3.3022,-3.3002,-3.3045,-3.3234,-3.329,-3.329,-3.329,-3.3713,-3.3873,-3.3121,-3.4013,-3.5049,-3.5531,-3.5061,-3.491,-3.5782,-3.5398,-3.4832,-3.4283,-3.4312,-3.4414,-3.4414,-3.4414,-3.4414,-3.4414,-3.4414,-3.4414,-3.4414,-3.4196,-3.3891,-3.3518,-3.3053,-3.256,-3.2079,-3.2269,-3.3333,0.0,0.0,0.0,0.0,0.0,0.0,0.0,0.0,0.0,0.0,0.0,0.0,0.0,0.0,0.0,0.0,0.0,0.0,0.0,0.0,0.0,0.0,0.0,0.0,0.0,0.0,-3.0187,-3.0376,-3.0271,-3.0433,-3.1042,-3.1284,-3.1652,-3.2259,-3.2484,-3.2718,-3.3007,-3.3323,-3.352,-3.3542,-3.3822,-3.414,-3.4548,-3.4548,-3.4745,-3.5189,-3.5189,-3.5189,-3.5189,-3.5189,-3.5189,-3.5189,-3.5189,-3.5189,-3.5189,-3.5189,-3.4711,-3.3944,-3.3944,-3.3803,-3.3585,-3.3585,-3.3459,-3.329,-3.329,-3.329,-3.329,-3.329,-3.329,-3.329,-3.329,-3.329,-3.329,-3.329,-3.329,-3.329,-3.329,-3.3445,-3.3585,-3.3585,-3.3789,-3.3944,-3.3944,-3.3944,-3.3944,-3.3944,-3.4496,-3.4934,-3.4851,-3.4317,-3.4438,-3.5961,-3.5121,-3.4559,-3.5211,-3.4756,-3.4414,-3.4414,-3.4414,-3.4414,-3.4414,-3.5067,-3.5182,-3.4448,-3.5067,-3.499,-3.3837,-3.4277,-3.4001,-3.2838,-3.3189,-3.3833,-3.4726,0.0,0.0,0.0,0.0,0.0,0.0,0.0,0.0,0.0,0.0,0.0,0.0,0.0,0.0,0.0,0.0,0.0,0.0,0.0,0.0,0.0,0.0,0.0,-3.0385,-3.0594,-3.0652,-3.0444,-3.0774,-3.1103,-3.1308,-3.152,-3.1767,-3.2146,-3.2316,-3.2788,-3.3555,-3.3769,-3.4286,-3.5152,-3.5152,-3.5203,-3.5245,-3.5245,-3.5273,-3.5302,-3.5302,-3.5302,-3.5302,-3.5302,-3.5302,-3.5302,-3.5302,-3.5302,-3.5302,-3.5287,-3.5273,-3.5273,-3.5217,-3.4787,-3.4231,-3.4231,-3.3852,-3.3382,-3.3382,-3.3382,-3.3382,-3.3382,-3.3382,-3.3382,-3.3382,-3.3382,-3.3382,-3.3382,-3.3382,-3.3382,-3.3382,-3.3782,-3.4231,-3.4231,-3.4716,-3.5189,-3.5189,-3.5189,-3.5189,-3.5189,-3.4197,-3.3382,-3.3382,-3.3508,-3.4389,-3.6584,-3.5304,0.0,-3.7171,-3.5681,-3.4414,-3.4496,-3.4496,-3.4496,-3.4496,-3.6415,-3.6668,-3.4544,-3.6336,-3.6589,-3.4496,-3.5762,-3.6148,-3.5391,-3.531,-3.4695,-3.3496,0.0,0.0,0.0,0.0,0.0,0.0,0.0,0.0,0.0,0.0,0.0,0.0,0.0,0.0,0.0,0.0,0.0,0.0,0.0,0.0,0.0,0.0,-3.0612,-3.0601,-3.0798,-3.0916,-3.0855,-3.0923,-3.1312,-3.2031,-3.1883,-3.223,-3.3341,-3.3187,-3.3165,-3.3357,-3.3698,-3.4009,-3.4248,-3.454,-3.5272,-3.6473,-3.6525,-3.6975,-3.7889,-3.7889,-3.7889,-3.7889,-3.7889,-3.7889,-3.7889,-3.7889,-3.7889,-3.7847,-3.7344,-3.7147,-3.7021,-3.5709,-3.5091,-3.4936,-3.4936,-3.4837,-3.4683,-3.4683,-3.4683,-3.4683,-3.4683,-3.4683,-3.4683,-3.4683,-3.4683,-3.4683,-3.4683,-3.4683,-3.4683,-3.4683,-3.4809,-3.4936,-3.4936,-3.5062,-3.5189,-3.5189,-3.5189,-3.5189,-3.5189,-3.4922,-3.4683,-3.4683,-3.4425,-3.4476,-3.5088,-3.4468,0.0,-3.4829,-3.4506,-3.4771,-3.6319,-3.6636,-3.6715,-3.6715,-3.7249,-3.6668,-3.4544,-3.4938,-3.5019,-3.4414,-3.4795,-3.4897,-3.4602,-3.4727,-3.5059,0.0,0.0,0.0,0.0,0.0,0.0,0.0,0.0,0.0,0.0,0.0,0.0,0.0,0.0,0.0,0.0,0.0,0.0,0.0,0.0,0.0,0.0,-3.0726,-3.1146,-3.1146,-3.1066,-3.1065,-3.1313,-3.1352,-3.1638,-3.2434,-3.2306,-3.2528,-3.334,-3.341,-3.3516,-3.3674,-3.4366,-3.49,-3.5321,-3.5764,-3.6603,-3.7765,-3.7819,-3.8185,-3.8902,-3.8902,-3.8902,-3.8902,-3.8902,-3.8902,0.0,-3.8902,-3.8902,-3.8874,-3.8454,-3.8313,0.0,0.0,0.0,0.0,0.0,-3.5189,-3.5189,-3.5189,-3.5189,-3.5189,-3.5189,-3.5189,-3.5189,-3.5189,-3.5189,-3.5189,-3.5189,-3.5189,-3.5189,-3.5189,-3.5386,-3.5583,-3.5583,-3.5766,-3.5949,-3.5949,-3.5949,-3.5949,-3.5949,-3.5949,0.0,-3.5949,-3.5356,-3.5167,-3.6079,-3.5336,-3.4957,-3.5898,-3.5136,-3.4996,-3.6241,-3.6325,-3.6256,-3.6256,-3.7077,0.0,0.0,0.0,-3.5746,-3.5746,-3.5427,0.0,0.0,0.0,-3.5121,-3.4711,0.0,0.0,0.0,-3.5222,-3.5547,0.0,0.0,0.0,0.0,0.0,0.0,0.0,0.0,0.0,0.0,0.0,0.0,0.0,0.0,0.0,0.0,-3.1343,-3.1902,-3.1902,-3.1496,-3.1365,-3.1836,-3.1902,-3.2124,-3.2738,-3.279,-3.2842,-3.2973,-3.3483,-3.396,-3.4378,0.0,0.0,0.0,0.0,-3.8325,-3.9015,-3.9015,-3.9057,-3.9113,-3.9113,-3.9113,-3.9113,-3.9113,-3.9113,-3.9113,-3.9113,-3.9113,-3.9113,-3.9043,-3.8972,-3.879,-3.7678,-3.6905,-3.6356,-3.5808,-3.5611,-3.5611,-3.5611,0.0,0.0,-3.5527,-3.5498,-3.5484,-3.5414,-3.54,-3.54,-3.54,-3.54,-3.54,-3.54,-3.5808,-3.6216,-3.6216,-3.6624,-3.6978,-3.6978,-3.6978,-3.6978,-3.6978,-3.6978,-3.6978,-3.6978,-3.6137,-3.6107,-3.8027,-3.6783,-3.636,-3.8262,-3.6551,-3.5272,-3.5511,0.0,0.0,-3.4844,-3.654,-3.6668,-3.4544,-3.6209,-3.7249,-3.7249,-3.6554,-3.623,-3.6337,-3.6119,-3.4866,-3.2617,-3.2997,-3.2988,-3.2655,-3.4785,-3.5447,0.0,0.0,0.0,0.0,0.0,0.0,0.0,0.0,0.0,0.0,0.0,0.0,0.0,0.0,0.0,-3.1351,-3.2017,-3.2529,-3.2529,-3.2437,-3.2398,-3.2515,-3.2529,-3.2764,-3.3365,-3.3417,-3.3796,-3.4724,-3.4907,-3.5198,-3.5716,-3.5952,0.0,-3.7451,-3.7546,-3.8268,-3.9606,-3.9606,-3.9859,-4.0336,0.0,0.0,-4.0336,-4.0336,-4.0336,-4.0336,-4.0336,-4.0336,-4.0308,-3.9816,-3.9352,-3.8888,-3.8635,-3.8466,-3.8354,-3.8241,-3.8185,-3.8185,-3.8185,-3.8185,-3.81,-3.754,-3.7372,-3.7274,-3.6782,-3.6666,0.0,-3.6666,-3.6666,-3.6666,-3.6666,-3.6764,-3.681,-3.681,-3.6908,-3.6978,-3.6978,-3.6978,-3.6978,-3.6978,-3.6978,-3.6978,-3.6978,-3.6413,-3.6099,-3.653,-3.5838,-3.5512,-3.6079,-3.5798,-3.632,-3.8201,-3.8004,-3.7688,-3.7688,-3.7637,-3.6668,-3.4544,-3.479,-3.5019,-3.5019,-3.4868,-3.4795,-3.4828,-3.4324,-3.4008,-3.3929,-3.3021,-3.302,-3.3834,-3.3786,-3.3703,0.0,0.0,0.0,0.0,0.0,0.0,0.0,0.0,0.0,0.0,0.0,-3.0472,0.0,0.0,-3.1888,-3.2095,-3.2697,-3.3143,-3.3143,-3.3378,-3.3443,-3.3169,-3.3143,-3.3483,-3.4358,-3.445,-3.4789,-3.5639,-3.5704,-3.5822,-3.6083,-3.6397,-3.6981,-3.7921,-3.8233,-3.8878,-3.9883,-4.0419,-4.0713,-4.0803,-4.1401,-4.1643,-4.1629,-4.1306,-4.1151,-4.1137,-4.0828,-4.0702,-4.0674,-4.0364,-4.0055,-3.9788,-3.9788,-3.9451,-3.8902,-3.8902,-3.8902,-3.8902,-3.8902,-3.8902,-3.8846,-3.8496,-3.8383,-3.8327,-3.8058,-3.796,-3.796,-3.796,-3.796,-3.796,-3.796,-3.796,-3.796,-3.796,-3.796,-3.796,-3.796,-3.796,-3.796,-3.796,-3.7667,-3.7442,-3.7442,-3.6936,-3.6567,-3.6567,-3.63,-3.6141,-3.6217,-3.6136,-3.6547,-3.7816,-3.753,-3.7177,-3.6962,-3.6363,-3.5553,-3.4462,-3.4414,-3.4414,-3.4414,-3.4414,-3.4414,-3.4414,-3.4095,-3.3926,-3.3915,-3.3267,-3.2928,-3.2863,-3.2828,-3.2948,0.0,0.0,0.0,0.0,0.0,0.0,0.0,0.0,-2.971,-3.0186,-3.0806,-3.1336,-3.1602,-3.2123,-3.2579,-3.2817,-3.3365,-3.3744,-3.3744,-3.4123,-3.428,-3.3966,-3.3927,-3.428,-3.5208,-3.5391,-3.5678,-3.624,-3.6279,-3.6332,-3.6449,-3.692,-3.7611,-3.8577,-3.9077,-3.9611,-4.0178,-4.1135,-4.143,-4.1087,-4.2094,-4.2584,-4.2556,-4.2036,-4.1797,-4.1783,-4.1278,-4.1067,-4.1053,-4.0926,-4.087,-4.0856,-4.0744,-4.0097,-3.9268,-3.9268,-3.9268,-3.9268,-3.9268,-3.9268,-3.924,-3.9127,-3.9085,-3.9057,-3.8944,-3.8902,-3.8902,-3.8902,-3.8902,-3.8902,-3.8902,-3.8902,-3.8902,-3.8902,-3.8902,-3.8902,-3.8902,-3.8902,-3.8902,-3.8902,-3.844,-3.8088,-3.8088,-3.7569,-3.7133,-3.7007,-3.6978,-3.7017,-3.707,-3.6787,-3.668,-3.6905,-3.648,-3.6014,-3.5604,-3.4965,-3.4603,-3.4603,-3.4486,-3.4414,-3.4414,-3.4414,-3.4414,-3.4414,-3.4414,-3.4167,-3.3678,-3.3561,-3.3016,-3.2061,-3.2165,-3.2514,-2.8399,-2.8486,-2.8938,-2.9326,-2.9489,-2.9708,0.0,0.0,-3.1099,-3.1503,-3.2052,-3.25,-3.2567,-3.304,-3.3447,-3.351,-3.3953,-3.4306,-3.4306,-3.4358,-3.458,-3.5051,-3.5103,-3.5155,-3.5286,-3.573,-3.6253,-3.6854,-3.6907,-3.7142,-3.7678,-3.7769,-3.8234,-3.9261,-3.9341,-3.9865,-4.0865,-4.1485,-4.174,-4.1694,-4.2303,-4.2584,-4.2584,-4.25,-4.2472,-4.2472,-4.2402,-4.2374,-4.2331,-4.1741,-4.1516,-4.146,-4.0912,-4.0617,-4.0491,-4.0491,-4.0491,-4.0491,-4.0491,-4.0491,-4.0407,-3.9859,-3.9676,-3.9578,-3.9071,-3.8902,-3.8902,-3.8902,-3.8902,-3.8902,-3.8902,-3.8902,-3.8902,-3.8902,-3.8902,-3.8902,-3.8902,-3.8902,-3.8902,-3.8902,-3.8846,-3.8804,-3.8804,-3.8229,-3.7611,-3.7063,-3.6978,-3.707,-3.7226,-3.7246,-3.7357,-3.7715,-3.723,-3.6692,-3.6222,-3.5654,-3.529,-3.529,-3.4719,-3.4414,-3.4414,-3.4414,-3.4414,-3.4414,-3.4414,-3.4385,-3.4312,-3.3779,-3.3662,-3.3938,-3.2346,-3.1931,-2.9522,-2.9731,0.0,0.0,-3.0361,-3.0712,-3.1141,-3.1487,-3.1833,-3.2239,-3.2803,-3.3208,-3.3208,-3.3679,-3.4058,0.0,-3.4254,-3.4397,-3.4397,-3.4698,-3.5012,-3.5273,-3.5887,-3.6292,-3.6292,-3.6488,-3.6881,-3.7482,-3.7521,-3.7782,-3.8344,-3.837,-3.8852,-3.9901,-3.9914,-4.0127,-4.0569,-4.1408,-4.1865,-4.1912,-4.2782,-4.3347,-4.3638,-4.3273,-4.2921,-4.2584,-4.2584,-4.2584,-4.2556,-4.2289,-4.2177,-4.2149,-4.1896,-4.1797,-4.1699,-4.0969,-4.0702,-4.0702,-4.0702,-4.0702,-4.0659,-4.0407,-4.0308,-4.0266,-4.0013,-3.9929,-3.9929,-3.9929,-3.9929,-3.9929,-3.9929,-3.9929,-3.9929,-3.9929,-3.9929,-3.9929,-3.9929,-3.9929,-3.9929,-3.9929,-3.9634,-3.9436,-3.9436,-3.8916,-3.8243,-3.7611,-3.7203,-3.7017,-3.7109,-3.7148,-3.7226,-3.7495,-3.7218,-3.6915,-3.6714,-3.6215,-3.5784,-3.5421,-3.5145,-3.4806,-3.4428,-3.4414,-3.4414,-3.4414,-3.4414,-3.4414,-3.4414,-3.4153,-3.3951,-3.3803,-3.3019,-3.2783,-2.9851,0.0,0.0,-3.0657,-3.104,-3.1424,-3.1694,-3.2132,-3.2604,-3.2883,-3.3404,-3.3809,-3.3809,-3.4136,0.0,-3.4397,-3.4397,-3.445,-3.462,-3.5012,-3.5417,-3.573,-3.6502,-3.7063,-3.7233,-3.726,-3.7429,-3.7874,-3.8044,-3.8292,-3.8697,-3.8867,-3.9362,-4.0322,-4.0336,-4.0415,-4.0587,-4.1467,-4.2065,-4.227,-4.3156,-4.3899,-4.4397,-4.3947,-4.3512,-4.309,-4.309,-4.309,-4.3076,-4.2907,-4.2837,-4.2809,-4.264,-4.2584,-4.2472,-4.1559,-4.1109,-4.0926,-4.0758,-4.0702,-4.0702,-4.0702,-4.0702,-4.0702,-4.0702,-4.0702,-4.0702,-4.0702,-4.0702,-4.0702,-4.0702,-4.0702,-4.0702,-4.0702,-4.0702,-4.0702,-4.0702,-4.0702,-4.0702,-4.0702,-4.0336,-4.0041,-4.0041,-3.9563,-3.9,-3.8496,-3.7737,-3.7175,-3.7007,-3.707,-3.7148,-3.7264,-3.7263,-3.7253,-3.7253,-3.6845,-3.6388,-3.5959,-3.5595,-3.5189,-3.4704,-3.4501,-3.4414,-3.4414,-3.4414,-3.4414,-3.4414,-3.4414,-3.4182,-3.375,-3.359,-3.3454,0.0,0.0,-2.9968,-3.0924,-3.1466,-3.1927,-3.2529,-3.3118,-3.3562,-3.3561,-3.3992,-3.4371,-3.4371,-3.4384,-3.4397,-3.4397,-3.4397,-3.4607,-3.5195,-3.5286,-3.5704,-3.6828,-3.6985,-3.7233,0.0,-3.7874,-3.7887,-3.79,-3.8383,-3.8697,-3.871,-3.9259,-3.9834,-4.037,-4.0396,-4.0671,-4.1259,-4.1805,-4.236,-4.286,-4.3375,-4.3899,-4.4411,-4.4397,-4.4369,-4.4355,-4.4355,-4.4355,-4.4312,-4.3708,-4.3469,-4.3399,-4.2809,-4.2584,-4.2584,-4.2542,-4.2135,-4.1502,-4.0898,-4.0702,-4.0702,-4.0702,-4.0702,-4.0702,-4.0702,-4.0702,-4.0702,-4.0702,-4.0702,-4.0702,-4.0702,-4.0702,-4.0702,-4.0702,-4.0702,-4.0702,-4.0702,-4.0702,-4.0702,-4.0702,-4.0688,-4.0674,-4.0674,-4.0154,-3.9746,-3.9732,-3.8664,-3.7653,-3.7063,-3.7187,-3.7303,-3.7303,-3.7634,-3.7863,-3.7863,-3.7488,-3.7259,-3.7244,-3.6104,-3.5392,-3.5378,-3.4748,-3.4414,-3.4414,-3.4414,-3.4414,-3.4414,-3.4414,-3.4399,-3.437,-3.3779,-3.3489,0.0,0.0,-3.1404,-3.1582,-3.2318,-3.3051,-3.3247,-3.3731,-3.4123,-3.4123,-3.4579,-3.4926,-3.4926,-3.4926,-3.4926,-3.4926,-3.4644,-3.4607,-3.5221,-3.56,-3.6123,-3.692,-3.7351,0.0,0.0,0.0,0.0,-3.841,-3.8606,-3.9037,-3.9808,-4.003,-4.0409,-4.0997,-4.101,-4.1102,-4.1311,-4.1461,-4.1845,-4.2373,-4.3232,-4.3899,-4.4411,-4.4411,-4.4411,-4.4411,-4.4411,-4.4411,-4.4397,-4.4186,-4.4102,-4.4088,-4.3877,-4.3793,-4.375,-4.3329,-4.3048,-4.2767,-4.2163,-4.1938,-4.1938,-4.1938,-4.1657,-4.1306,-4.1306,-4.1025,-4.0702,-4.0702,-4.0702,-4.0702,-4.0702,-4.0702,-4.0702,-4.0702,-4.0702,-4.0702,-4.0702,-4.0702,-4.0702,-4.0702,-4.0702,-4.0702,-4.0702,-4.0519,-4.0252,-3.9845,-3.8707,-3.7681,-3.7063,-3.707,-3.7109,-3.7109,-3.7457,-3.7701,-3.7701,-3.7803,-3.7738,-3.7331,-3.6896,-3.6272,-3.5436,-3.5189,-3.4835,-3.4428,-3.4414,-3.4414,-3.4414,-3.4414,-3.4414,-3.4414,-3.4196,-3.4095,0.0,-3.1027,-3.1928,-3.2344,-3.3038,-3.3639,-3.3835,-3.4149,-3.4397,-3.4397,-3.4821,-3.5226,-3.5275,-3.5226,-3.5335,-3.5709,-3.5258,-3.5197,-3.603,-3.6418,-3.6791,-3.7284,-3.7665,0.0,0.0,0.0,0.0,-3.8684,-3.9089,-3.9638,-4.0383,-4.0618,-4.0919,-4.1311,-4.1311,-4.1311,-4.1311,-4.1311,-4.1547,-4.2128,-4.3122,-4.3804,-4.4101,-4.4317,-4.4411,-4.4411,-4.4411,-4.4411,-4.4411,-4.4411,-4.4411,-4.4411,-4.4411,-4.4411,-4.4355,-4.3961,-4.3821,-4.3694,-4.2865,-4.2584,-4.2584,-4.2584,-4.2303,-4.191,-4.1685,-4.1334,-4.0983,-4.0758,-4.0702,-4.0702,-4.0702,-4.0702,-4.0702,-4.0702,-4.0702,-4.0702,-4.0702,-4.0702,-4.0702,-4.0702,-4.0702,-4.0702,-4.0702,-4.0702,-4.0491,-3.9873,-3.8903,-3.8018,-3.7386,-3.7119,-3.7017,-3.7109,-3.738,-3.7625,-3.7701,-3.8028,-3.8028,-3.7651,-3.7433,-3.6925,-3.6098,-3.5639,-3.5203,-3.4762,-3.453,-3.4414,-3.4414,-3.4414,-3.4414,-3.4414,-3.4414,-3.4414,-3.111,-3.1224,-3.1644,-3.3225,-3.3613,-3.377,-3.428,-3.4397,-3.4426,-3.4441,-3.4848,-3.5297,0.0,0.0,-3.5569,-3.6595,-3.6208,-3.6147,-3.7368,-3.7536,-3.7621,0.0,0.0,0.0,0.0,0.0,0.0,-3.8762,0.0,-4.0422,-4.0461,-4.0997,-4.1311,-4.1311,-4.1311,-4.1311,-4.1311,-4.1311,-4.1547,-4.2128,-4.3074,-4.3553,-4.3553,-4.4115,-4.4317,-4.4364,-4.4364,-4.4364,-4.4411,-4.4411,-4.4411,-4.4411,-4.4411,-4.4411,-4.4411,-4.4411,-4.4411,-4.4242,-4.3076,-4.2669,-4.2669,-4.2669,-4.2654,-4.25,-4.1854,-4.1643,-4.1474,-4.087,-4.0702,-4.0702,-4.0702,-4.0702,-4.0702,-4.0702,-4.0702,-4.0702,-4.0702,-4.0702,-4.0702,-4.0702,-4.0702,-4.0702,-4.0702,-4.0702,-4.0505,-3.9915,-3.9324,-3.8677,-3.799,-3.7358,-3.707,-3.7264,-3.7457,-3.7701,-3.7891,-3.8104,-3.8202,-3.8202,-3.7665,-3.7346,-3.7302,-3.6162,-3.5465,-3.5392,-3.4777,-3.4443,-3.4414,-3.4414,-3.4414,-3.4414,-3.4414,-3.4414,-3.1175,-3.1757,-3.2501,-3.3406,-3.3901,-3.4228,-3.4358,-3.4397,-3.4502,-3.4913,-3.5394,-3.5935,0.0,0.0,0.0,-3.6421,-3.5523,0.0,-3.6338,-3.6497,0.0,0.0,0.0,-3.79,-3.79,-3.8802,0.0,0.0,-4.0017,-4.0618,-4.1063,-4.1232,-4.1311,-4.1311,-4.1311,-4.1311,-4.1311,-4.1311,-4.1547,-4.2079,-4.236,-4.2701,-4.3067,-4.3211,-4.3499,-4.3804,-4.3804,-4.4054,-4.4411,-4.4411,-4.4411,-4.4411,-4.4411,-4.4411,-4.4411,-4.4411,-4.4411,-4.4369,-4.4059,-4.3947,-4.3947,-4.3947,-4.3638,-4.3146,-4.2514,-4.1994,-4.1474,-4.087,-4.0702,-4.0702,-4.0702,-4.0702,-4.0702,-4.0702,-4.0702,-4.0702,-4.0702,-4.0702,-4.0702,-4.0702,-4.0702,-4.0702,-4.0702,-4.0702,-4.0645,-4.0491,-3.9591,-3.8677,-3.799,-3.7358,-3.707,-3.7264,-3.7457,-3.7701,-3.7891,-3.8104,-3.8202,-3.8202,-3.8057,-3.7781,-3.7331,-3.6983,-3.6359,-3.5421,-3.5232,-3.4893,-3.4414,-3.4414,-3.4414,-3.4414,-3.4414,-3.4414,-3.173,-3.2274,-3.2894,-3.3731,-3.4175,-3.4378,-3.4366,-3.454,-3.4846,-3.5106,-3.574,0.0,0.0,0.0,0.0,0.0,0.0,0.0,-3.6264,-3.6587,-3.6936,0.0,-3.7743,0.0,-3.79,-3.8932,-3.9612,0.0,-4.0357,-4.0958,-4.1298,-4.1311,-4.1311,-4.1311,-4.1311,-4.1311,-4.1311,-4.1311,-4.1461,-4.1746,-4.198,-4.2275,-4.2582,-4.2776,-4.3018,-4.3293,0.0,-4.3757,-4.4054,-4.4303,-4.4411,-4.4411,-4.4411,-4.4411,-4.4411,-4.4411,-4.4411,-4.4411,-4.4411,-4.4411,-4.4411,-4.4411,-4.4172,-4.3778,-4.3174,-4.2542,-4.191,-4.1278,-4.0898,-4.0702,-4.0702,-4.0702,-4.0772,-4.1039,-4.0898,-4.0772,-4.1039,-4.0898,-4.0702,-4.0702,-4.0702,-4.0702,-4.0702,-4.0702,-4.0702,-4.0702,-3.9648,-3.8775,-3.8369,-3.7619,-3.7226,-3.7419,-3.7625,-3.7801,-3.7991,-3.8142,-3.8202,-3.8202,-3.8202,-3.8057,-3.7709,-3.7447,-3.6954,-3.6264,-3.5683,-3.5218,-3.4835,-3.4545,-3.4414,-3.4414,-3.4414,-3.4414,-3.2449,-3.2751,-3.3064,-3.4136,-3.4397,-3.4413,-3.4443,-3.4837,-3.5235,-3.5311,0.0,-3.689,-3.742,0.0,-3.6974,-3.7794,0.0,-3.6438,-3.6584,-3.7069,-3.729,-3.7033,-3.7534,-3.79,-3.79,-3.8932,-3.9612,-3.9612,-4.0671,-4.1311,-4.1311,-4.1311,-4.1311,-4.1311,-4.1311,-4.1311,-4.1311,-4.1311,-4.1311,-4.1311,-4.1796,-4.198,-4.2029,-4.2484,-4.2741,-4.2838,0.0,0.0,-4.3553,-4.4021,-4.4223,-4.4303,-4.4303,-4.4364,-4.4411,-4.4411,-4.4411,-4.4411,-4.4411,-4.4411,-4.4411,-4.4411,-4.4411,-4.4298,-4.368,-4.3076,-4.2444,-4.1797,-4.1179,-4.0716,-4.08,-4.0814,-4.0969,-4.1601,-4.1278,-4.0969,-4.1502,-4.1137,-4.0702,-4.0702,-4.0702,-4.0702,-4.0702,-4.0702,-4.0702,-4.0702,-3.9648,-3.8902,-3.8902,-3.7924,-3.7341,-3.7586,-3.7777,-3.7967,-3.8165,-3.8202,-3.8202,-3.8202,-3.8202,-3.8202,-3.8202,-3.7709,-3.7389,-3.7302,-3.6235,-3.5566,-3.5392,-3.4806,-3.4501,-3.4414,-3.4414,-3.4414,-3.2516,-3.3051,-3.3587,-3.4241,-3.4397,-3.4546,-3.5093,-3.5304,0.0,0.0,0.0,-3.7138,-3.8054,-3.77,0.0,-3.756,0.0,0.0,0.0,0.0,-3.6524,0.0,0.0,0.0,0.0,0.0,0.0,0.0,0.0,-4.1311,-4.1311,-4.1311,-4.1311,-4.1311,-4.1311,-4.1311,-4.1311,-4.1311,-4.1311,-4.1311,-4.1411,-4.1461,-4.1461,-4.156,-4.1796,-4.2226,-4.2311,0.0,-4.3018,-4.3115,-4.3403,-4.3757,-4.3757,-4.4007,-4.4411,-4.4411,-4.4411,-4.4411,-4.4411,-4.4411,-4.4411,-4.4411,-4.4411,-4.4298,-4.368,-4.3076,-4.2444,-4.1797,-4.1179,-4.0814,-4.132,-4.1446,-4.1615,-4.2261,-4.1924,-4.1474,-4.1587,-4.1137,-4.0702,-4.0702,-4.0702,-4.0702,-4.0702,-4.0702,-4.0702,-4.0702,-3.9648,-3.8902,-3.8902,-3.7805,-3.7187,-3.7572,-3.7625,-3.7801,-3.8165,-3.8202,-3.8202,-3.8202,-3.8202,-3.8202,-3.8202,-3.8101,-3.781,-3.7317,-3.7085,-3.6446,-3.5392,-3.529,-3.4922,-3.4414,-3.4414,-3.4414,-3.2542,-3.313,-3.3718,-3.4267,-3.4397,-3.4564,-3.5189,0.0,0.0,0.0,0.0,-3.7107,-3.7801,0.0,0.0,0.0,0.0,0.0,0.0,0.0,0.0,0.0,0.0,0.0,0.0,0.0,0.0,0.0,0.0,0.0,-4.1311,-4.1311,-4.1311,-4.1311,-4.1311,-4.1311,-4.1311,-4.1311,-4.1311,-4.1311,-4.1311,-4.1311,-4.1311,-4.1311,-4.1461,-4.1696,-4.198,0.0,-4.2484,-4.2776,-4.3197,-4.36,-4.36,-4.396,-4.4411,-4.4411,-4.4411,-4.4411,-4.4411,-4.4411,-4.4411,-4.4411,-4.4411,-4.4355,-4.4059,-4.3329,-4.2584,-4.2584,-4.191,-4.132,-4.1952,-4.2121,-4.2275,-4.2907,-4.257,-4.2022,-4.1685,-4.1137,-4.0702,-4.0702,-4.0702,-4.0702,-4.0702,-4.0702,-4.0702,-4.0702,-3.9648,-3.8902,-3.8902,-3.7805,-3.7109,-3.7419,-3.7534,-3.7687,-3.7877,-3.7991,-3.8028,-3.8028,-3.8127,-3.8202,-3.8202,-3.8202,-3.8072,-3.7781,-3.7462,-3.6997,-3.6373,-3.5726,-3.5232,-3.4893,-3.4559,-3.4414,-3.2542,-3.3208,-3.3862,-3.4293,-3.4397,-3.4566,-3.5187,-3.5716,0.0,0.0,-3.6419,-3.6881,-3.7367,0.0,0.0,0.0,0.0,0.0,0.0,0.0,0.0,0.0,0.0,0.0,0.0,0.0,0.0,0.0,0.0,0.0,-4.1311,-4.1311,-4.1311,-4.1311,-4.1311,-4.1311,-4.1311,-4.1311,-4.1311,-4.1311,-4.1311,-4.1311,-4.1311,-4.1311,-4.1311,-4.1311,-4.1746,0.0,0.0,-4.2484,-4.3005,-4.3471,-4.3553,-4.396,-4.4411,-4.4411,-4.4411,-4.4411,-4.4411,-4.4411,-4.4364,-4.427,-4.4317,-4.4411,-4.4411,-4.3652,-4.2879,-4.3357,-4.2683,-4.1966,-4.2612,-4.2781,-4.2893,-4.3385,-4.3034,-4.2402,-4.1755,-4.1137,-4.0702,-4.0702,-4.0702,-4.0702,-4.0702,-4.0702,-4.0702,-4.0702,-3.9648,-3.8902,-3.8902,-3.7805,-3.707,-3.7226,-3.7419,-3.7534,-3.7625,-3.7777,-3.7891,-3.7891,-3.8104,-3.8202,-3.8202,-3.8202,-3.8202,-3.8202,-3.7738,-3.7433,-3.7302,-3.6286,-3.5668,-3.5392,-3.4849,-3.4545,-3.258,-3.3496,-3.4332,-3.4384,-3.4397,-3.4593,-3.5299,0.0,0.0,0.0,-3.6249,-3.6476,-3.7193,-3.7579,0.0,0.0,0.0,0.0,0.0,0.0,0.0,0.0,0.0,0.0,0.0,0.0,0.0,0.0,0.0,0.0,-4.1311,-4.1311,-4.1311,-4.1311,-4.1311,-4.1311,-4.1311,-4.1311,-4.1311,-4.1311,-4.1311,-4.1311,-4.1311,-4.1311,-4.1311,-4.1311,-4.1361,0.0,0.0,-4.1931,-4.2484,-4.3032,-4.3423,-4.396,-4.4411,-4.4411,-4.4411,-4.4411,-4.4411,-4.4411,-4.4317,-4.3851,-4.4007,-4.4411,-4.4411,-4.3947,-4.3427,-4.3469,-4.302,-4.264,-4.3259,-4.3413,-4.3427,-4.3483,-4.3034,-4.2402,-4.1755,-4.1137,-4.0702,-4.0702,-4.0702,-4.0702,-4.0702,-4.0702,-4.0702,-4.0702,-3.9648,-3.8902,-3.8902,-3.7805,-3.7017,-3.7017,-3.7226,-3.738,-3.7586,-3.7777,-3.7891,-3.7891,-3.8104,-3.8202,-3.8202,-3.8202,-3.8202,-3.8202,-3.8144,-3.7854,-3.7302,-3.7186,-3.6519,-3.5392,-3.5334,-3.4965,-3.2501,-3.3488,-3.4389,-3.4733,-3.4861,-3.5068,-3.5756,0.0,0.0,-3.5818,-3.5841,-3.6052,-3.6812,-3.7268,-3.7895,0.0,0.0,0.0,0.0,0.0,0.0,0.0,0.0,0.0,0.0,0.0,0.0,0.0,0.0,0.0,0.0,-4.1311,-4.1311,-4.1311,-4.1311,-4.1311,-4.1311,-4.1311,-4.1311,-4.1311,-4.1311,-4.1311,-4.1311,-4.1311,-4.1311,-4.1311,-4.1311,0.0,0.0,-4.2029,-4.2555,-4.3328,-4.3505,-4.396,-4.4411,-4.4411,-4.4209,-4.396,-4.4317,-4.4209,-4.3899,-4.3648,-4.396,-4.4364,-4.4007,-4.3729,-4.3582,-4.3947,-4.361,-4.3273,-4.3891,-4.4045,-4.4045,-4.4045,-4.3287,-4.2514,-4.2247,-4.1404,-4.0702,-4.0702,-4.0702,-4.0702,-4.0702,-4.0702,-4.0702,-4.0702,-3.9648,-3.8902,-3.8902,-3.7805,-3.6978,-3.6978,-3.707,-3.7187,-3.738,-3.7625,-3.7777,-3.7891,-3.8104,-3.8202,-3.8202,-3.8202,-3.8202,-3.8202,-3.8202,-3.8086,-3.7839,-3.7491,-3.6838,-3.5923,-3.5581,-3.5058,-3.2213,-3.333,-3.4353,-3.4939,-3.5148,-3.5346,0.0,0.0,0.0,-3.5428,-3.5391,-3.5596,-3.631,-3.6886,-3.7661,0.0,0.0,0.0,0.0,0.0,0.0,0.0,0.0,0.0,0.0,0.0,0.0,0.0,0.0,0.0,0.0,-4.1311,-4.1311,-4.1311,-4.1311,-4.1311,-4.1311,-4.1311,-4.1311,-4.1311,-4.1311,-4.1311,-4.1311,-4.1311,-4.1311,-4.1311,0.0,0.0,0.0,-4.219,-4.2763,-4.3423,-4.3553,-4.3851,-4.4162,-4.4035,-4.3737,-4.3423,-4.3832,-4.3737,-4.3375,-4.3375,-4.3723,-4.4101,-4.3695,-4.3667,-4.3849,-4.4284,-4.4102,-4.3863,-4.4298,-4.4411,-4.4369,-4.4186,-4.3343,-4.2528,-4.2331,-4.146,-4.0702,-4.0702,-4.0702,-4.0702,-4.0702,-4.0702,-4.0631,-4.0449,-3.9577,-3.8846,-3.8649,-3.7653,-3.6978,-3.6978,-3.6978,-3.707,-3.7187,-3.738,-3.7625,-3.7815,-3.7991,-3.8127,-3.8202,-3.8202,-3.8202,-3.8202,-3.8202,-3.8202,-3.8202,-3.7781,-3.7244,-3.6591,-3.5952,-3.5198,-3.1782,-3.3129,-3.4353,-3.4939,-3.5148,-3.5218,0.0,0.0,0.0,-3.4906,-3.4916,-3.5083,-3.5704,-3.6514,-3.7393,-3.8269,-3.9131,0.0,0.0,0.0,0.0,0.0,0.0,0.0,0.0,0.0,0.0,0.0,0.0,0.0,0.0,-4.1311,-4.1311,-4.1311,-4.1311,-4.1311,-4.1311,-4.1311,-4.1311,-4.1311,-4.1311,-4.1311,-4.1311,-4.1311,-4.1311,0.0,0.0,0.0,0.0,-4.2449,-4.2887,-4.2935,-4.3423,-4.36,-4.3553,-4.3067,-4.2887,-4.2887,-4.2887,-4.2887,-4.2887,-4.2887,-4.3245,-4.36,-4.36,-4.396,-4.4397,-4.4411,-4.4411,-4.4397,-4.4411,-4.4411,-4.4256,-4.3652,-4.3034,-4.2402,-4.1755,-4.1137,-4.0702,-4.0702,-4.0702,-4.0702,-4.0702,-4.0702,-4.0491,-3.9887,-3.931,-3.8677,-3.799,-3.7372,-3.6978,-3.6978,-3.6978,-3.6978,-3.6978,-3.7187,-3.738,-3.7586,-3.7777,-3.8005,-3.8202,-3.8202,-3.8202,-3.8202,-3.8202,-3.8202,-3.8202,-3.8188,-3.7883,-3.7288,-3.6606,-3.5619,-3.1013,-3.1862,-3.2605,-3.314,-3.3812,-3.4408,-3.4523,0.0,0.0,-3.5148,-3.5088,-3.5226,-3.5835,-3.6713,-3.7594,-3.8294,-3.9294,0.0,0.0,0.0,0.0,0.0,0.0,0.0,0.0,0.0,0.0,0.0,0.0,0.0,0.0,-4.1311,-4.1311,-4.1311,-4.1311,-4.1311,-4.1311,-4.1311,-4.1311,-4.1311,-4.1311,-4.1311,-4.1311,-4.1311,0.0,0.0,0.0,0.0,0.0,-4.2226,-4.2582,-4.2935,-4.3067,-4.3115,-4.3115,-4.2935,-4.2679,-4.2435,-4.279,-4.2887,-4.2887,-4.2887,-4.3451,-4.4054,-4.3695,-4.396,-4.4411,-4.4411,-4.4411,-4.4411,-4.4411,-4.4411,-4.4256,-4.3638,-4.3034,-4.2402,-4.1755,-4.1137,-4.0702,-4.0702,-4.0702,-4.0702,-4.0702,-4.0702,-4.0491,-3.9873,-3.931,-3.8677,-3.799,-3.7358,-3.6978,-3.6978,-3.6978,-3.707,-3.7187,-3.738,-3.7586,-3.7777,-3.7991,-3.8127,-3.8202,-3.8202,-3.8202,-3.8202,-3.8202,-3.8202,-3.8202,-3.8202,-3.7651,-3.6606,-3.5967,-3.5212,0.0,-3.1215,-3.1894,-3.2414,-3.3331,0.0,0.0,0.0,0.0,-3.5354,-3.5268,-3.5285,-3.568,-3.6701,-3.761,-3.8003,-3.9211,0.0,0.0,0.0,0.0,0.0,0.0,0.0,0.0,0.0,0.0,0.0,0.0,0.0,0.0,-4.1193,-4.1311,-4.1311,-4.1311,-4.1311,-4.1311,-4.1311,-4.1311,-4.1311,-4.1311,-4.1311,-4.1311,-4.1311,0.0,0.0,0.0,0.0,0.0,-4.2029,-4.2275,-4.2582,-4.2582,-4.2582,-4.2582,-4.2387,-4.2092,-4.1845,-4.2204,-4.2435,-4.2631,-4.2838,-4.3608,-4.4364,-4.4007,-4.4162,-4.4411,-4.4411,-4.4411,-4.4411,-4.4411,-4.4242,-4.3919,-4.3287,-4.2669,-4.205,-4.1404,-4.0969,-4.0702,-4.0702,-4.0702,-4.0702,-4.0702,-4.0505,-4.0154,-3.9563,-3.8944,-3.8271,-3.7639,-3.7217,-3.6978,-3.6978,-3.6978,-3.707,-3.7187,-3.738,-3.7625,-3.7891,-3.8028,-3.8142,-3.8202,-3.8202,-3.8202,-3.8202,-3.8202,-3.8202,-3.8202,-3.8202,-3.7549,-3.6301,-3.5894,-3.5256,0.0,0.0,0.0,0.0,0.0,0.0,0.0,0.0,0.0,0.0,0.0,-3.5291,-3.5314,-3.652,-3.7509,-3.7509,0.0,0.0,0.0,0.0,0.0,0.0,0.0,0.0,0.0,0.0,0.0,0.0,0.0,0.0,0.0,-4.0932,-4.1246,-4.1295,-4.1298,-4.1311,-4.1311,-4.1311,-4.1311,-4.1311,-4.1311,-4.1311,-4.1311,-4.1311,0.0,0.0,0.0,0.0,0.0,-4.1845,-4.2029,-4.2029,-4.2029,-4.2029,-4.198,-4.1461,-4.1311,-4.1311,-4.1311,-4.1696,-4.2226,-4.2825,-4.3655,-4.4411,-4.4411,-4.4411,-4.4411,-4.4411,-4.4411,-4.4397,-4.4355,-4.3919,-4.3329,-4.2669,-4.205,-4.1446,-4.0828,-4.0702,-4.0702,-4.0702,-4.0702,-4.0702,-4.0702,-4.0196,-3.9578,-3.9,-3.8313,-3.7681,-3.7063,-3.6978,-3.6978,-3.6978,-3.6978,-3.7017,-3.7017,-3.7187,-3.7457,-3.7853,-3.7891,-3.8005,-3.8202,-3.8202,-3.8202,-3.8202,-3.8202,-3.8202,-3.8202,-3.8202,-3.7549,-3.6301,-3.6301,-3.5633,-2.9273,0.0,-3.0226,-3.0253,0.0,0.0,0.0,0.0,0.0,0.0,0.0,0.0,0.0,0.0,0.0,0.0,0.0,0.0,0.0,0.0,0.0,0.0,0.0,0.0,0.0,0.0,0.0,0.0,0.0,0.0,0.0,-4.0513,-4.0779,-4.1218,-4.1274,-4.1311,-4.1311,-4.1311,-4.1311,-4.1311,-4.1311,-4.1311,-4.1311,-4.1311,0.0,0.0,0.0,0.0,-4.1311,-4.1461,-4.1511,-4.1511,-4.1511,-4.1511,-4.1461,-4.1361,-4.1311,-4.1311,-4.1311,-4.1895,-4.2873,-4.3751,-4.4223,-4.4411,-4.4411,-4.4411,-4.4411,-4.4411,-4.4411,-4.4298,-4.3835,-4.361,-4.3216,-4.2107,-4.1727,-4.1446,-4.0828,-4.0702,-4.0702,-4.0702,-4.0702,-4.0702,-4.0702,-4.0196,-3.9578,-3.9,-3.8313,-3.7681,-3.7063,-3.6978,-3.6978,-3.6978,-3.6978,-3.707,-3.7226,-3.7264,-3.7419,-3.7663,-3.7815,-3.8005,-3.8202,-3.8202,-3.8202,-3.8202,-3.8202,-3.8202,-3.8202,-3.8202,-3.7549,-3.6301,-3.6301,-3.5633,-2.8996,-2.9547,-2.9786,-2.9697,-3.1011,-3.2351,0.0,0.0,0.0,0.0,0.0,0.0,0.0,0.0,0.0,0.0,0.0,0.0,0.0,0.0,0.0,0.0,0.0,0.0,0.0,0.0,0.0,0.0,0.0,0.0,0.0,-4.029,-4.0465,-4.0765,-4.0601,-4.0788,-4.1311,-4.1311,-4.1311,-4.1311,-4.1311,-4.1311,-4.1311,-4.1311,-4.1311,0.0,0.0,0.0,-4.1311,-4.1311,-4.1311,-4.1311,-4.1311,-4.1311,-4.1311,-4.1311,-4.1311,-4.1337,-4.1592,-4.2202,-4.2982,-4.3526,-4.3703,-4.3703,-4.3703,-4.3879,-4.4054,-4.4317,-4.4214,-4.3919,-4.3582,-4.3062,-4.2458,-4.1769,-4.1404,-4.1109,-4.0772,-4.0702,-4.0702,-4.0702,-4.0702,-4.0702,-4.0702,-3.9957,-3.9296,-3.8958,-3.8074,-3.7358,-3.7021,-3.6978,-3.6978,-3.6978,-3.6978,-3.7017,-3.7148,-3.7148,-3.7303,-3.7586,-3.7701,-3.7853,-3.8066,-3.8066,-3.8104,-3.8202,-3.8202,-3.8202,-3.8202,-3.8202,-3.7549,-3.6301,-3.6301,-3.5633,-2.8923,-2.963,-2.9923,-2.9907,-3.1169,-3.2459,-3.2674,0.0,0.0,0.0,0.0,0.0,0.0,0.0,0.0,0.0,0.0,0.0,0.0,0.0,0.0,0.0,0.0,0.0,0.0,0.0,0.0,0.0,0.0,0.0,0.0,-4.0193,-4.0294,-4.0402,-4.0023,-4.0263,-4.1235,-4.1178,-4.1219,-4.1311,-4.1311,-4.1311,-4.1311,-4.1311,-4.1311,0.0,0.0,0.0,-4.1311,-4.1311,-4.1311,-4.1311,-4.1311,-4.1311,-4.1311,-4.1311,-4.1311,-4.1387,-4.2021,-4.2529,-4.289,-4.2962,-4.2984,-4.2887,-4.2887,-4.3177,-4.3571,-4.4022,-4.3845,-4.3455,-4.3259,-4.2416,-4.1587,-4.1488,-4.1081,-4.0702,-4.0702,-4.0702,-4.0702,-4.0702,-4.0702,-4.0674,-4.0575,-3.962,-3.8874,-3.8775,-3.7763,-3.6978,-3.6978,-3.6978,-3.6978,-3.6978,-3.6978,-3.6978,-3.6978,-3.6978,-3.7148,-3.7495,-3.7586,-3.7687,-3.7929,-3.7929,-3.8028,-3.8202,-3.8202,-3.8202,-3.8202,-3.8202,-3.7549,-3.6301,-3.6301,-3.5633,-2.9067,-2.9753,-3.0042,-2.999,-3.1214,-3.2482,-3.2785,0.0,0.0,0.0,0.0,0.0,0.0,0.0,0.0,0.0,0.0,0.0,0.0,0.0,0.0,0.0,0.0,0.0,0.0,0.0,0.0,0.0,0.0,0.0,0.0,0.0,-4.0355,-4.0803,-4.0779,-4.0884,-4.1059,-4.0694,-4.0814,-4.1311,-4.1311,-4.1311,-4.1311,-4.1311,-4.1311,0.0,0.0,-4.1311,-4.1311,-4.1311,-4.1311,-4.1311,-4.1311,-4.1311,-4.1311,-4.1311,-4.1311,-4.1448,-4.2425,-4.2821,-4.2978,-4.3334,-4.3197,-4.2887,-4.2887,-4.289,-4.2841,-4.2934,-4.3217,-4.3245,-4.2177,-4.1755,-4.1474,-4.0969,-4.0772,-4.0702,-4.0702,-4.0702,-4.0702,-4.0702,-4.0702,-4.0533,-4.0013,-3.938,-3.8719,-3.8131,-3.7442,-3.6978,-3.6978,-3.6978,-3.6978,-3.6978,-3.6978,-3.6978,-3.6978,-3.6978,-3.7017,-3.7109,-3.7419,-3.7763,-3.8127,-3.8165,-3.8165,-3.8202,-3.8202,-3.8202,-3.8202,-3.8202,-3.7549,-3.6301,-3.6301,-3.5633,-2.9179,-2.9695,-2.9896,-2.9727,-3.0923,-3.2305,-3.3013,0.0,0.0,0.0,0.0,0.0,0.0,0.0,0.0,0.0,0.0,0.0,0.0,0.0,0.0,0.0,0.0,0.0,0.0,0.0,0.0,0.0,0.0,0.0,0.0,0.0,-4.0145,-4.0393,-4.0195,-4.0209,-4.0521,-4.0314,-4.0534,-4.1146,-4.1223,-4.1235,-4.1248,-4.1267,-4.1311,-4.1311,0.0,-4.1311,-4.1311,-4.1311,-4.1311,-4.1311,-4.1311,-4.1461,-4.1746,-4.2043,-4.2337,-4.257,-4.2825,-4.2881,-4.29,-4.2811,-4.2242,-4.1599,-4.1904,-4.1917,-4.1827,-4.1755,-4.2067,-4.2345,-4.1755,-4.1376,-4.1039,-4.0772,-4.0702,-4.0702,-4.0702,-4.0702,-4.0702,-4.0702,-4.0435,-4.0112,-3.9831,-3.8988,-3.8243,-3.7948,-3.7386,-3.6978,-3.6978,-3.6978,-3.6978,-3.6978,-3.6978,-3.6978,-3.6978,-3.6978,-3.707,-3.7148,-3.7419,-3.7725,-3.8028,-3.8127,-3.8202,-3.8202,-3.8202,-3.8202,-3.8202,-3.7883,-3.723,-3.6301,-3.5967,-3.5299,-2.9259,-2.9671,-2.9871,-2.9858,0.0,-3.2214,-3.2841,0.0,0.0,0.0,0.0,0.0,0.0,0.0,0.0,0.0,0.0,0.0,0.0,0.0,0.0,0.0,0.0,0.0,0.0,0.0,0.0,0.0,0.0,0.0,0.0,0.0,-4.017,-4.017,-3.9821,-3.982,-4.0257,-4.0257,-4.0504,-4.099,-4.1106,-4.1143,-4.1157,-4.1187,-4.1317,-4.1449,-4.1301,-4.1379,-4.1461,-4.1361,-4.1361,-4.1511,-4.1511,-4.1796,-4.2324,-4.2736,-4.3182,-4.3524,-4.3038,-4.2798,-4.2639,-4.2212,-4.1272,-4.0456,-4.1,-4.1106,-4.1014,-4.0938,-4.1135,-4.1404,-4.1404,-4.1053,-4.0702,-4.0702,-4.0702,-4.0702,-4.0702,-4.0702,-4.0702,-4.0702,-4.0196,-3.9746,-3.9592,-3.8636,-3.785,-3.7709,-3.7288,-3.6978,-3.6978,-3.6978,-3.6978,-3.6978,-3.6978,-3.6978,-3.6978,-3.6978,-3.7109,-3.7341,-3.7457,-3.7663,-3.7891,-3.8066,-3.8165,-3.8202,-3.8202,-3.8202,-3.8202,-3.7593,-3.6968,-3.6301,-3.5697,-3.5058,-2.9281,-2.9783,-3.0279,-3.1067,-3.1849,0.0,-3.1908,-3.2899,0.0,-3.5236,0.0,0.0,0.0,0.0,0.0,0.0,0.0,0.0,0.0,0.0,0.0,0.0,0.0,0.0,0.0,0.0,0.0,0.0,0.0,0.0,0.0,0.0,0.0,-4.0659,-4.0616,-4.063,-4.0672,-4.0672,-4.0778,-4.0976,-4.103,-4.0997,-4.0997,-4.1038,-4.1315,-4.1828,-4.1411,-4.1524,-4.198,-4.1511,-4.1597,-4.2029,-4.2029,-4.2387,-4.2873,-4.2903,-4.3184,-4.3533,-4.3047,-4.2528,-4.2032,-4.1924,-4.12,-4.04,-4.0857,-4.0973,-4.0914,-4.0918,-4.0829,-4.0758,-4.0758,-4.073,-4.0702,-4.0702,-4.0702,-4.0702,-4.0702,-4.0702,-4.0702,-4.0702,-4.0196,-3.9606,-3.9071,-3.8355,-3.7709,-3.7133,-3.7021,-3.6978,-3.6978,-3.6978,-3.6978,-3.6978,-3.6978,-3.6978,-3.6978,-3.6978,-3.7187,-3.7534,-3.7419,-3.7495,-3.7891,-3.7891,-3.7991,-3.8202,-3.8202,-3.8202,-3.8202,-3.7593,-3.6968,-3.6301,-3.5697,-3.5058,-2.9483,-2.9566,-2.9773,-3.0662,-3.1571,0.0,0.0,-3.3115,-3.3545,-3.5185,0.0,0.0,0.0,0.0,0.0,0.0,0.0,0.0,0.0,0.0,0.0,0.0,0.0,0.0,0.0,0.0,0.0,0.0,0.0,0.0,0.0,0.0,0.0,-4.0702,-4.0702,-4.0702,-4.0702,-4.0702,-4.0754,-4.0819,-4.0907,-4.0964,-4.0918,-4.0952,-4.1144,-4.1314,-4.1127,-4.1214,-4.1382,-4.1191,-4.1248,-4.1463,-4.1781,-4.2029,-4.2263,-4.2593,-4.2593,-4.2482,-4.2287,-4.1871,-4.1455,-4.1408,-4.0862,-4.027,-4.0754,-4.0673,-4.0399,-4.0705,-4.0755,-4.0702,-4.0702,-4.0702,-4.0702,-4.0702,-4.0702,-4.0702,-4.0702,-4.0702,-4.0589,-4.0196,-3.9634,-3.9057,-3.8369,-3.7751,-3.7245,-3.7021,-3.6978,-3.6978,-3.6978,-3.6978,-3.6978,-3.6978,-3.6978,-3.6978,-3.6978,-3.6978,-3.707,-3.7226,-3.738,-3.7687,-3.8066,-3.8104,-3.8127,-3.8202,-3.8202,-3.8028,-3.7651,-3.6997,-3.6344,-3.5706,-3.5067,-3.4646,-2.9358,-2.9352,-2.9457,0.0,0.0,0.0,-3.3206,-3.2884,-3.2947,0.0,0.0,0.0,0.0,0.0,0.0,0.0,0.0,0.0,0.0,0.0,0.0,0.0,0.0,0.0,0.0,0.0,0.0,0.0,0.0,0.0,0.0,0.0,0.0,0.0,-4.0702,-4.0702,-4.0702,-4.0702,-4.0702,-4.0702,-4.0789,-4.0822,-4.0836,-4.0866,-4.1018,-4.1197,-4.1027,-4.109,-4.1235,-4.1052,-4.1086,-4.1317,-4.1823,-4.2039,-4.2098,-4.2452,-4.2376,-4.2046,-4.185,-4.1453,-4.1027,-4.1027,-4.0604,-4.0144,-4.0675,-4.056,-4.03,-4.0616,-4.0702,-4.0702,-4.0702,-4.0702,-4.0702,-4.0702,-4.0702,-4.0702,-4.0702,-4.0547,-4.028,-3.9859,-3.9128,-3.8466,-3.7976,-3.7386,-3.6978,-3.6978,-3.6978,-3.6978,-3.6978,-3.6978,-3.6978,-3.6978,-3.6978,-3.6978,-3.6978,-3.6978,-3.7017,-3.7109,-3.7341,-3.7649,-3.7901,-3.7901,-3.7938,-3.8014,-3.8066,-3.78,-3.7192,-3.6599,-3.5981,-3.5378,-3.4704,-3.4414,-2.8801,-2.9083,-2.9446,0.0,0.0,0.0,0.0,0.0,0.0,0.0,0.0,0.0,0.0,0.0,0.0,0.0,0.0,0.0,0.0,0.0,0.0,0.0,0.0,0.0,0.0,0.0,0.0,0.0,0.0,0.0,0.0,0.0,0.0,0.0,-4.0702,-4.0702,-4.0702,-4.0702,-4.0702,-4.0702,-4.0702,-4.0702,-4.0702,-4.0702,-4.1039,-4.1571,-4.1099,-4.1221,-4.1759,-4.1214,-4.1295,-4.186,-4.2385,-4.2572,-4.2556,-4.2575,-4.257,-4.2511,-4.1973,-4.1391,-4.0893,-4.089,-4.0476,-4.0083,-4.0573,-4.0702,-4.0702,-4.0702,-4.0702,-4.0702,-4.0702,-4.0702,-4.0702,-4.0702,-4.0702,-4.0702,-4.0702,-4.0224,-3.9788,-3.9788,-3.8777,-3.7906,-3.7906,-3.7386,-3.6993,-3.6978,-3.6978,-3.6978,-3.6978,-3.6978,-3.6978,-3.6978,-3.6978,-3.6978,-3.6978,-3.6978,-3.7109,-3.7264,-3.7303,-3.7303,-3.7303,-3.7303,-3.738,-3.7625,-3.7777,-3.7575,-3.6993,-3.6512,-3.5967,-3.5378,-3.4704,-3.4414,-2.9462,-2.9131,0.0,0.0,0.0,0.0,0.0,0.0,0.0,0.0,0.0,0.0,0.0,0.0,0.0,0.0,0.0,0.0,0.0,0.0,0.0,0.0,0.0,0.0,0.0,0.0,0.0,0.0,0.0,0.0,0.0,0.0,0.0,0.0,-4.0702,-4.0702,-4.0702,-4.0702,-4.0702,-4.0702,-4.0702,-4.0702,-4.0702,-4.0702,-4.08,-4.0969,-4.081,-4.0864,-4.1032,-4.0866,-4.0907,-4.1042,-4.1221,-4.1252,-4.1266,-4.1279,-4.1032,-4.0769,-4.0578,-4.0424,-4.0272,-4.0286,-4.038,-4.053,-4.0659,-4.0702,-4.0702,-4.0702,-4.0702,-4.0702,-4.0702,-4.0702,-4.0702,-4.0702,-4.0702,-4.0702,-4.0702,-4.0561,-4.0308,-3.9859,-3.9479,-3.8945,-3.8046,-3.7751,-3.7484,-3.7049,-3.6978,-3.6978,-3.6978,-3.6978,-3.6978,-3.6978,-3.6978,-3.6978,-3.6978,-3.6978,-3.7017,-3.7109,-3.7109,-3.7226,-3.7495,-3.7495,-3.7534,-3.7625,-3.722,-3.6802,-3.6302,-3.5725,-3.521,-3.469,-3.4501,-3.4414,-2.9008,0.0,0.0,0.0,0.0,0.0,0.0,0.0,0.0,0.0,0.0,0.0,0.0,0.0,0.0,0.0,0.0,0.0,0.0,0.0,0.0,0.0,0.0,0.0,0.0,0.0,0.0,0.0,0.0,0.0,0.0,0.0,0.0,0.0,-4.0575,-4.0702,-4.0702,-4.0702,-4.0702,-4.0702,-4.0702,-4.0702,-4.0702,-4.0702,-4.0702,-4.0702,-4.0702,-4.0702,-4.0702,-4.0702,-4.0702,-4.0702,-4.0702,-4.0702,-4.0702,-4.0702,-4.053,-4.0257,-4.0257,-4.0257,-4.0257,-4.0257,-4.0487,-4.0702,-4.0702,-4.0702,-4.0702,-4.0702,-4.0702,-4.0702,-4.0702,-4.0702,-4.0702,-4.0702,-4.0702,-4.0702,-4.0702,-4.0505,-4.0224,-3.9859,-3.9381,-3.8791,-3.8032,-3.7695,-3.7414,-3.7035,-3.6978,-3.6978,-3.6978,-3.6978,-3.6978,-3.6978,-3.6978,-3.6978,-3.6978,-3.6978,-3.6978,-3.6978,-3.6978,-3.7109,-3.7341,-3.7341,-3.7341,-3.7341,-3.6935,-3.6442,-3.587,-3.5416,-3.492,-3.4414,-3.4414,-3.4414,0.0,0.0,0.0,0.0,0.0,0.0,0.0,0.0,0.0,0.0,0.0,0.0,0.0,0.0,0.0,0.0,0.0,0.0,0.0,0.0,0.0,0.0,0.0,0.0,0.0,0.0,0.0,0.0,0.0,0.0,0.0,0.0,0.0,0.0,-4.0238,-4.0561,-4.0617,-4.0518,-4.0503,0.0,-4.0559,-4.0559,-4.0559,-4.0659,-4.0702,-4.0702,-4.0702,-4.0702,-4.0702,-4.0702,-4.0702,-4.0702,-4.0702,-4.0702,-4.0702,-4.0702,-4.0702,-4.0702,-4.0702,-4.0702,-4.0702,-4.0702,-4.0702,-4.0702,-4.0702,-4.0702,-4.0702,-4.0702,-4.0702,-4.0702,-4.0702,-4.0702,-4.0702,-4.0702,-4.0702,-4.0702,-4.0702,-4.0224,-3.9788,-3.9788,-3.8805,-3.7962,-3.7906,-3.7442,-3.7049,-3.6993,-3.6978,-3.6978,-3.6978,-3.6978,-3.6978,-3.6978,-3.6978,-3.6978,-3.6978,-3.6978,-3.6978,-3.6978,-3.6978,-3.6978,-3.6978,-3.6978,-3.695,-3.6908,-3.6684,-3.6259,-3.5631,-3.5379,-3.498,-3.4414,-3.4414,-3.4414,0.0,0.0,0.0,0.0,0.0,0.0,0.0,0.0,0.0,0.0,0.0,0.0,0.0,0.0,0.0,0.0,0.0,0.0,0.0,0.0,0.0,0.0,0.0,0.0,0.0,0.0,0.0,0.0,0.0,0.0,0.0,0.0,0.0,-3.9099,-3.924,-3.9535,-3.9971,-3.9193,-3.9068,0.0,-3.9533,-3.9533,-3.9533,-4.0329,-4.0702,-4.0702,-4.0702,-4.0702,-4.0702,-4.0702,-4.0702,-4.0702,-4.0702,-4.0702,-4.0702,-4.0702,-4.0702,-4.0702,-4.0702,-4.0702,-4.0702,-4.0702,-4.0702,-4.0702,-4.0702,-4.0702,-4.0702,-4.0702,-4.0702,-4.0702,-4.0702,-4.0702,-4.0702,-4.0702,-4.0702,-4.0702,-4.0702,-4.0224,-3.9788,-3.9788,-3.9226,-3.8496,-3.799,-3.7793,-3.754,-3.7063,-3.6978,-3.6978,-3.6978,-3.6978,-3.6978,-3.6978,-3.6978,-3.6978,-3.6978,-3.6978,-3.6978,-3.6978,-3.6978,-3.6978,-3.6978,-3.6978,-3.6768,-3.6314,-3.5784,-3.5348,-3.4989,-3.4466,-3.4286,-3.4414,-3.4414,-3.4414,0.0,0.0,0.0,0.0,0.0,0.0,0.0,0.0,0.0,0.0,0.0,0.0,0.0,0.0,0.0,0.0,0.0,0.0,0.0,0.0,0.0,0.0,0.0,0.0,0.0,0.0,0.0,0.0,0.0,0.0,0.0,-3.7467,-3.7977,-3.8397,-3.8747,-3.9057,-3.938,-3.8852,-3.8512,-3.8399,-3.8857,-3.9041,-3.9112,-4.0193,-4.0702,-4.0702,-4.0702,-4.0702,-4.0702,-4.0702,-4.0702,-4.0702,-4.0702,-4.0702,-4.0702,-4.0702,-4.0702,-4.0702,-4.0702,-4.0702,-4.0702,-4.0702,-4.0702,-4.0702,-4.0702,-4.0702,-4.0702,-4.0702,-4.0702,-4.0631,-4.0336,-4.0266,-4.0196,-3.9901,-4.0041,-4.0266,-4.0266,-3.9788,-3.938,-3.938,-3.8874,-3.8299,-3.7962,-3.7653,-3.7358,-3.7035,-3.6978,-3.6978,-3.6978,-3.6978,-3.6978,-3.6978,-3.6978,-3.6978,-3.6978,-3.6978,-3.6978,-3.6978,-3.6978,-3.6978,-3.6978,-3.6978,-3.6736,-3.6117,-3.5661,-3.5222,-3.4789,-3.437,-3.421,-3.4414,-3.4414,-3.4414,0.0,0.0,0.0,0.0,0.0,0.0,0.0,0.0,0.0,0.0,0.0,0.0,0.0,0.0,0.0,0.0,0.0,0.0,0.0,0.0,0.0,0.0,0.0,0.0,0.0,0.0,0.0,0.0,0.0,0.0,-3.5413,-3.5912,-3.6511,-3.7269,-3.7824,-3.8158,-3.8269,-3.8104,-3.7701,-3.7037,-3.7978,-3.8601,-3.8944,-3.9915,-4.0449,-4.0547,-4.0645,-4.0702,-4.0702,-4.0702,-4.0702,-4.0702,-4.0702,-4.0702,-4.0702,-4.0702,-4.0702,-4.0702,-4.0702,-4.0702,-4.0702,-4.0702,-4.0631,-4.0533,-4.0533,-4.0463,-4.0378,-4.0378,-4.0378,-4.0266,-3.9746,-3.962,-3.9535,-3.9029,-3.9211,-3.9493,-3.9606,-3.9183,-3.8733,-3.8733,-3.8187,-3.7737,-3.7737,-3.7316,-3.6978,-3.6978,-3.6978,-3.6978,-3.6978,-3.6978,-3.6978,-3.6978,-3.6978,-3.6978,-3.6978,-3.6978,-3.6978,-3.6978,-3.6978,-3.6978,-3.6978,-3.688,-3.6581,-3.5963,-3.5716,-3.5288,-3.4583,-3.4367,-3.4278,-3.4346,-3.4346,-3.438,0.0,0.0,0.0,0.0,0.0,0.0,0.0,0.0,0.0,0.0,0.0,0.0,0.0,0.0,0.0,0.0,0.0,0.0,0.0,0.0,0.0,0.0,0.0,0.0,0.0,0.0,0.0,0.0,0.0,0.0,-3.443,-3.4551,-3.4673,-3.4797,-3.4876,-3.5209,-3.578,-3.4908,-3.4659,-3.5073,-3.6044,-3.7333,-3.8916,-3.9085,-3.9451,-3.9929,-4.0463,-4.0702,-4.0702,-4.0702,-4.0702,-4.0702,-4.0702,-4.0702,-4.0702,-4.0702,-4.0702,-4.0702,-4.0702,-4.0702,-4.0702,-4.0702,-4.0336,-3.9901,-3.9901,-3.9577,-3.9155,-3.9155,-3.9155,-3.9127,-3.9057,-3.9029,-3.9015,-3.893,-3.8496,-3.8299,-3.8902,-3.8482,-3.8032,-3.8032,-3.7526,-3.7105,-3.7105,-3.7035,-3.6978,-3.6978,-3.6978,-3.6978,-3.6978,-3.6978,-3.6978,-3.6978,-3.6978,-3.6978,-3.6978,-3.6978,-3.6978,-3.6978,-3.6978,-3.6978,-3.6978,-3.6511,-3.5949,-3.533,-3.5268,-3.4772,-3.3768,-3.3717,-3.3868,-3.4128,-3.4128,-3.423,0.0,0.0,0.0,0.0,0.0,0.0,0.0,0.0,0.0,0.0,0.0,0.0,0.0,0.0,0.0,0.0,0.0,0.0,0.0,0.0,0.0,0.0,0.0,0.0,0.0,0.0,0.0,0.0,0.0,-3.2661,-3.3522,-3.3564,-3.3817,-3.4293,-3.4306,-3.4437,-3.474,-3.4288,-3.4191,-3.4465,-3.3884,-3.4577,-3.6319,-3.6182,-3.727,-3.9324,-3.9605,-3.9676,-3.9676,-3.9676,-3.9676,-3.9676,-3.9676,-3.9676,-3.9676,-3.9676,-3.9676,-3.9676,-3.9676,-3.9676,-3.9676,-3.9676,-3.9535,-3.931,-3.931,-3.9127,-3.8902,-3.8902,-3.8902,-3.8818,-3.8466,-3.8327,-3.8243,-3.7932,-3.7597,-3.747,-3.7791,-3.7583,-3.7386,-3.7386,-3.7161,-3.6978,-3.6978,-3.6978,-3.6978,-3.6978,-3.6978,-3.6978,-3.6978,-3.6978,-3.6978,-3.6978,-3.6978,-3.6978,-3.6978,-3.6978,-3.6978,-3.6978,-3.6978,-3.6978,-3.6978,-3.6427,-3.5822,-3.5203,-3.5034,-3.4569,-3.3793,-3.3951,-3.4108,-3.4264,-3.4264,-3.4312,0.0,0.0,0.0,0.0,0.0,0.0,0.0,0.0,0.0,0.0,0.0,0.0,0.0,0.0,0.0,0.0,0.0,0.0,0.0,0.0,0.0,0.0,0.0,0.0,0.0,0.0,0.0,0.0,0.0,-3.1855,-3.2605,-3.2649,-3.2993,-3.3606,-3.3649,-3.3649,-3.3649,-3.3649,-3.3775,-3.393,-3.2661,-3.2821,-3.4277,-3.4071,-3.5365,-3.7744,-3.8324,-3.8683,-3.8902,-3.8902,-3.8779,-3.8546,-3.882,-3.8765,-3.8546,-3.8546,-3.8546,-3.8504,-3.8283,-3.838,-3.8546,-3.8546,-3.8571,-3.8663,-3.8663,-3.855,-3.8424,-3.8424,-3.8424,-3.8311,-3.7793,-3.7667,-3.7555,-3.7091,-3.6978,-3.6978,-3.6978,-3.6978,-3.6978,-3.6978,-3.6978,-3.6978,-3.6978,-3.6978,-3.6978,-3.6978,-3.6978,-3.6978,-3.6978,-3.6978,-3.6978,-3.6978,-3.6978,-3.6978,-3.6978,-3.6978,-3.6978,-3.6978,-3.6978,-3.6908,-3.6768,-3.6202,-3.5583,-3.4978,-3.4647,-3.4249,-3.3744,-3.4005,-3.4142,-3.421,-3.421,-3.4244,0.0,0.0,0.0,0.0,0.0,0.0,0.0,0.0,0.0,0.0,0.0,0.0,0.0,0.0,0.0,0.0,0.0,0.0,0.0,0.0,0.0,0.0,0.0,0.0,0.0,0.0,0.0,0.0,0.0,-3.1175,-3.1725,-3.1749,-3.1793,-3.1837,-3.1837,-3.1837,-3.1837,-3.1837,-3.2239,-3.3066,-3.2993,-3.3395,-3.4306,-3.429,-3.4358,-3.4658,-3.668,-3.8103,-3.8902,-3.8902,-3.8366,-3.7657,-3.8546,-3.8366,-3.7559,-3.7559,-3.7559,-3.7433,-3.6621,-3.6879,-3.7559,-3.7559,-3.7731,-3.7948,-3.7948,-3.754,-3.7077,-3.7077,-3.7077,-3.7077,-3.7035,-3.7035,-3.7021,-3.6993,-3.6978,-3.6978,-3.6978,-3.6978,-3.6978,-3.6978,-3.6978,-3.6978,-3.6978,-3.6978,-3.6978,-3.6978,-3.6978,-3.6978,-3.6978,-3.6978,-3.6978,-3.6978,-3.6978,-3.6978,-3.6978,-3.6978,-3.6978,-3.6978,-3.6978,-3.6764,-3.6174,-3.5569,-3.495,-3.4259,-3.3854,-3.3564,-3.3326,-3.3361,-3.3466,-3.364,-3.364,-3.3799,0.0,0.0,0.0,0.0,0.0,0.0,0.0,0.0,0.0,0.0,0.0,0.0,0.0,0.0,0.0,0.0,0.0,0.0,0.0,0.0,0.0,0.0,0.0,0.0,0.0,0.0,0.0,0.0,0.0,0.0,-3.0639,-3.1019,-3.1199,-3.1199,-3.1536,-3.1705,-3.1705,-3.1705,-3.1881,-3.2164,-3.2164,-3.2326,-3.2618,-3.2618,-3.295,-3.3505,-3.4285,-3.5102,-3.595,-3.595,-3.573,-3.548,-3.5826,-3.6129,-3.6334,-3.6334,-3.6715,-3.7132,-3.6836,-3.6931,-3.7172,-3.7172,-3.7233,-3.7316,-3.7316,-3.7161,-3.6978,-3.6978,-3.6978,-3.6978,-3.6978,-3.6978,-3.6978,-3.6978,-3.6978,-3.6978,-3.6978,-3.6978,-3.6978,-3.6978,-3.6978,-3.6978,-3.6978,-3.6978,-3.6978,-3.6978,-3.6978,-3.6978,-3.6978,-3.6978,-3.6978,-3.6978,-3.6978,-3.6978,-3.6978,-3.6978,-3.6978,-3.6978,-3.6978,-3.675,-3.6131,-3.5513,-3.4857,-3.4217,-3.367,-3.3431,-3.3501,-3.3605,-3.3709,-3.3793,-3.3793,-3.3848,0.0,0.0,0.0,0.0,0.0,0.0,0.0,0.0,0.0,0.0,0.0,0.0,0.0,0.0,0.0,0.0,0.0,0.0,0.0,0.0,0.0,0.0,0.0,0.0,0.0,0.0,0.0,0.0,0.0,0.0,-3.0074,-3.0422,-3.0645,-3.0645,-3.1163,-3.144,-3.144,-3.1621,-3.1705,-3.1705,-3.1705,-3.1705,-3.1705,-3.1705,-3.2001,-3.2575,-3.2575,-3.3237,-3.4306,-3.4306,-3.4306,-3.4347,-3.4637,-3.5156,-3.5655,-3.5359,-3.5776,-3.6494,-3.5856,-3.5856,-3.6149,-3.6441,-3.6362,-3.6149,-3.648,-3.6573,-3.6573,-3.6573,-3.6769,-3.6978,-3.6978,-3.6978,-3.6978,-3.6978,-3.6978,-3.6978,-3.6978,-3.6978,-3.6978,-3.6978,-3.6978,-3.6978,-3.6978,-3.6978,-3.6978,-3.6978,-3.6978,-3.6978,-3.6978,-3.6978,-3.6978,-3.6978,-3.6978,-3.6978,-3.6978,-3.6978,-3.6978,-3.6978,-3.6796,-3.6455,-3.5798,-3.5217,-3.4562,-3.3908,-3.3487,-3.3361,-3.3501,-3.364,-3.3709,-3.3709,-3.3709,-3.3793,0.0,0.0,0.0,0.0,0.0,0.0,0.0,0.0,0.0,0.0,0.0,0.0,0.0,0.0,0.0,0.0,0.0,0.0,0.0,0.0,0.0,0.0,0.0,0.0,0.0,0.0,0.0,0.0,0.0,-2.929,-3.0013,-3.0062,-3.0074,-3.0086,-3.0579,-3.0898,-3.0898,-3.1428,-3.1681,-3.1681,-3.1705,-3.1705,-3.1705,-3.1705,-3.1705,-3.1705,-3.1705,-3.2661,-3.4223,-3.4223,-3.4223,-3.4306,-3.5237,-3.5588,-3.5494,-3.4609,-3.4856,-3.5413,-3.3649,-3.3606,-3.443,-3.5359,-3.502,-3.4472,-3.5359,-3.5669,-3.5669,-3.5669,-3.6282,-3.6978,-3.6978,-3.6978,-3.6978,-3.6978,-3.6978,-3.6978,-3.6978,-3.6978,-3.6978,-3.6978,-3.6978,-3.6978,-3.6978,-3.6978,-3.6978,-3.6978,-3.6978,-3.6978,-3.6978,-3.6978,-3.6978,-3.6978,-3.6978,-3.6978,-3.6978,-3.6978,-3.6978,-3.6978,-3.6441,-3.585,-3.5222,-3.454,-3.3922,-3.329,-3.329,-3.329,-3.329,-3.329,-3.329,-3.329,-3.329,-3.3501,-3.1846,0.0,0.0,0.0,0.0,0.0,0.0,0.0,0.0,0.0,0.0,0.0,0.0,0.0,0.0,0.0,0.0,0.0,0.0,0.0,0.0,0.0,0.0,0.0,0.0,0.0,0.0,0.0,-2.8214,-2.8273,-2.8508,-2.9017,-2.9564,-3.0074,-3.023,-3.0302,-3.0302,-3.0874,-3.1139,-3.1139,-3.1524,-3.1705,-3.1705,-3.1705,-3.1705,-3.1705,-3.1705,-3.1957,-3.2413,-3.2413,-3.2413,-3.2457,-3.2704,-3.3207,-3.3746,-3.345,-3.3943,-3.4609,-3.4098,-3.4098,-3.4347,-3.4596,-3.4513,-3.4347,-3.4609,-3.4692,-3.4692,-3.4692,-3.5359,-3.6203,-3.6822,-3.6978,-3.6978,-3.6978,-3.6978,-3.6978,-3.6978,-3.6978,-3.6978,-3.6978,-3.6978,-3.6978,-3.6978,-3.6978,-3.6978,-3.6978,-3.6978,-3.6978,-3.6978,-3.6978,-3.6978,-3.6978,-3.6978,-3.6978,-3.6978,-3.6978,-3.6978,-3.6978,-3.6441,-3.5836,-3.5231,-3.4562,-3.3922,-3.329,-3.329,-3.329,-3.329,-3.329,-3.329,-3.329,-3.329,-3.3361,0.0,0.0,0.0,0.0,0.0,0.0,0.0,-3.096,0.0,0.0,0.0,0.0,0.0,0.0,0.0,0.0,0.0,0.0,0.0,0.0,0.0,0.0,0.0,0.0,0.0,0.0,0.0,-2.7748,-2.7841,-2.7921,-2.803,-2.8355,-2.8744,-2.9177,-2.9475,-2.9624,-2.9624,-3.0236,-3.0585,-3.0555,-3.0898,-3.1163,-3.138,-3.138,-3.15,-3.1705,-3.1705,-3.1705,-3.1705,-3.1705,-3.1913,-3.2239,-3.2239,-3.2778,-3.3479,-3.3109,-3.3564,-3.4264,-3.3888,-3.3775,-3.3817,-3.4181,-3.3804,-3.328,-3.3649,-3.4014,-3.4306,-3.4306,-3.5237,-3.6362,-3.6861,-3.6978,-3.6978,-3.6978,-3.6978,-3.6978,-3.6978,-3.6978,-3.6978,-3.6978,-3.6978,-3.6978,-3.6978,-3.6978,-3.6978,-3.6978,-3.6978,-3.6978,-3.6978,-3.6978,-3.6978,-3.6978,-3.6978,-3.6978,-3.6978,-3.6978,-3.6866,-3.6652,-3.6061,-3.5456,-3.4801,-3.4183,-3.3655,-3.329,-3.329,-3.329,-3.329,-3.329,-3.329,-3.329,-3.329,-3.3361,0.0,0.0,0.0,0.0,0.0,0.0,-3.2018,-3.1092,-3.0071,0.0,0.0,0.0,0.0,0.0,0.0,0.0,0.0,0.0,0.0,0.0,0.0,0.0,0.0,0.0,0.0,-2.6795,-2.7111,-2.7348,-2.7684,-2.7921,-2.8099,-2.799,-2.7933,-2.7921,-2.8602,-2.8951,-2.8951,-2.9642,-3.0001,-3.0001,-3.002,-3.0284,-3.074,-3.074,-3.1004,-3.1492,-3.1553,-3.1577,-3.1621,-3.1681,-3.2164,-3.2864,-3.2864,-3.3322,-3.393,-3.3152,-3.3365,-3.3888,-3.3109,-3.2864,-3.2993,-3.3775,-3.2938,-3.1825,-3.2618,-3.3395,-3.4014,-3.4139,-3.5305,-3.6573,-3.6691,-3.6691,-3.673,-3.6822,-3.6861,-3.6861,-3.6978,-3.6978,-3.6978,-3.6978,-3.6978,-3.6978,-3.6978,-3.6978,-3.6978,-3.6978,-3.6978,-3.6978,-3.6978,-3.6978,-3.6978,-3.6978,-3.6978,-3.6978,-3.6978,-3.6922,-3.6694,-3.6131,-3.547,-3.4801,-3.4217,-3.3613,-3.329,-3.329,-3.329,-3.329,-3.329,-3.329,-3.329,-3.329,-3.329,-3.3396,0.0,0.0,0.0,0.0,0.0,0.0,-3.406,-3.3056,-3.2049,0.0,0.0,0.0,0.0,0.0,0.0,0.0,0.0,0.0,0.0,0.0,0.0,0.0,0.0,0.0,0.0,-2.5957,-2.6175,-2.6656,-2.7071,-2.7423,-2.7644,-2.7788,-2.7962,-2.8139,-2.8447,-2.8615,-2.8615,-2.902,-2.9189,-2.9242,-2.945,-2.9572,-2.9678,-2.9678,-2.9877,-3.0191,-3.0608,-3.0917,-3.1103,-3.1536,-3.1793,-3.1957,-3.1957,-3.2033,-3.2208,-3.2001,-3.2033,-3.2196,-3.1989,-3.1957,-3.2001,-3.2164,-3.2001,-3.1749,-3.1913,-3.2077,-3.237,-3.3066,-3.3522,-3.3943,-3.4637,-3.4843,-3.502,-3.5776,-3.595,-3.6163,-3.6861,-3.6978,-3.6978,-3.6978,-3.6978,-3.6978,-3.6978,-3.6978,-3.6978,-3.6978,-3.6978,-3.6978,-3.6978,-3.6978,-3.6978,-3.6978,-3.6978,-3.6978,-3.6978,-3.6567,-3.6244,-3.6117,-3.5026,-3.4329,-3.4203,-3.3613,-3.329,-3.329,-3.329,-3.329,-3.329,-3.329,-3.329,-3.329,-3.329,-3.3326,0.0,0.0,0.0,-3.329,0.0,0.0,0.0,-3.2637,0.0,0.0,0.0,0.0,0.0,0.0,0.0,0.0,0.0,0.0,0.0,0.0,0.0,0.0,0.0,0.0,0.0,-2.5555,-2.5846,-2.6205,-2.6363,-2.6656,-2.7139,-2.7162,-2.737,-2.7696,-2.7898,-2.8018,-2.8018,-2.8279,-2.8461,-2.8461,-2.8598,-2.8774,-2.9063,-2.9135,-2.9427,-2.9838,-3.0174,-3.0409,-3.0506,-3.0814,-3.1079,-3.1344,-3.1609,-3.1705,-3.1705,-3.1705,-3.1705,-3.1705,-3.1705,-3.1705,-3.1705,-3.1705,-3.1705,-3.1705,-3.1705,-3.2001,-3.2531,-3.3395,-3.3649,-3.3775,-3.4181,-3.4637,-3.5115,-3.5588,-3.603,-3.6494,-3.69,-3.6978,-3.6978,-3.6978,-3.6978,-3.6978,-3.6978,-3.6978,-3.6978,-3.6978,-3.6978,-3.6978,-3.6978,-3.6978,-3.6978,-3.6978,-3.6978,-3.6866,-3.6595,-3.6286,-3.585,-3.5194,-3.454,-3.4062,-3.3754,-3.3445,-3.329,-3.329,-3.329,-3.329,-3.329,-3.329,-3.329,-3.329,-3.329,-3.329,0.0,0.0,0.0,0.0,0.0,-3.3163,0.0,0.0,0.0,0.0,0.0,0.0,0.0,0.0,0.0,0.0,0.0,0.0,0.0,0.0,0.0,0.0,0.0,0.0,0.0,-2.5969,-2.615,-2.5799,-2.6194,-2.6491,-2.6577,-2.647,-2.6633,-2.7111,-2.7302,-2.7458,-2.7563,-2.7748,-2.7841,-2.7841,-2.776,-2.7982,-2.8421,-2.8575,-2.8923,-2.9391,-2.9642,-2.9762,-2.9816,-2.9912,-3.0211,-3.0685,-3.13,-3.1621,-3.1705,-3.1705,-3.1705,-3.1705,-3.1705,-3.1705,-3.1705,-3.1705,-3.1705,-3.1705,-3.1705,-3.2208,-3.2907,-3.3606,-3.3804,-3.3804,-3.3804,-3.4485,-3.5196,-3.5413,-3.6123,-3.6783,-3.6978,-3.6978,-3.6978,-3.6978,-3.6978,-3.6978,-3.6978,-3.6978,-3.6978,-3.6978,-3.6978,-3.6978,-3.6978,-3.6978,-3.6978,-3.6978,-3.688,-3.6652,-3.6145,-3.5892,-3.5293,-3.4259,-3.409,-3.381,-3.3304,-3.329,-3.329,-3.329,-3.329,-3.329,-3.329,-3.329,-3.329,-3.329,-3.329,-3.329,0.0,0.0,0.0,0.0,-3.1879,0.0,0.0,0.0,0.0,0.0,0.0,0.0,0.0,0.0,0.0,0.0,0.0,0.0,0.0,0.0,0.0,0.0,0.0,0.0,0.0,0.0,-2.7544,-2.5191,-2.7643,-2.8237,-2.5962,-2.5966,-2.6287,-2.682,-2.7046,-2.7387,-2.7841,-2.7655,-2.7563,-2.7522,-2.7342,-2.7295,-2.7352,-2.7393,-2.7539,-2.7801,-2.8297,-2.8632,-2.8899,-2.9305,-2.9518,-2.9666,-3.063,-3.1296,-3.1705,-3.1705,-3.1705,-3.1705,-3.1705,-3.1705,-3.1705,-3.1705,-3.1705,-3.1705,-3.1705,-3.1749,-3.1869,-3.1957,-3.2001,-3.2001,-3.2001,-3.2661,-3.3492,-3.4264,-3.5156,-3.6084,-3.6822,-3.6978,-3.6978,-3.6978,-3.6978,-3.6978,-3.6978,-3.6978,-3.6978,-3.6978,-3.6978,-3.6978,-3.6978,-3.6978,-3.6978,-3.6978,-3.6539,-3.6174,-3.6117,-3.5068,-3.4343,-3.4217,-3.3697,-3.3361,-3.329,-3.329,-3.329,-3.329,-3.329,-3.329,-3.329,-3.329,-3.329,-3.329,-3.329,-3.329,0.0,0.0,0.0,0.0,0.0,0.0,-3.1244,0.0,-3.1929,0.0,0.0,0.0,0.0,0.0,0.0,0.0,0.0,0.0,0.0,0.0,0.0,0.0,0.0,0.0,0.0,0.0,0.0,0.0,0.0,-2.6128,-2.5271,-2.5321,-2.5589,-2.6131,-2.6537,-2.6883,-2.7104,-2.7233,-2.733,-2.7342,-2.7219,-2.719,-2.719,-2.7342,-2.74,-2.7534,-2.7889,-2.8117,-2.8263,-2.8433,-2.8692,-2.9028,-2.9576,-3.0024,-3.039,-3.0544,-3.0599,-3.0599,-3.0704,-3.0747,-3.0747,-3.0747,-3.0747,-3.0747,-3.0747,-3.0747,-3.0747,-3.0747,-3.1019,-3.1366,-3.1859,-3.2869,-3.3972,-3.491,-3.5776,-3.6573,-3.694,-3.6978,-3.6978,-3.6978,-3.6978,-3.6978,-3.6978,-3.6978,-3.6978,-3.6978,-3.6978,-3.6978,-3.6978,-3.6978,-3.6852,-3.6539,-3.6258,-3.5822,-3.5068,-3.4497,-3.4048,-3.3697,-3.3431,-3.329,-3.329,-3.329,-3.329,-3.329,-3.329,-3.329,-3.329,-3.329,-3.329,-3.329,-3.329,-3.329,-2.8358,0.0,0.0,0.0,0.0,0.0,0.0,0.0,0.0,0.0,0.0,0.0,0.0,0.0,0.0,0.0,0.0,0.0,0.0,0.0,0.0,0.0,0.0,0.0,0.0,0.0,0.0,0.0,-2.5278,-2.5122,-2.4742,-2.4717,-2.4958,-2.5474,-2.5853,-2.6145,-2.6295,-2.676,-2.7024,-2.7024,-2.7121,-2.719,-2.719,-2.733,-2.74,-2.7452,-2.7626,-2.7731,-2.7731,-2.7731,-2.7941,-2.8321,-2.8504,-2.8716,-2.8956,-2.9611,-2.9899,-2.9899,-3.0056,-3.0086,-3.0086,-3.0086,-3.0086,-3.0086,-3.0086,-3.0086,-3.0086,-3.0086,-3.0362,-3.0822,-3.1462,-3.2561,-3.3671,-3.4351,-3.5289,-3.6099,-3.6362,-3.654,-3.6691,-3.694,-3.6978,-3.6978,-3.6978,-3.6978,-3.6978,-3.6978,-3.6978,-3.6922,-3.6754,-3.6764,-3.6539,-3.592,-3.5709,-3.5208,-3.4273,-3.4048,-3.3768,-3.3319,-3.329,-3.329,-3.329,-3.329,-3.329,-3.329,-3.329,-3.329,-3.329,-3.329,-3.329,-3.329,-3.329,-3.329,0.0,0.0,0.0,-2.8927,0.0,0.0,0.0,0.0,-2.9605,0.0,0.0,0.0,0.0,0.0,-3.1833,-3.3219,0.0,0.0,0.0,0.0,0.0,0.0,0.0,0.0,0.0,0.0,0.0,-2.8075,-2.8009,-2.6933,-2.4368,-2.4212,-2.4441,-2.4923,-2.4958,-2.521,-2.5739,-2.6283,-2.6536,-2.6536,-2.699,-2.719,-2.719,-2.7231,-2.7231,-2.7231,-2.7231,-2.7231,-2.7231,-2.7231,-2.7242,-2.7254,-2.7464,-2.7545,-2.7766,-2.9451,-3.0086,-3.0086,-3.0086,-3.0086,-3.0086,-3.0086,-3.0086,-3.0086,-3.0086,-3.0086,-3.0086,-3.0086,-3.0098,-3.011,-3.0152,-3.0836,-3.1508,-3.1508,-3.2594,-3.3846,-3.4761,-3.5381,-3.599,-3.6822,-3.6978,-3.6978,-3.6978,-3.6978,-3.6978,-3.6978,-3.6978,-3.6768,-3.6216,-3.6131,-3.5906,-3.5287,-3.4646,-3.4245,-3.4203,-3.3655,-3.3304,-3.329,-3.329,-3.329,-3.329,-3.329,-3.329,-3.329,-3.329,-3.329,-3.329,-3.329,-3.329,-3.329,-3.329,-3.329,0.0,0.0,-2.5809,-2.7812,0.0,0.0,0.0,0.0,0.0,0.0,0.0,0.0,0.0,0.0,-3.0606,-3.1684,-3.2361,0.0,0.0,0.0,0.0,0.0,0.0,0.0,0.0,0.0,0.0,-2.8075,-2.6492,-2.5147,0.0,-2.42,-2.4269,-2.443,-2.4751,-2.5004,-2.5187,-2.5704,-2.6129,-2.6501,-2.6674,-2.6898,-2.719,-2.719,-2.719,-2.719,-2.719,-2.719,-2.719,-2.719,-2.719,-2.7231,-2.74,-2.7615,-2.7835,-2.8583,-2.8755,-2.8644,-2.8644,-2.8714,-2.8824,-2.8824,-2.8918,-2.9039,-2.9039,-2.9039,-2.9039,-2.9039,-2.9304,-2.968,-3.0297,-3.091,-3.1552,-3.2183,-3.3093,-3.3905,-3.4229,-3.4868,-3.5453,-3.577,-3.5808,-3.5808,-3.5808,-3.5808,-3.5949,-3.6356,-3.6061,-3.5738,-3.5527,-3.5498,-3.5273,-3.4618,-3.4329,-3.4034,-3.3627,-3.3403,-3.329,-3.329,-3.329,-3.329,-3.329,-3.329,-3.329,-3.329,-3.329,-3.329,-3.329,-3.329,-3.329,-3.329,-3.329,-3.329,-2.5,-2.4563,0.0,-2.6501,-2.6472,0.0,-2.8478,0.0,0.0,0.0,0.0,0.0,0.0,0.0,0.0,-2.9856,-3.0813,-3.1827,0.0,-3.3308,0.0,0.0,0.0,0.0,0.0,0.0,-2.8771,-2.8069,-2.5995,-2.4578,0.0,0.0,-2.42,-2.42,-2.4499,-2.4659,-2.4659,-2.5164,-2.5589,-2.5961,-2.6329,-2.6674,-2.6967,-2.711,-2.719,-2.719,-2.719,-2.719,-2.719,-2.719,-2.719,-2.7231,-2.74,-2.7615,-2.7788,-2.803,-2.807,-2.8002,-2.8002,-2.8151,-2.8299,-2.8299,-2.8379,-2.851,-2.851,-2.851,-2.8546,-2.8739,-2.8907,-2.9173,-2.9936,-3.0258,-3.053,-3.1129,-3.2019,-3.2825,-3.3133,-3.4008,-3.4803,-3.5152,-3.5189,-3.5189,-3.5189,-3.5006,-3.5077,-3.5695,-3.5442,-3.5105,-3.4894,-3.4829,-3.459,-3.3936,-3.388,-3.3712,-3.3319,-3.329,-3.329,-3.329,-3.329,-3.329,-3.329,-3.329,-3.329,-3.329,-3.329,-3.329,-3.329,-3.329,-3.329,-3.329,-3.329,-3.329]}]]